[[{"header":{"parameterUnit":"m.s-1","parameterCategory":1,"la1":30.6,"la2":29.2853,"lo1":-89.7004,"lo2":-87.6739,"dy":0.0162,"dx":0.0183,"nx":112,"ny":82,"refTime":"2026-04-11T12:00:00:Z","depth":0,"parameterNumber":2,"parameterNumberName":"U-component_of_WINDS"},"data":[0.0,0.0,0.0,0.0,0.0,0.0,0.0,0.0,0.0,0.0,0.0,0.0,0.0,0.0,0.0,0.0,0.0,0.0,0.0,0.0,0.0,0.0,0.0,0.0,0.0,0.0,0.0,0.0,0.0,0.0,0.0,0.0,0.0,0.0,0.0,0.0,0.0,0.0,0.0,0.0,0.0,0.0,0.0,0.0,0.0,0.0,0.0,0.0,0.0,0.0,0.0,0.0,0.0,0.0,0.0,0.0,0.0,0.0,0.0,0.0,0.0,0.0,0.0,0.0,0.0,0.0,0.0,0.0,0.0,0.0,0.0,0.0,0.0,0.0,0.0,0.0,0.0,0.0,0.0,0.0,0.0,0.0,0.0,0.0,0.0,0.0,0.0,0.0,0.0,0.0,-0.9179,-1.0978,-1.1174,-1.1151,-1.109,-0.9852,-0.9045,-0.8983,0.0,0.0,0.0,0.0,0.0,0.0,0.0,0.0,0.0,0.0,0.0,0.0,0.0,0.0,0.0,0.0,0.0,0.0,0.0,0.0,0.0,0.0,0.0,0.0,0.0,0.0,0.0,0.0,0.0,0.0,0.0,0.0,0.0,0.0,0.0,0.0,0.0,0.0,0.0,0.0,0.0,0.0,0.0,0.0,0.0,0.0,0.0,0.0,0.0,0.0,0.0,0.0,0.0,0.0,0.0,0.0,0.0,0.0,0.0,0.0,0.0,0.0,0.0,0.0,0.0,0.0,0.0,0.0,0.0,0.0,0.0,0.0,0.0,0.0,0.0,0.0,0.0,0.0,0.0,0.0,0.0,0.0,0.0,0.0,0.0,0.0,0.0,0.0,0.0,0.0,0.0,0.0,0.0,0.0,0.0,0.0,0.0,0.0,0.0,0.0,0.0,0.0,0.0,0.0,-0.9386,-1.1687,-1.1935,-1.1681,-1.1075,-1.0831,-1.0464,-0.986,0.0,0.0,0.0,0.0,0.0,0.0,0.0,0.0,0.0,0.0,0.0,0.0,0.0,0.0,0.0,0.0,0.0,0.0,0.0,0.0,0.0,0.0,0.0,0.0,0.0,0.0,0.0,0.0,0.0,0.0,0.0,0.0,0.0,0.0,0.0,0.0,0.0,0.0,0.0,0.0,0.0,0.0,0.0,0.0,0.0,0.0,0.0,0.0,0.0,0.0,0.0,0.0,0.0,0.0,0.0,0.0,0.0,0.0,0.0,0.0,0.0,0.0,0.0,0.0,0.0,0.0,0.0,0.0,0.0,0.0,0.0,0.0,0.0,0.0,0.0,0.0,0.0,0.0,0.0,0.0,0.0,0.0,0.0,0.0,0.0,0.0,0.0,0.0,0.0,0.0,0.0,0.0,0.0,0.0,0.0,0.0,0.0,0.0,0.0,0.0,0.0,0.0,0.0,-0.9743,-1.1111,-1.2692,-1.2859,-1.2558,-1.1774,-1.1376,-1.0642,-0.9432,-0.9065,0.0,0.0,0.0,0.0,0.0,0.0,0.0,0.0,0.0,0.0,0.0,0.0,0.0,0.0,0.0,0.0,0.0,0.0,0.0,0.0,0.0,0.0,0.0,0.0,0.0,0.0,0.0,0.0,0.0,0.0,0.0,0.0,0.0,0.0,0.0,0.0,0.0,0.0,0.0,0.0,0.0,0.0,0.0,0.0,0.0,0.0,0.0,0.0,0.0,0.0,0.0,0.0,0.0,0.0,0.0,0.0,0.0,0.0,0.0,0.0,0.0,0.0,0.0,0.0,0.0,0.0,0.0,0.0,0.0,0.0,0.0,0.0,0.0,0.0,0.0,0.0,0.0,0.0,0.0,0.0,0.0,0.0,0.0,0.0,0.0,0.0,0.0,0.0,0.0,0.0,0.0,0.0,0.0,0.0,0.0,0.0,0.0,0.0,0.0,0.0,0.0,0.0,-1.1367,-1.2642,-1.3728,-1.3822,-1.3414,-1.2418,-1.1815,-1.0736,-0.8918,-0.8861,0.0,0.0,0.0,0.0,0.0,0.0,0.0,0.0,0.0,0.0,0.0,0.0,0.0,0.0,0.0,0.0,0.0,0.0,0.0,0.0,0.0,0.0,0.0,0.0,0.0,0.0,0.0,0.0,0.0,0.0,0.0,0.0,0.0,0.0,0.0,0.0,0.0,0.0,0.0,0.0,0.0,0.0,0.0,0.0,0.0,0.0,0.0,0.0,0.0,0.0,0.0,0.0,0.0,0.0,0.0,0.0,0.0,0.0,0.0,0.0,0.0,0.0,0.0,0.0,0.0,0.0,0.0,0.0,0.0,0.0,0.0,0.0,0.0,0.0,0.0,0.0,0.0,0.0,0.0,0.0,0.0,0.0,0.0,0.0,0.0,0.0,0.0,0.0,0.0,0.0,0.0,0.0,0.0,0.0,0.0,0.0,0.0,0.0,0.0,0.0,0.0,0.0,-1.1808,-1.301,-1.4627,-1.4797,-1.4153,-1.2532,-1.2398,-1.137,-0.8951,-0.8867,0.0,0.0,0.0,0.0,0.0,0.0,0.0,0.0,0.0,0.0,0.0,0.0,0.0,0.0,0.0,0.0,0.0,0.0,0.0,0.0,0.0,0.0,0.0,0.0,0.0,0.0,0.0,0.0,0.0,0.0,0.0,0.0,0.0,0.0,0.0,0.0,0.0,0.0,0.0,0.0,0.0,0.0,0.0,0.0,0.0,0.0,0.0,0.0,0.0,0.0,0.0,0.0,0.0,0.0,0.0,0.0,0.0,0.0,0.0,0.0,0.0,0.0,0.0,0.0,0.0,0.0,0.0,0.0,0.0,0.0,0.0,0.0,0.0,0.0,0.0,0.0,0.0,0.0,0.0,0.0,0.0,0.0,0.0,0.0,0.0,0.0,0.0,0.0,0.0,0.0,0.0,0.0,0.0,0.0,0.0,0.0,0.0,0.0,0.0,0.0,0.0,0.0,-1.2232,-1.3106,-1.4771,-1.496,-1.4506,-1.3376,-1.2839,-1.1484,-0.8965,0.0,0.0,0.0,0.0,0.0,0.0,0.0,0.0,0.0,0.0,0.0,0.0,0.0,0.0,0.0,0.0,0.0,0.0,0.0,0.0,0.0,0.0,0.0,0.0,0.0,0.0,0.0,0.0,0.0,0.0,0.0,0.0,0.0,0.0,0.0,0.0,0.0,0.0,0.0,0.0,0.0,0.0,0.0,0.0,0.0,0.0,0.0,0.0,0.0,0.0,0.0,0.0,0.0,0.0,0.0,0.0,0.0,0.0,0.0,0.0,0.0,0.0,0.0,0.0,0.0,0.0,0.0,0.0,0.0,0.0,0.0,0.0,0.0,0.0,0.0,0.0,0.0,0.0,0.0,0.0,0.0,0.0,0.0,0.0,0.0,0.0,0.0,0.0,0.0,0.0,0.0,0.0,0.0,0.0,0.0,0.0,0.0,0.0,0.0,0.0,0.0,0.0,-1.1683,-1.2344,-1.3217,-1.4875,-1.5063,-1.4733,-1.3901,-1.3086,-1.1542,-0.9001,0.0,0.0,0.0,0.0,0.0,0.0,0.0,0.0,0.0,0.0,0.0,0.0,0.0,0.0,0.0,0.0,0.0,0.0,0.0,0.0,0.0,0.0,0.0,0.0,0.0,0.0,0.0,0.0,0.0,0.0,0.0,0.0,0.0,0.0,0.0,0.0,0.0,0.0,0.0,0.0,0.0,0.0,0.0,0.0,0.0,0.0,0.0,0.0,0.0,0.0,0.0,0.0,0.0,0.0,0.0,0.0,0.0,0.0,0.0,0.0,0.0,0.0,0.0,0.0,0.0,0.0,0.0,0.0,0.0,0.0,0.0,0.0,0.0,0.0,0.0,0.0,0.0,0.0,0.0,0.0,0.0,0.0,0.0,0.0,0.0,0.0,0.0,0.0,0.0,0.0,0.0,0.0,0.0,0.0,0.0,0.0,0.0,0.0,0.0,0.0,0.0,0.0,-1.1094,-1.213,-1.3335,-1.5019,-1.5192,-1.4843,-1.3995,-1.3176,-1.162,0.0,0.0,0.0,0.0,0.0,0.0,0.0,0.0,0.0,0.0,0.0,0.0,0.0,0.0,0.0,0.0,0.0,0.0,0.0,0.0,0.0,0.0,0.0,0.0,0.0,0.0,0.0,0.0,0.0,0.0,0.0,0.0,0.0,0.0,0.0,0.0,0.0,0.0,0.0,0.0,0.0,0.0,0.0,0.0,0.0,0.0,0.0,0.0,0.0,0.0,0.0,0.0,0.0,0.0,0.0,0.0,0.0,0.0,0.0,0.0,0.0,0.0,0.0,0.0,0.0,0.0,0.0,0.0,0.0,0.0,0.0,0.0,0.0,0.0,0.0,0.0,0.0,0.0,0.0,0.0,0.0,0.0,0.0,0.0,0.0,0.0,0.0,0.0,0.0,0.0,0.0,0.0,0.0,0.0,0.0,0.0,0.0,0.0,0.0,0.0,0.0,0.0,0.0,-1.1784,-1.2467,-1.3335,-1.5019,-1.5192,-1.5096,-1.4843,-1.3524,-1.2122,-1.0752,0.0,0.0,0.0,0.0,0.0,0.0,0.0,0.0,0.0,0.0,0.0,0.0,0.0,0.0,0.0,0.0,0.0,0.0,0.0,0.0,0.0,0.0,0.0,0.0,0.0,0.0,0.0,0.0,0.0,0.0,0.0,0.0,0.0,0.0,0.0,0.0,0.0,0.0,0.0,0.0,0.0,0.0,0.0,0.0,0.0,0.0,0.0,0.0,0.0,0.0,0.0,0.0,0.0,0.0,0.0,0.0,0.0,0.0,0.0,0.0,0.0,0.0,0.0,0.0,0.0,0.0,0.0,0.0,0.0,0.0,0.0,0.0,0.0,0.0,0.0,0.0,0.0,0.0,0.0,0.0,0.0,0.0,0.0,0.0,0.0,0.0,0.0,0.0,0.0,0.0,0.0,0.0,0.0,0.0,0.0,0.0,0.0,0.0,0.0,0.0,0.0,0.0,-1.167,-1.2429,-1.3335,-1.5019,-1.5192,-1.5058,-1.4709,-1.3467,-1.218,-1.0964,0.0,0.0,0.0,0.0,0.0,0.0,0.0,0.0,0.0,0.0,0.0,0.0,0.0,0.0,0.0,0.0,0.0,0.0,0.0,0.0,0.0,0.0,0.0,0.0,0.0,0.0,0.0,0.0,0.0,0.0,0.0,0.0,0.0,0.0,0.0,0.0,0.0,0.0,0.0,0.0,0.0,0.0,0.0,0.0,0.0,0.0,0.0,0.0,0.0,0.0,0.0,0.0,0.0,0.0,0.0,0.0,0.0,0.0,0.0,0.0,0.0,0.0,0.0,0.0,0.0,0.0,0.0,0.0,0.0,0.0,0.0,0.0,0.0,0.0,0.0,0.0,0.0,0.0,0.0,0.0,0.0,0.0,0.0,0.0,0.0,0.0,0.0,0.0,0.0,0.0,0.0,0.0,0.0,0.0,0.0,0.0,0.0,0.0,0.0,0.0,0.0,0.0,-1.1187,-1.2168,-1.3335,-1.5019,-1.5192,-1.4843,-1.3975,-1.3156,-1.1988,-1.0327,0.0,0.0,0.0,0.0,0.0,0.0,0.0,0.0,0.0,0.0,0.0,0.0,0.0,0.0,0.0,0.0,0.0,0.0,0.0,0.0,0.0,0.0,0.0,0.0,0.0,0.0,0.0,0.0,0.0,0.0,0.0,0.0,0.0,0.0,0.0,0.0,0.0,0.0,0.0,0.0,0.0,0.0,0.0,0.0,0.0,0.0,0.0,0.0,0.0,0.0,0.0,0.0,0.0,0.0,0.0,0.0,0.0,0.0,0.0,0.0,-1.2111,0.0,0.0,0.0,0.0,0.0,0.0,0.0,0.0,0.0,0.0,0.0,0.0,0.0,0.0,0.0,0.0,0.0,0.0,0.0,0.0,0.0,0.0,0.0,0.0,0.0,0.0,0.0,0.0,0.0,0.0,0.0,0.0,0.0,0.0,0.0,0.0,0.0,0.0,0.0,0.0,0.0,-1.1931,-1.2503,-1.3335,-1.5019,-1.5192,-1.4843,-1.3975,-1.3156,-1.2257,-1.1194,-0.9729,0.0,0.0,0.0,0.0,0.0,0.0,0.0,0.0,0.0,0.0,0.0,0.0,0.0,0.0,0.0,0.0,0.0,0.0,0.0,0.0,0.0,0.0,0.0,0.0,0.0,0.0,0.0,0.0,0.0,0.0,0.0,0.0,0.0,0.0,0.0,0.0,0.0,0.0,0.0,0.0,0.0,0.0,0.0,0.0,0.0,0.0,0.0,0.0,0.0,0.0,0.0,0.0,0.0,0.0,0.0,0.0,0.0,0.0,0.0,0.0,-1.3584,0.0,0.0,0.0,0.0,0.0,0.0,0.0,0.0,0.0,0.0,0.0,0.0,0.0,0.0,0.0,0.0,0.0,0.0,0.0,0.0,0.0,0.0,0.0,0.0,0.0,0.0,0.0,0.0,0.0,0.0,0.0,0.0,0.0,0.0,0.0,0.0,0.0,0.0,0.0,0.0,-1.223,-1.2615,-1.3335,-1.5019,-1.5192,-1.4692,-1.3426,-1.2947,-1.2142,-1.0867,-0.996,0.0,0.0,0.0,0.0,0.0,0.0,0.0,0.0,0.0,0.0,0.0,0.0,0.0,0.0,0.0,0.0,0.0,0.0,0.0,0.0,0.0,0.0,0.0,0.0,0.0,0.0,0.0,0.0,0.0,0.0,0.0,0.0,0.0,0.0,0.0,0.0,0.0,0.0,0.0,0.0,0.0,0.0,0.0,0.0,0.0,0.0,0.0,0.0,0.0,0.0,0.0,0.0,0.0,-1.7292,-1.8096,-1.9458,-1.9746,-2.0635,-2.1778,-1.8464,-1.6805,-1.6324,-1.535,0.0,0.0,0.0,0.0,0.0,0.0,0.0,0.0,0.0,0.0,0.0,0.0,0.0,0.0,0.0,0.0,0.0,0.0,0.0,0.0,0.0,0.0,0.0,0.0,-1.5096,-1.4385,-1.3719,0.0,0.0,0.0,0.0,0.0,0.0,0.0,0.0,0.0,0.0,0.0,-1.2312,-1.2752,-1.3505,-1.5038,-1.5192,-1.458,-1.3043,-1.2911,-1.2178,-1.0442,-1.0327,-1.0269,0.0,0.0,0.0,0.0,0.0,0.0,0.0,0.0,0.0,0.0,0.0,0.0,0.0,0.0,0.0,0.0,0.0,0.0,0.0,0.0,0.0,0.0,0.0,0.0,0.0,0.0,0.0,0.0,0.0,0.0,0.0,0.0,-0.9879,-1.0094,0.0,0.0,0.0,0.0,0.0,0.0,0.0,0.0,0.0,0.0,0.0,0.0,0.0,-1.6391,-1.7199,-1.8065,-1.893,-1.9808,-2.0504,-2.0966,-2.1212,-2.274,-2.3548,-2.3764,-2.3918,0.0,-2.0641,-1.9024,0.0,0.0,0.0,0.0,0.0,0.0,0.0,0.0,0.0,0.0,0.0,0.0,0.0,0.0,0.0,0.0,0.0,0.0,0.0,0.0,0.0,0.0,-1.7372,-1.7372,-1.7276,-1.718,0.0,-1.4662,-1.2488,-1.2373,-1.1755,0.0,0.0,0.0,0.0,0.0,0.0,0.0,-1.2459,-1.3256,-1.4113,-1.5096,-1.5192,-1.4805,-1.3824,-1.3747,-1.3017,-1.1348,-1.1233,-1.0887,-1.0133,-1.0094,0.0,0.0,0.0,0.0,0.0,0.0,0.0,0.0,0.0,0.0,0.0,0.0,0.0,0.0,0.0,0.0,0.0,0.0,0.0,0.0,0.0,0.0,0.0,0.0,0.0,0.0,0.0,0.0,0.0,-0.9974,-1.1158,-1.1643,-1.2005,-1.2071,0.0,0.0,0.0,0.0,0.0,0.0,0.0,0.0,0.0,-1.8019,-1.8888,-1.9715,-2.0566,-2.0931,-2.1566,-2.2432,-2.2797,-2.3447,-2.4389,-2.5159,-2.6029,-2.6933,-2.7274,-2.6823,-2.5572,-2.2427,-2.0653,-1.9682,0.0,0.0,0.0,0.0,-1.7014,-1.8128,-1.8075,-1.8072,-1.8075,-1.8061,0.0,0.0,0.0,0.0,0.0,0.0,0.0,0.0,0.0,0.0,-1.9831,-1.9831,-1.9485,-1.9023,-1.8538,-1.7276,-1.5951,0.0,-1.4525,-1.3824,-1.2475,0.0,0.0,0.0,0.0,-1.2267,-1.3212,-1.3668,-1.4225,-1.5115,-1.5192,-1.4843,-1.3975,-1.3898,-1.3382,-1.2219,-1.1678,-1.1233,-1.0848,-1.0365,-0.9538,0.0,0.0,0.0,0.0,0.0,0.0,0.0,0.0,0.0,0.0,0.0,0.0,0.0,0.0,0.0,0.0,0.0,0.0,0.0,0.0,0.0,0.0,0.0,0.0,0.0,0.0,0.0,0.0,-1.1505,-1.2409,-1.3021,-1.3255,-1.3369,0.0,0.0,0.0,0.0,0.0,0.0,-1.7369,-1.8042,-1.9158,-2.0889,-2.1523,-2.235,-2.3428,-2.3447,-2.399,-2.5067,-2.5067,-2.5721,-2.6948,-2.7159,-2.7909,-2.9107,-2.9338,-2.9319,-2.8868,-2.549,-2.362,-2.268,-2.0405,-2.041,-2.1526,-2.0067,-2.0461,-2.1706,-2.163,-2.1589,-2.159,-2.157,-2.0408,-1.9007,-1.9007,0.0,0.0,0.0,0.0,-2.0596,-2.1831,-2.2004,-2.1773,-2.1543,-2.1216,-2.0692,-1.9823,-1.9985,-1.9607,0.0,-1.6814,-1.6327,-1.4809,0.0,0.0,0.0,0.0,-1.3681,-1.4171,-1.4425,-1.4728,-1.5154,-1.5192,-1.4939,-1.4283,-1.4225,-1.3882,-1.3063,-1.2216,-1.1639,-1.1408,-1.0558,-0.9729,-0.892,0.0,0.0,0.0,0.0,0.0,0.0,0.0,0.0,0.0,0.0,0.0,0.0,0.0,0.0,0.0,0.0,0.0,0.0,0.0,0.0,0.0,0.0,0.0,0.0,0.0,0.0,0.0,0.0,0.0,-1.3949,-1.4671,0.0,0.0,0.0,0.0,-1.6313,-1.6378,-1.7465,-1.9962,-2.0154,-2.0946,-2.2624,-2.272,-2.3524,-2.5154,-2.5173,-2.6019,-2.7703,-2.7703,-2.7761,-2.7857,-2.8626,-2.9011,-2.9146,-2.9987,-2.9902,-2.9102,-2.8079,-2.7181,-2.6273,-2.4557,-2.4435,-2.5149,-2.4284,-2.4514,-2.5237,-2.5163,-2.5147,-2.5127,-2.5067,-2.3908,-2.2547,-2.2547,-2.1908,0.0,0.0,-2.3802,-2.386,-2.3956,-2.3355,-2.2528,-2.1696,-2.21,-2.2451,-2.1562,-2.2663,-2.2609,0.0,-1.7641,-1.735,-1.6429,0.0,-1.6009,-1.5191,-1.5721,-1.5936,-1.5229,-1.5859,-1.6061,-1.5288,-1.5192,-1.5173,-1.5135,-1.5135,-1.4766,-1.3898,-1.3079,-1.2257,-1.1427,-1.0558,-0.9729,-0.892,-0.8862,0.0,0.0,0.0,0.0,0.0,0.0,0.0,0.0,0.0,0.0,0.0,0.0,0.0,0.0,0.0,0.0,0.0,0.0,0.0,0.0,0.0,0.0,0.0,0.0,0.0,0.0,0.0,0.0,-1.6302,-1.718,0.0,-1.8428,-1.8483,-1.8822,-1.9665,-1.9719,-2.0369,-2.1831,-2.2923,-2.3788,-2.4385,-2.5505,-2.637,-2.6967,-2.6967,-2.7294,-2.7895,-2.7895,-2.8165,-2.8684,-2.8973,-2.9704,-3.0794,-3.1102,-3.1382,-3.1631,-3.1361,-2.9809,-2.7497,-2.6324,-2.6434,-2.7132,-2.6284,-2.6507,-2.7211,-2.7113,-2.7071,-2.6964,-2.6343,-2.5736,-2.5139,-2.4577,-2.4192,-2.4192,-2.537,-2.5717,-2.5717,-2.5717,-2.5063,-2.4197,-2.3374,-2.3413,-2.3394,-2.2528,-2.3278,-2.3475,-2.1393,-2.0989,-2.0542,-1.915,-1.8912,-1.8428,-1.7028,-1.7048,-1.7125,-1.6843,-1.6638,-1.6388,-1.6061,-1.6042,-1.5811,-1.525,-1.5712,-1.5654,-1.4786,-1.3467,-1.2567,-1.2257,-1.0867,-0.996,-0.9671,-0.917,-0.8593,0.0,0.0,0.0,0.0,0.0,0.0,0.0,0.0,0.0,0.0,0.0,0.0,0.0,0.0,0.0,0.0,0.0,0.0,0.0,0.0,0.0,0.0,0.0,0.0,0.0,-1.5043,-1.672,-1.8432,-1.934,-2.0181,-2.1062,-2.1408,-2.1677,-2.1927,-2.1947,-2.2312,-2.3182,-2.4543,-2.5423,-2.5731,-2.714,-2.803,-2.8299,-2.8299,-2.8607,-2.9179,-2.9179,-2.9602,-3.0377,-3.0377,-3.1006,-3.2102,-3.2102,-3.2453,-3.3034,-3.3079,-3.1825,-2.9794,-2.9223,-2.9396,-2.9889,-2.9301,-2.9467,-2.9936,-2.9784,-2.9511,-2.9144,-2.8527,-2.8121,-2.7769,-2.7192,-2.7019,-2.7135,-2.7712,-2.7885,-2.7808,-2.7525,-2.6813,-2.5967,-2.5144,-2.4933,-2.4702,-2.3832,-2.4336,-2.4683,-2.3812,-2.3197,-2.235,-2.0942,-2.0692,-2.0212,-1.8792,-1.8581,-1.8469,-1.818,-1.7661,-1.7237,-1.6949,-1.691,-1.6561,-1.5712,-1.6176,-1.6138,-1.5269,-1.3621,-1.2702,-1.2702,-1.1312,-1.0404,-1.0113,-0.9304,-0.8748,-0.8462,0.0,0.0,0.0,0.0,0.0,0.0,0.0,0.0,0.0,0.0,0.0,0.0,0.0,0.0,0.0,0.0,0.0,0.0,0.0,0.0,0.0,0.0,0.0,-1.5506,-1.6846,-1.8526,-2.0171,-2.112,-2.1966,-2.2836,-2.3682,-2.3836,-2.299,-2.2913,-2.3278,-2.4091,-2.4928,-2.5769,-2.6621,-2.7486,-2.8319,-2.9127,-2.9146,-3.0006,-3.1698,-3.1737,-3.2179,-3.2987,-3.3006,-3.3026,-3.3026,-3.2987,-3.3049,-3.3144,-3.3139,-3.3213,-3.3344,-3.3305,-3.3341,-3.339,-3.3398,-3.3394,-3.3365,-3.3165,-3.2506,-3.1737,-3.1718,-3.1135,-3.0442,-3.0404,-3.0404,-3.0404,-3.0404,-3.0385,-3.0154,-2.9319,-2.8492,-2.7678,-2.6832,-2.664,-2.6409,-2.5558,-2.6019,-2.6346,-2.55,-2.4005,-2.2581,-2.1696,-2.1523,-2.1235,-2.0423,-2.0308,0.0,-1.9146,-1.9011,-1.8684,-1.7834,-1.7738,-1.7411,-1.6603,-1.6545,-1.6176,-1.5308,-1.364,-1.2702,-1.2741,-1.187,-1.1002,-1.0152,-0.9343,-0.8519,-0.7642,0.0,0.0,0.0,0.0,0.0,0.0,0.0,0.0,0.0,0.0,0.0,0.0,0.0,0.0,0.0,0.0,0.0,0.0,0.0,0.0,0.0,-1.6822,-1.8187,-1.7319,-1.9127,-2.0965,-2.2056,-2.3405,-2.4596,-2.5466,-2.5774,-2.5813,-2.5563,-2.5563,-2.539,-2.4981,-2.639,-2.7294,-2.7544,-2.8338,-2.9179,-3.0019,-3.0038,-3.0596,-3.1718,-3.2295,-3.3353,-3.4808,-3.5385,-3.5654,-3.5615,-3.5038,-3.4494,-3.4054,-3.4105,-3.4177,-3.4172,-3.3593,-3.3371,-3.3396,-3.3398,-3.3368,-3.331,-3.3202,-3.2938,-3.2534,-3.1914,-3.1543,-3.1212,-3.0596,-3.0404,-3.0404,-3.0404,-2.9948,-2.939,-2.9165,-2.8492,-2.7838,-2.7601,-2.7544,-2.7486,-2.7236,-2.689,-2.6524,-2.6288,-2.5365,-2.4154,-2.2697,-2.1927,-2.1235,-2.0423,-2.0308,0.0,-1.9965,-1.9392,-1.8915,-1.8665,-1.8645,-1.8299,-1.7449,-1.7372,-1.7026,-1.6195,-1.3989,-1.2967,-1.3558,-1.2175,-1.1293,-1.1041,-1.0192,-0.9364,0.0,0.0,0.0,0.0,0.0,0.0,0.0,0.0,0.0,0.0,0.0,0.0,0.0,0.0,0.0,0.0,0.0,0.0,0.0,0.0,0.0,0.0,-1.9178,-2.0787,-2.0643,-2.151,-2.2598,-2.3798,-2.5071,-2.6192,-2.7063,-2.714,-2.6986,-2.664,-2.6601,-2.639,-2.5865,-2.7467,-2.8396,-2.8396,-2.9563,-3.0429,-3.0942,-3.1269,-3.1891,-3.2756,-3.3583,-3.4692,-3.6038,-3.6865,-3.7053,-3.672,-3.6253,-3.5629,-3.4948,-3.5025,-3.5103,0.0,0.0,0.0,0.0,0.0,-3.4458,-3.4389,-3.4312,-3.3956,-3.3467,-3.296,-3.2517,-3.2045,-3.1192,-3.0692,-3.0327,-2.9967,-2.9256,-2.8665,-2.9011,-2.8742,-2.8492,-2.8852,-2.8948,-2.8852,-2.8472,-2.8005,-2.7544,-2.7217,-2.6447,0.0,-2.4082,-2.2831,-2.1658,-2.0481,-2.0308,-2.0308,-2.0308,-1.985,-1.9546,-1.9546,-1.9546,-1.918,-1.8318,-1.8241,0.0,0.0,0.0,-1.3817,-1.394,-1.267,0.0,0.0,0.0,0.0,0.0,0.0,0.0,0.0,-0.9096,-0.9787,0.0,0.0,0.0,0.0,0.0,0.0,0.0,0.0,0.0,0.0,0.0,0.0,0.0,0.0,0.0,0.0,-2.1572,-2.356,-2.442,-2.3863,-2.3908,-2.5387,-2.6337,-2.7198,-2.7953,-2.8049,-2.7717,-2.6948,-2.689,-2.6832,-2.6755,0.0,0.0,0.0,0.0,-3.1698,-3.1987,-3.2699,-3.3526,-3.4494,-3.5372,-3.6212,-3.7019,-3.7892,-3.7856,-3.7089,-3.6993,-3.6541,-3.586,-3.5924,-3.6083,-3.6273,-3.6073,-3.5996,-3.5996,-3.5993,-3.5963,-3.59,-3.5833,0.0,0.0,-3.4334,-3.3747,-3.2891,-3.2083,-3.1231,-3.0385,-2.9602,-2.8742,-2.8222,-2.905,-2.9165,-2.9319,-3.0192,-3.0404,-3.0192,-2.941,-2.9165,-2.8896,-2.8165,-2.7332,-2.6447,-2.5486,-2.3908,-2.2254,-2.0673,-2.0365,-2.0308,-2.0308,-2.0308,-2.0327,-2.0423,0.0,0.0,-1.9492,-1.9261,-1.8514,-1.7026,-1.5934,-1.4958,-1.4043,-1.3261,-1.286,-1.2856,-1.2749,-1.1943,-1.0404,-1.2043,-1.2447,-1.1656,-1.0885,-1.1406,0.0,0.0,0.0,0.0,0.0,0.0,0.0,0.0,0.0,0.0,0.0,0.0,0.0,0.0,0.0,-2.0172,-2.2495,-2.4445,-2.5334,-2.5831,-2.622,-2.6493,-2.7764,-2.8684,-2.8857,-2.8876,-2.88,-2.8626,-2.8626,-2.8338,-2.7678,-2.8569,-2.941,-3.0135,-3.0481,-3.1641,-3.3705,-3.3878,-3.4699,-3.6238,0.0,0.0,-3.8815,-3.965,-3.961,-3.8852,-3.8212,-3.7507,-3.6833,-3.6894,-3.7388,-3.7968,-3.6543,-3.5996,-3.5996,-3.5995,-3.5991,-3.5977,-3.5901,-3.5684,-3.5311,-3.4603,-3.417,-3.3801,-3.2929,-3.2102,0.0,-3.1237,-3.0063,-2.9069,-2.9929,-2.9621,-2.9319,-3.0192,-3.0404,-3.0346,-3.0173,-2.9602,-2.905,-2.8896,-2.8203,-2.7169,-2.5635,-2.3946,-2.2447,-2.1427,-2.0712,-2.0308,-2.0308,-2.0308,-2.0558,-2.1196,-2.1273,-2.1485,-2.2028,-2.0831,-1.9904,-1.9593,-1.7531,-1.5622,-1.4063,-1.3836,-1.3755,-1.3745,-1.3053,-1.2526,-1.2199,-1.3192,-1.3574,-1.3418,-1.3245,-1.3728,0.0,0.0,0.0,0.0,0.0,0.0,0.0,0.0,0.0,0.0,0.0,-1.6582,-1.832,0.0,-2.1678,-2.2949,-2.4589,-2.6013,-2.6887,-2.7688,-2.8171,-2.811,-2.8718,-2.9319,-2.9707,-2.9363,-2.9107,-2.9107,-2.9107,-2.894,-2.8566,-2.9762,-3.064,-3.1094,-3.194,-3.3224,-3.4928,-3.5353,-3.6202,-3.7469,-3.8337,-3.8974,-3.9437,-4.0228,-4.0198,-3.9486,-3.9083,-3.8474,-3.7804,-3.7867,-3.818,-3.8516,-3.7637,-3.7305,-3.7246,-3.6816,-3.6659,-3.6578,-3.6103,-3.5847,-3.5628,-3.5195,-3.4952,-3.4699,-3.3814,-3.2968,-3.2218,-3.1814,-3.0756,-2.9948,-3.0827,-3.0737,-3.0506,-3.0942,-3.1058,-3.0923,-3.05,-3.0058,-2.9756,-2.9756,-2.9429,-2.8613,-2.694,-2.5599,-2.4029,-2.1864,-2.0865,-2.0345,-2.0299,-2.0292,-2.0458,-2.0862,-2.0901,-2.1078,-2.1513,-2.0411,-1.9712,-1.9743,-1.8185,-1.6685,-1.54,-1.5348,-1.494,-1.4076,-1.4446,-1.4439,-1.3995,-1.525,-1.5846,-1.5846,-1.5857,-1.6069,0.0,0.0,0.0,0.0,0.0,0.0,0.0,0.0,-1.4941,-1.6152,-1.7539,-1.9043,-2.0781,-2.2519,-2.4121,-2.5488,-2.6562,-2.7558,-2.8435,-2.9108,-2.9546,-2.9663,-2.9543,-2.9704,-3.0356,-2.9765,-2.9357,-2.9357,-2.9511,-2.9638,-2.969,-3.1204,-3.2134,-3.23,-3.3669,-3.4986,-3.6193,-3.6851,-3.7679,-3.8706,-3.9423,-3.9746,-3.9766,-4.0424,-4.041,-3.9844,-3.9883,-3.9563,-3.9036,-3.9077,-3.9101,-3.9101,-3.9101,-3.9101,-3.8984,-3.7949,-3.7441,-3.7207,-3.6491,-3.6018,-3.5723,-3.572,-3.5621,-3.5393,-3.4687,-3.3878,-3.3069,-3.2414,-3.16,-3.1099,-3.1792,-3.1965,-3.1965,-3.1965,-3.1831,-3.1523,-3.0829,-3.054,-3.0419,-3.0419,-3.0419,-2.9897,-2.8237,-2.7256,-2.5603,-2.2339,-2.1175,-2.0562,-2.0353,-2.0308,-2.0369,-2.0523,-2.0543,-2.0556,-2.0569,-1.9983,-1.9495,-1.9227,-1.8554,-1.7811,-1.6999,-1.6952,-1.6297,-1.4875,-1.6159,-1.6584,-1.6056,-1.7566,-1.83,-1.8319,-1.865,-1.8492,-1.5371,-1.5195,-1.5625,-1.7187,-1.6973,-1.6582,0.0,0.0,-1.7109,-1.9512,-2.0176,-2.084,-2.2598,-2.4297,-2.5488,-2.5664,-2.707,-2.8457,-2.9334,-2.9486,-2.9785,-3.0558,-3.0464,-3.039,-3.0472,-3.0359,-3.025,-3.025,-3.0968,-3.144,-3.1516,-3.2435,-3.3315,-3.4072,-3.4365,-3.5612,-3.7996,-3.8097,-3.8937,-4.0505,-4.0602,-4.0641,-4.066,-4.0757,-4.0782,-4.0766,-4.0875,-4.0927,-4.0898,-4.0918,-4.0918,-4.0918,-4.0918,-4.0918,-4.0703,-3.9062,-3.7969,-3.7285,-3.718,-3.6563,-3.58,-3.5787,-3.5703,-3.5566,-3.5474,-3.4875,-3.4199,-3.4121,-3.3469,-3.2812,-3.2928,-3.2947,-3.2947,-3.2947,-3.2348,-3.1768,-3.1652,-3.1047,-3.0482,-3.0482,-3.0482,-2.9979,-2.8353,-2.7365,-2.5864,-2.3156,-2.2071,-2.1273,-2.049,-2.0333,-2.0591,-2.1362,-2.144,-2.149,-2.1532,-2.1461,-2.0784,-1.9289,-1.9166,-1.8765,-1.789,-1.7849,-1.7727,-1.7483,-1.7652,-1.809,-1.8776,-1.9662,-2.0105,-2.0144,-2.1699,-2.1139,-1.7773,-1.7305,-1.7207,-1.8457,-1.8867,-1.8926,-1.8789,-1.9258,-2.0039,-2.1133,-2.2129,-2.3184,-2.4434,-2.5644,-2.6797,0.0,-2.8574,-2.9355,-3.0234,-3.0331,-3.0445,-3.0768,-3.0277,-3.0082,-3.052,-3.0496,-3.0451,-3.0451,-3.1267,-3.1786,-3.1859,-3.316,-3.4109,-3.4504,-3.5046,-3.6306,-3.8408,-3.8411,-3.9268,-4.0922,-4.0922,-4.0922,-4.0922,-4.0922,-4.0942,-4.1016,-4.1081,-4.113,-4.1191,-4.1191,-4.1191,-4.1191,-4.1191,-4.1191,-4.1055,-3.9805,-3.9121,-3.873,-3.8238,-3.7732,-3.7308,-3.7317,-3.724,-3.7081,-3.6572,-3.6183,-3.5814,-3.5301,-3.4893,-3.4606,-3.4606,-3.4606,-3.4509,-3.4027,-3.3639,-3.3095,-3.2081,-3.1576,-3.1165,-3.0656,-3.0556,-3.0201,-2.9041,-2.8177,-2.6913,-2.4833,-2.2942,-2.163,-2.1262,-2.072,-2.0495,-2.0861,-2.0942,-2.097,-2.1,-2.0997,-2.0699,-2.0008,-2.0014,-1.9667,-1.8789,-1.8769,-1.8494,-1.7961,-1.8913,-1.959,-1.9952,-2.1312,-2.1972,-2.1992,-2.2714,-2.2447,-1.9297,-1.8848,-1.8633,-1.9746,-2.0488,-2.0859,-2.0469,-2.1348,-2.2305,-2.2539,-2.3379,-2.4394,-2.5508,-2.6211,-2.7207,-2.8965,-2.9434,-2.9902,-3.0781,-3.0898,-3.0879,-3.0837,-3.0242,-3.0074,-3.06,-3.035,-3.0361,-3.0854,-3.1691,-3.2322,-3.2635,-3.4075,-3.4912,-3.4985,-3.5591,-3.6653,-3.8156,-3.8409,-3.9268,-4.0691,-4.0945,-4.1062,-4.1062,-4.1062,-4.1073,-4.1126,-4.113,-4.1152,-4.1191,-4.1191,-4.1191,-4.1191,-4.1191,-4.1191,-4.1113,-4.0488,-4.0117,-3.9805,-3.9178,-3.874,-3.8429,-3.8432,-3.8388,-3.824,-3.7614,-3.7241,-3.6926,-3.6281,-3.595,-3.5752,-3.5752,-3.5752,-3.5615,-3.5018,-3.4709,-3.4183,-3.2917,-3.2274,-3.1765,-3.1139,-3.0825,-3.0326,-2.9242,-2.8598,-2.7657,-2.5969,-2.3876,-2.2346,-2.1886,-2.1003,-2.0437,-2.0437,-2.0462,-2.052,-2.0531,-2.0537,-2.0522,-2.0524,-2.0565,-2.0429,-2.0039,-2.0019,-1.9824,-1.9431,-2.0621,-2.134,-2.1572,-2.2839,-2.3463,-2.3463,-2.3707,-2.3649,-1.9297,-1.9277,-1.9668,-2.1387,-2.1836,-2.207,-2.2891,-2.3066,-2.3301,-2.4141,-2.373,-2.373,-2.5391,-2.5723,-2.6309,-2.8066,-2.9043,-2.9902,-3.0781,-3.0898,-3.0898,-3.0897,-3.0814,-3.0768,0.0,-2.9905,-3.003,-3.1737,-3.2668,-3.3559,-3.4469,-3.5379,-3.5889,-3.5964,-3.5975,-3.6426,-3.7324,-3.8164,-3.9043,-3.9941,-4.0781,-4.1191,-4.1191,-4.1191,-4.1191,-4.1191,-4.1191,-4.1191,-4.1191,-4.1191,-4.1191,-4.1191,-4.1191,-4.1191,-4.1191,-4.1172,-4.0625,-3.9902,-3.9863,-3.9254,-3.8503,-3.8496,-3.8502,-3.8487,-3.8467,-3.786,-3.7195,-3.7156,-3.6549,-3.5886,-3.5886,-3.5886,-3.5886,-3.5867,-3.5206,-3.4585,-3.4527,-3.3239,-3.2087,-3.2067,-3.1363,-3.0255,-2.8534,-2.8266,-2.7707,-2.5955,-2.4902,-2.373,-2.2106,-2.1081,-2.0506,-2.0506,-2.0496,-2.0523,-2.0586,-2.0605,-2.0605,-2.0605,-2.0605,-2.0977,-2.1797,-2.1816,-2.2207,-2.3027,-2.3086,-2.3496,-2.4277,-2.4336,-2.4355,-2.4375,-2.5232,-2.5127,-2.0703,-2.1035,-2.1289,-2.2422,-2.3125,-2.3633,-2.3926,-2.4434,-2.4902,-2.5195,-2.459,-2.4355,-2.5488,-2.5703,-2.6269,-2.8027,-2.9023,-2.9902,-3.0781,-3.0898,-3.0898,-3.0898,-3.037,0.0,0.0,0.0,0.0,-3.1952,-3.2807,-3.3676,-3.4615,-3.5485,-3.5984,-3.5992,-3.5996,-3.6699,-3.8144,-3.8457,-3.9336,-4.0762,-4.1055,-4.1191,-4.1191,-4.1191,-4.1191,-4.1191,-4.1191,-4.1191,-4.1191,-4.1191,-4.1191,-4.1191,-4.1191,-4.1191,-4.1191,-4.1191,-4.1016,-4.0762,-4.0762,-4.0566,-4.0292,-4.0291,-4.0289,-4.017,-3.9604,-3.9213,-3.8745,-3.7592,-3.7065,-3.6694,-3.6127,-3.5971,-3.5971,-3.5971,-3.5737,-3.5366,-3.478,-3.4214,-3.3492,-3.2378,-3.1929,-3.1187,-2.9431,-2.867,-2.7714,-2.5957,-2.4961,-2.3788,-2.2066,-2.1595,-2.1183,-2.0576,-2.0542,-2.0585,-2.0605,-2.0605,-2.0605,-2.0605,-2.1133,-2.1582,-2.1894,-2.2402,-2.2832,-2.3125,-2.3691,-2.4121,-2.4394,-2.498,-2.5254,-2.5273,-2.5566,-2.5523,-2.2031,-2.2559,-2.293,-2.3437,-2.3984,-2.4473,-2.4785,-2.5293,-2.5605,-2.5293,-2.4551,-2.4141,-2.4707,-2.4805,-2.5469,-2.7519,-2.8574,-2.9551,-3.0723,-3.0898,-3.0898,-3.0898,-3.0684,-3.0742,0.0,0.0,0.0,-3.2523,-3.3049,-3.3872,-3.509,-3.5698,-3.5993,-3.5995,-3.5996,-3.6699,-3.8125,-3.8437,-3.9629,-4.1621,-4.1933,-4.209,-4.209,-4.209,-4.209,-4.207,-4.1758,-4.1621,-4.1601,-4.1328,-4.1191,-4.1191,-4.1191,-4.1191,-4.1191,-4.1191,-4.1191,-4.1191,-4.1191,-4.1191,-4.1191,-4.1191,-4.1191,-4.1094,-4.0527,-4.0156,-3.9668,-3.8535,-3.7773,-3.7168,-3.6601,-3.623,-3.5996,-3.5996,-3.5996,-3.5859,-3.5293,-3.4922,-3.4297,-3.2891,-3.2402,-3.1641,-2.9902,-2.8613,-2.7344,-2.5918,-2.5215,-2.4355,-2.2908,-2.2518,-2.201,-2.1091,-2.1034,-2.0937,-2.0625,-2.0605,-2.0605,-2.0605,-2.1426,-2.2031,-2.2344,-2.3144,-2.3711,-2.4023,-2.457,-2.4863,-2.4863,-2.543,-2.5703,-2.5703,-2.5703,-2.5702,-2.3281,-2.3906,-2.4531,-2.4531,-2.4492,-2.4687,-2.5508,-2.5664,-2.5391,-2.457,-2.3691,-2.3086,-2.3125,-2.3125,-2.3965,-2.6523,-2.7695,-2.8906,-3.0644,-3.0898,-3.0918,0.0,0.0,0.0,0.0,0.0,0.0,-3.3457,0.0,-3.4219,-3.5918,-3.5996,-3.5996,-3.5996,-3.5996,-3.6445,-3.7363,-3.832,-4.0039,-4.248,-4.3301,-4.3691,-4.3691,-4.3691,-4.3691,-4.3652,-4.2773,-4.2402,-4.2344,-4.1523,-4.1191,-4.1191,-4.1191,-4.1191,-4.1191,-4.1191,-4.1191,-4.1191,-4.1191,-4.1191,-4.1191,-4.1191,-4.1191,-4.1191,-4.1191,-4.0625,-3.9961,-3.9902,-3.8711,-3.7402,-3.7324,-3.6699,-3.6055,-3.6016,-3.5996,-3.5996,-3.5996,-3.5351,-3.4512,-3.3633,-3.2734,-3.1582,-2.9883,-2.8144,-2.6699,-2.582,-2.5703,-2.5391,-2.4512,-2.373,-2.293,-2.2051,-2.1953,-2.1621,-2.0801,-2.0723,-2.0723,-2.0723,-2.1543,-2.2402,-2.3223,-2.4043,-2.4863,-2.5684,-2.5703,-2.5703,-2.5703,-2.5703,-2.5703,-2.5703,-2.5703,-2.5703,-2.5664,-2.6172,-2.6348,-2.6348,-2.5859,-2.543,-2.5644,-2.5195,-2.4668,-2.4453,-2.2734,-2.1465,-2.2109,-2.2227,-2.3066,-2.5625,-2.7305,0.0,-3.0644,-3.0898,0.0,-3.1797,0.0,-3.2441,-3.3047,-3.3281,0.0,0.0,-3.4375,-3.4844,-3.5937,-3.5996,-3.5996,-3.5996,-3.5996,-3.6738,-3.8242,-4.0371,-4.207,-4.3379,-4.3594,-4.3691,-4.3691,-4.3691,-4.3691,-4.3652,-4.2773,-4.2402,-4.2344,-4.1523,-4.1191,-4.1191,-4.1191,-4.1191,-4.1191,-4.1191,-4.1191,-4.1191,-4.1191,-4.1191,-4.1191,-4.1191,-4.1191,-4.1191,-4.1191,-4.1035,-4.0723,-4.0078,-3.957,-3.8945,-3.7637,-3.7148,-3.6797,-3.6152,-3.5996,-3.5996,-3.5996,-3.582,-3.541,-3.4531,-3.2676,-3.0879,-2.9785,-2.8144,-2.6699,-2.582,-2.5703,-2.5391,-2.4512,-2.4219,-2.3769,-2.2891,-2.2832,-2.2773,-2.2559,-2.2539,-2.2519,-2.2461,-2.3281,-2.3867,-2.4082,-2.4902,-2.5469,-2.5703,-2.5703,-2.5703,-2.5703,-2.5703,-2.5703,-2.5703,-2.5703,-2.5703,-2.7207,-2.7578,-2.748,-2.7109,-2.6348,-2.5605,-2.5215,-2.4746,-2.4082,-2.2969,-2.1602,-2.0625,-2.0742,-2.1074,-2.2168,0.0,0.0,0.0,-3.0078,-3.0664,-3.1074,0.0,-3.2285,0.0,-3.3359,-3.4082,-3.4746,0.0,-3.4922,-3.5078,-3.5957,-3.5996,-3.5996,-3.5996,-3.5996,-3.6836,-3.8574,-4.1504,-4.3223,-4.3711,-4.4473,-4.4844,-4.4844,-4.4844,-4.4844,-4.4785,-4.3926,-4.3535,-4.3476,-4.2637,-4.2305,-4.2266,-4.1875,-4.1738,-4.168,-4.1328,-4.1191,-4.1191,-4.1191,-4.1191,-4.1191,-4.1191,-4.1191,-4.1191,-4.1191,-4.1191,-4.1094,-4.0605,-4.0195,-3.959,-3.8223,-3.7598,-3.707,-3.6211,-3.5703,-3.543,-3.543,-3.5137,-3.4707,-3.4219,-3.2695,-3.1191,-3.0312,-2.8711,-2.7266,-2.6406,-2.5937,-2.5527,-2.5039,-2.4961,-2.4648,-2.3769,-2.4043,-2.4141,-2.3769,-2.4082,-2.4277,-2.4238,-2.5059,-2.5371,-2.498,-2.5801,-2.6094,-2.5703,-2.5703,-2.5508,-2.5137,-2.5137,-2.5137,-2.5137,-2.5137,-2.5332,-2.8379,-2.8476,-2.8125,-2.7363,-2.6348,-2.5332,-2.457,-2.4141,-2.3262,-2.1055,-2.0312,-1.9922,-1.9394,-1.9922,-2.1269,-2.3809,0.0,-2.7402,-2.9023,-3.0019,-3.0644,-3.0879,-3.2285,-3.332,-3.3555,-3.5039,-3.5996,-3.5996,-3.5293,-3.5195,-3.5957,-3.5996,-3.5996,-3.5996,-3.6211,-3.7129,-3.8769,-4.2051,-4.3769,-4.3887,-4.5527,-4.6308,-4.6308,-4.6308,-4.6308,-4.625,-4.5371,-4.5,-4.4922,-4.4062,-4.3691,-4.3613,-4.2734,-4.2402,-4.2305,-4.1504,-4.1191,-4.1191,-4.1191,-4.1191,-4.1191,-4.1191,-4.1191,-4.1191,-4.1191,-4.1191,-4.1191,-4.1191,-4.0664,-3.9863,-3.9004,-3.8203,-3.7402,-3.6406,-3.5508,-3.4844,-3.4726,-3.4023,-3.3437,-3.3555,-3.2832,-3.1953,-3.1191,-2.9629,-2.8144,-2.7148,-2.6367,-2.582,-2.5703,-2.5703,-2.541,-2.4648,-2.5352,-2.5566,-2.4805,-2.5547,-2.6055,-2.6055,-2.6758,-2.6836,-2.6074,-2.6777,-2.6816,-2.6055,-2.5937,-2.5508,-2.4746,-2.4629,-2.457,-2.457,-2.457,-2.498,-3.0019,-2.9394,-2.8262,-2.8105,-2.6348,-2.459,-2.4434,-2.2773,0.0,-2.0684,-1.8887,-1.7773,-1.9062,-1.9414,-2.0352,-2.291,-2.4785,-2.6289,-2.7305,-2.8203,-2.9297,0.0,-3.1797,-3.2949,-3.4336,-3.5391,0.0,0.0,-3.5859,-3.584,-3.5996,-3.5996,-3.5996,-3.5996,-3.7402,-3.8633,-3.9668,-4.2344,-4.4062,-4.4785,-4.5801,-4.6308,-4.6308,-4.6308,-4.6308,-4.625,-4.5371,0.0,-4.4922,-4.4062,-4.3691,-4.3613,-4.2734,-4.2402,-4.2305,-4.1504,-4.1191,-4.1191,-4.1191,-4.1191,-4.1191,-4.1191,-4.1191,-4.1191,-4.1191,-4.1191,-4.1191,-4.1191,-4.1094,-4.0762,-3.9902,-3.9551,-3.9043,-3.7441,-3.6406,-3.5586,-3.4863,-3.4023,-3.3613,-3.4336,-3.3242,-3.2148,-3.1992,-3.0527,-2.8828,-2.7246,-2.6875,-2.6504,-2.5781,-2.5703,-2.5644,-2.5488,-2.625,-2.6719,-2.6562,-2.7344,-2.7851,-2.7851,-2.7988,-2.8008,-2.7851,-2.7988,-2.8008,-2.7851,-2.7148,-2.6699,-2.6543,-2.582,-2.5469,-2.5469,-2.5469,-2.5566,-2.9316,-2.8945,-2.8184,-2.7734,-2.5996,-2.4277,-2.3828,0.0,0.0,-1.9433,-1.7889,-1.6951,-1.7792,-1.8319,0.0,-2.1445,-2.3613,-2.5332,-2.6191,-2.7461,-2.8789,-3.0078,-3.1387,-3.2676,-3.3906,-3.5215,-3.5996,-3.5996,-3.5996,-3.5996,-3.5996,-3.5996,-3.5996,-3.5996,-3.7695,-3.8809,-3.9219,-4.2207,-4.3906,-4.4336,-4.5664,-4.6308,-4.6308,-4.6308,-4.6308,-4.6289,-4.5859,-4.5683,-4.5644,-4.5234,-4.5058,-4.4961,-4.4082,-4.375,-4.3594,-4.2305,-4.1816,-4.1758,-4.1348,-4.1191,-4.1191,-4.1191,-4.1191,-4.1191,-4.1191,-4.1191,-4.1191,-4.1191,-4.1191,-4.0996,-4.0137,-3.9902,-3.9453,-3.7715,-3.6289,-3.4961,-3.3672,-3.3398,-3.3516,-3.3945,-3.3379,-3.2969,-3.3418,-3.1719,-2.998,-2.916,-2.7871,-2.6855,-2.6426,-2.5977,-2.5879,-2.6328,-2.7168,-2.7851,-2.8301,-2.9141,-2.9648,-2.9648,-2.9648,-2.9453,-2.9004,-2.8984,-2.8769,-2.8301,-2.7891,-2.7441,-2.6992,-2.6582,-2.6387,-2.6387,-2.6387,-2.6621,-2.8203,-2.8164,-2.7812,-2.6934,-2.541,-2.3906,-2.3046,-2.1384,0.0,-1.8254,-1.7138,-1.6452,-1.6631,-1.726,-1.8298,0.0,-2.2305,-2.418,-2.5039,-2.6641,-2.8144,-2.9199,-3.0859,0.0,-3.3301,-3.498,0.0,-3.5996,-3.5996,-3.5996,-3.5996,-3.6172,-3.6289,-3.6289,-3.7969,-3.8887,-3.8887,-4.207,-4.3691,-4.3711,-4.5469,-4.6308,-4.6308,-4.6308,-4.6308,-4.6308,-4.6308,-4.6308,-4.6289,-4.6094,-4.6016,-4.5918,-4.4863,-4.4551,-4.4512,-4.2773,-4.2246,-4.2285,-4.1484,-4.1191,-4.1191,-4.1191,-4.1191,-4.1191,-4.1191,-4.1191,-4.1191,-4.1191,-4.1191,-4.1035,-4.0351,-4.0176,-3.9746,-3.7988,-3.625,-3.4512,-3.2812,-3.2812,-3.3184,-3.3379,-3.3262,-3.3476,-3.4512,-3.2734,-3.1113,-3.0937,-2.8984,-2.7422,-2.7051,-2.6406,-2.623,-2.6934,-2.7773,-2.8574,-2.9258,-3.0293,-3.0898,-3.0898,-3.0898,-3.0586,-2.9902,-2.9883,-2.9551,-2.8867,-2.8672,-2.8242,-2.7559,-2.7363,-2.7285,-2.7285,-2.7285,-2.7656,-2.7871,-2.7715,-2.6914,-2.6035,-2.4512,-2.3008,-2.2205,0.0,-1.8091,-1.7946,-1.6585,-1.5678,-1.645,-1.6717,-1.7392,-1.9136,-2.0937,-2.2422,-2.3301,-2.4883,-2.6562,-2.8223,0.0,0.0,-3.3242,-3.498,-3.5996,-3.5996,-3.5996,-3.5996,-3.5996,-3.6758,-3.7187,-3.7187,-3.8867,-3.9785,-3.9785,-4.2383,-4.3691,-4.3711,-4.5469,-4.6308,-4.6308,-4.6308,-4.6308,-4.6308,-4.6308,-4.6308,0.0,-4.5449,-4.5117,-4.4941,-4.3281,-4.3125,-4.3613,-4.1933,-4.1777,-4.2285,-4.1484,-4.1191,-4.1191,-4.1191,-4.1191,-4.1191,-4.1191,-4.1191,-4.1191,-4.1191,-4.1191,-4.1172,-4.1094,-4.1074,-4.0644,-3.8906,-3.7148,-3.5391,-3.3652,-3.2773,-3.2539,-3.3262,-3.2812,-3.2812,-3.4414,-3.3242,-3.1816,-3.1016,-3.0019,-2.8789,-2.7207,-2.6934,-2.6914,-2.6992,-2.7773,-2.832,-2.8418,-2.9941,-3.0898,-3.0898,-3.0898,-3.0859,-3.0781,-3.0781,-3.0742,-3.0664,-2.9883,-2.9434,-2.9355,-2.8574,-2.8184,-2.8184,-2.8184,-2.8223,-2.5915,-2.6463,-2.6659,-2.5272,-2.4003,-2.2888,-2.2039,-1.9801,-1.7894,-1.7892,-1.6507,-1.5405,-1.5755,-1.6266,-1.7044,-1.8304,-1.9973,-2.1598,-2.2944,-2.4175,-2.5757,-2.8024,-2.9373,0.0,0.0,0.0,-3.5449,-3.5957,-3.5996,-3.5996,-3.5996,-3.6836,-3.7305,-3.7305,-3.8984,-3.9902,-3.9902,-4.2422,-4.3691,-4.3711,-4.5469,-4.6308,-4.6308,-4.6308,-4.6308,-4.6308,-4.6308,-4.6308,0.0,-4.5351,-4.5,-4.4883,-4.3652,-4.3711,-4.4336,-4.3144,-4.3242,-4.3769,-4.2402,-4.1914,-4.1836,-4.1367,-4.0859,-4.0527,-4.1035,-4.1191,-4.1191,-4.1191,-4.1191,-4.1191,-4.1191,-4.0801,-4.0234,-3.9551,-3.8047,-3.6445,-3.5234,-3.4297,-3.3633,-3.3437,-3.3574,-3.3926,-3.459,-3.3711,-3.2793,-3.2461,-3.0801,-2.9355,-2.8652,-2.7656,-2.6992,-2.6992,-2.7305,-2.7949,-2.8984,-2.9726,-3.0332,-3.0879,-3.0898,-3.0898,-3.0898,-3.0898,-3.0898,-3.0898,-3.0566,-3.0371,-3.0371,-3.0039,-2.9863,-2.9863,-2.9863,-2.9863,-2.4008,-2.5088,-2.5815,-2.4076,-2.3353,-2.2803,-2.1669,-1.9578,-1.7872,-1.786,-1.6488,-1.5269,-1.5276,-1.5795,-1.658,-1.7744,-1.9208,-2.0779,-2.2455,-2.3664,-2.5152,-2.7248,0.0,-3.0092,-3.2419,-3.3886,-3.5059,-3.5937,-3.5996,-3.5996,-3.5996,-3.707,-3.7676,-3.7676,-3.9375,-4.0273,-4.0273,-4.2305,-4.3437,-4.3711,-4.5215,-4.6055,-4.6289,-4.6035,-4.5918,-4.5898,-4.5644,-4.5527,0.0,-4.459,-4.4238,-4.4141,-4.3281,-4.3633,-4.4512,-4.3633,-4.4023,-4.4746,-4.3008,-4.2402,-4.2266,-4.1465,-4.0605,-4.0059,-4.0937,-4.1016,-4.0879,-4.1133,-4.1191,-4.1191,-4.1191,-4.0742,-4.0273,-4.0273,-3.9141,-3.7832,-3.6953,-3.5879,-3.4824,-3.3945,-3.4062,-3.4394,-3.4668,-3.3789,-3.3125,-3.3359,-3.1445,-2.9883,-2.9629,-2.8535,-2.7676,-2.7402,-2.7383,-2.7773,-2.875,-2.9297,-2.9863,-3.0488,-3.0762,-3.0898,-3.0898,-3.0898,-3.0898,-3.0898,-3.0898,-3.0898,-3.0898,-3.0898,-3.0898,-3.0898,-3.0898,-3.0898,-2.2552,-2.3703,-2.4007,-2.2267,-2.2463,-2.2653,-2.0904,-1.9105,-1.7806,-1.7808,-1.6408,-1.5204,-1.5198,-1.5255,-1.5853,-1.7523,-1.8607,-1.9795,-2.149,-2.3203,-2.4635,0.0,0.0,-2.8909,-3.0655,-3.3182,-3.5059,-3.5937,-3.5996,0.0,-3.5996,-3.7637,-3.8594,-3.8594,-4.0273,-4.1191,-4.1191,-4.1992,-4.2851,-4.3711,-4.459,-4.5469,-4.6269,-4.541,-4.5019,-4.4961,-4.4101,-4.373,0.0,-4.2793,-4.2422,-4.2344,-4.1543,-4.2246,-4.3613,-4.2734,-4.3516,-4.4746,-4.3008,-4.2402,-4.2266,-4.1465,-4.0605,-4.0059,-4.0937,-4.0605,-4.0098,-4.0957,-4.1191,-4.1191,-4.1191,-4.1191,-4.1191,-4.1191,-4.0508,-3.9629,-3.8769,-3.7207,-3.5723,-3.4863,-3.4004,-3.3691,-3.4551,-3.332,-3.248,-3.3281,-3.1973,-3.0566,-2.9707,-2.957,-2.9238,-2.8379,-2.8281,-2.7949,-2.7109,-2.8613,-2.9609,-2.9609,-3.043,-3.0898,-3.0898,-3.0898,-3.0898,-3.0898,-3.0898,-3.0898,-3.0898,-3.0898,-3.0898,-3.0898,-3.0898,-3.0898,-2.1138,-2.2348,-2.3178,-2.2081,-2.2005,-2.1745,-1.9943,-1.863,-1.7634,-1.7023,-1.6008,-1.5201,-1.5207,-1.5214,-1.5799,-1.7522,-1.8055,-1.9262,-2.2185,0.0,0.0,-2.7067,-2.9978,-3.1968,0.0,0.0,-3.5703,-3.5976,-3.5996,-3.5996,-3.5996,-3.7656,-3.8594,-3.8594,-4.0293,-4.1191,-4.1191,-4.1992,-4.2832,-4.3711,-4.457,-4.5469,-4.6269,-4.5391,-4.5,-4.4941,-4.4082,-4.3691,-4.3633,-4.2754,-4.2754,-4.3203,-4.2344,-4.3066,-4.4551,-4.4277,-4.4902,-4.5644,-4.3887,-4.3281,-4.3066,-4.166,-4.0215,-3.9297,-4.0762,-4.0586,-4.0078,-4.0957,-4.1191,-4.1191,-4.1191,-4.1191,-4.1191,-4.1191,-4.0527,-3.9824,-3.9551,-3.8125,-3.6621,-3.5762,-3.5371,-3.4883,-3.3965,-3.3379,-3.2909,-3.2557,-3.1559,-3.0736,-3.046,-2.9893,-2.9424,-2.915,-2.8623,-2.8198,-2.791,-2.8945,-2.9609,-2.9609,-3.043,-3.0898,-3.0898,-3.0898,-3.0898,-3.0898,-3.0898,-3.0898,-3.0898,-3.0898,-3.0898,-3.0898,-3.0898,-3.0898,-1.9381,-2.0485,-2.1323,-2.05,-2.054,-2.0398,-1.894,-1.7943,-1.7169,-1.6608,-1.5801,-1.5195,-1.519,-1.5204,-1.5758,-1.7489,-1.7758,-1.886,0.0,0.0,0.0,-2.8271,0.0,0.0,0.0,-3.4687,-3.5644,-3.5976,-3.5996,-3.5996,-3.5996,-3.7344,-3.8105,-3.8105,-4.0117,-4.1191,-4.1191,-4.1699,-4.2363,-4.3223,-4.3769,-4.4473,-4.5293,-4.4414,-4.4023,-4.3965,-4.3125,-4.2754,0.0,-4.2168,-4.2266,-4.2695,-4.2168,-4.2793,-4.4023,-4.4023,-4.457,-4.5117,-4.3691,-4.3203,-4.2988,-4.1641,-4.0469,-3.9726,-4.0488,-4.0566,-4.0508,-4.1055,-4.1191,-4.1191,-4.1191,-4.1191,-4.1191,-4.1191,-4.0781,-4.0391,-4.0391,-3.9277,-3.793,-3.6719,-3.6211,-3.5449,-3.3691,-3.3124,-3.2711,-3.2159,-3.1311,-3.0752,-3.0735,-3.0244,-2.9913,-2.9913,-2.9462,-2.9023,-2.8711,-2.9212,-2.9567,-2.9567,-3.0387,-3.0857,-3.0857,-3.0857,-3.0857,-3.0857,-3.0857,-3.0858,-3.0859,-3.0898,-3.0898,-3.0898,-3.0898,-3.0898,0.0,-1.8286,-1.8892,-1.8026,-1.8458,-1.8862,-1.7924,-1.7083,0.0,-1.6426,-1.5753,-1.5192,-1.5192,-1.525,-1.5827,-1.7449,-1.7757,-1.8714,0.0,-2.335,0.0,0.0,-3.1197,0.0,-3.3418,-3.4277,-3.5137,-3.5937,-3.5996,-3.5996,-3.5996,-3.6836,-3.7305,-3.7305,-3.9785,-4.1113,-4.1113,-4.1172,-4.1582,-4.2305,-4.2305,-4.2773,-4.3574,-4.2715,-4.2344,0.0,-4.1543,-4.1191,-4.1191,-4.1191,-4.123,-4.1289,-4.1289,-4.1777,-4.248,-4.248,-4.3008,-4.3574,-4.2695,-4.2402,-4.2266,-4.1387,-4.1152,-4.1035,-4.0156,-4.0508,-4.1191,-4.1191,-4.1191,-4.1191,-4.1191,-4.1191,-4.1191,-4.1191,-4.1191,-4.1191,-4.1191,-4.0508,-3.9414,-3.7793,-3.6738,-3.5566,-3.3867,-3.2869,-3.2216,-3.2025,-3.1319,-3.0743,-3.0622,-3.0597,-3.0597,-3.0597,-3.0597,-3.0263,-2.946,-2.9515,-2.9525,-2.941,-3.0268,-3.0757,-3.0699,-3.0757,-3.0796,-3.0796,-3.0785,-3.0792,-3.0797,-3.0878,-3.0898,-3.0898,-3.0898,-3.0898,-1.4585,0.0,-1.8899,-1.8026,-1.8454,-1.8697,0.0,-1.6644,-1.6311,-1.5635,-1.5346,-1.5192,-1.5192,-1.5734,-1.6522,-1.7545,-1.8261,-1.9603,-2.2223,-2.5812,0.0,-3.0303,-3.2624,-3.4177,-3.438,-3.5186,-3.5776,-3.5973,-3.5995,-3.5996,-3.5996,-3.6836,-3.7305,-3.7305,-3.9199,-4.0215,-4.0215,-4.0879,-4.1289,-4.1484,-4.1484,-4.1914,-4.2676,-4.1855,-4.1816,-4.2363,-4.1543,-4.1191,-4.1191,-4.1191,-4.1562,-4.2129,-4.2129,-4.2637,-4.3398,-4.3398,-4.3516,-4.3574,-4.2695,-4.2402,-4.2168,-4.0684,-4.0664,-4.1035,-4.0156,-4.0508,-4.1191,-4.1191,-4.1191,-4.1191,-4.1191,-4.1152,-4.1112,-4.111,-4.1127,-4.1123,-4.112,-4.0435,-3.9692,-3.9282,-3.8013,-3.6646,-3.5572,-3.4619,-3.354,-3.2192,-3.1782,-3.1365,-3.07,-3.0595,-3.0595,-3.0595,-3.0595,-3.0517,-3.03,-3.0321,-2.9796,-2.851,-2.9815,-3.0363,-2.9745,-3.0326,-3.0655,-3.0655,-3.0702,-3.0744,-3.0792,-3.0878,-3.0898,-3.0898,-3.0898,-3.0898,-1.3668,-1.5562,-1.7282,-1.7224,-1.7552,-1.7664,-1.6721,-1.6185,0.0,0.0,0.0,-1.5327,-1.5715,-1.6176,-1.6891,-1.8107,-1.9027,-2.0789,0.0,0.0,-3.0435,-3.1748,-3.3831,-3.5166,0.0,-3.5617,-3.5926,-3.594,-3.5988,-3.5994,-3.5996,-3.6445,-3.6699,-3.6699,-3.8008,-3.9082,-3.9883,-4.0762,-4.0996,-4.0605,-4.0605,-4.082,-4.123,-4.0801,-4.1055,-4.1836,-4.1387,-4.1191,-4.1191,-4.1191,-4.1465,-4.1855,-4.1855,-4.2148,-4.2558,-4.2558,-4.2558,-4.248,-4.2012,-4.1836,-4.166,-4.0741,-4.0779,-4.1071,-4.0581,-4.0776,-4.1168,-4.1191,-4.1191,-4.1191,-4.1191,-4.1151,-4.1088,-4.1059,-4.1048,-4.1031,-4.0989,-4.0593,-4.0142,-3.9772,-3.897,-3.7954,-3.6682,-3.5719,-3.449,-3.2737,-3.2104,-3.1525,-3.0627,-3.0506,-3.0506,-3.0506,-3.0506,-3.0506,-3.0506,-3.0519,-3.0145,-2.9304,-3.0108,-3.0402,-2.9978,-3.0364,-3.0603,-3.0643,-3.0684,-3.0737,-3.0792,-3.083,-3.0856,-3.0857,-3.0858,-3.0878,-1.3426,-1.4437,-1.5404,-1.6272,-1.6699,-1.6853,-1.6718,0.0,0.0,0.0,0.0,0.0,-1.6542,-1.6795,0.0,-1.8953,0.0,0.0,-2.6347,-2.914,-3.1433,-3.317,-3.4752,0.0,-3.5709,-3.5759,-3.5816,-3.5871,-3.595,-3.5987,-3.5995,-3.5995,-3.5995,-3.5995,-3.6855,-3.8007,-3.9492,-4.0371,-4.0371,-3.9492,-3.9492,-3.957,-3.9707,-3.9707,-4.0254,-4.1191,-4.1191,0.0,-4.1191,-4.1191,-4.1191,-4.1191,-4.1191,-4.1191,-4.1191,-4.1191,-4.1191,-4.1211,-4.1348,-4.1269,-4.111,-4.1243,-4.1197,-4.1072,-4.106,-4.1056,-4.1064,-4.1126,-4.115,-4.1171,-4.1171,-4.1129,-4.1077,-4.0994,-4.0983,-4.0948,-4.0832,-4.08,-4.0602,-3.9917,-3.968,-3.9112,-3.7642,-3.6544,-3.5315,-3.3655,-3.2694,-3.1824,-3.0897,-3.0673,-3.0596,-3.0596,-3.0481,-3.0404,-3.0404,-3.0404,-3.0447,-3.0567,-3.0688,-3.0823,-3.0959,-3.0959,-3.0985,-3.1049,-3.0931,-3.0895,-3.0979,-3.0837,-3.0777,-3.0784,-3.0929,-3.1011,-1.2358,-1.3978,-1.5404,-1.6272,-1.7564,-1.8414,-1.768,0.0,0.0,0.0,0.0,0.0,0.0,-1.8126,-1.893,0.0,0.0,-2.5359,0.0,0.0,-3.2265,-3.4011,0.0,-3.5693,-3.5693,-3.5752,-3.5802,-3.5819,-3.5887,-3.5935,-3.5998,-3.5999,-3.5999,-3.5999,-3.6859,-3.7425,-3.7698,-3.8553,-3.8555,-3.7695,-3.7695,-3.8086,-3.8809,-3.8809,-3.9687,-4.1191,0.0,-4.1191,-4.1191,-4.1191,-4.1191,-4.1191,-4.1191,-4.1191,-4.1191,-4.1191,-4.1191,-4.1308,-4.1973,-4.1737,-4.1204,-4.189,-4.1616,-4.0983,-4.088,-4.0847,-4.085,-4.086,-4.0979,-4.1116,-4.1116,-4.1078,-4.1005,-4.0935,-4.0922,-4.0882,-4.0824,-4.0795,-4.0756,-4.0639,-4.0014,-3.9427,-3.915,-3.7776,-3.6372,-3.5347,-3.4421,-3.3518,-3.2628,-3.1929,-3.1506,-3.1506,-3.0846,-3.0404,-3.0404,-3.0404,-3.0416,-3.0425,-3.1118,-3.1836,-3.253,-3.2549,-3.2573,-3.2648,-3.198,-3.1654,-3.1732,-3.0989,-3.0658,-3.0724,-3.1472,-3.1859,-1.2776,-1.4191,-1.5501,-1.6814,-1.8077,-1.8895,-1.8491,-1.8045,0.0,0.0,0.0,0.0,0.0,0.0,-2.0427,-2.2635,0.0,-2.7344,-2.9065,-3.1086,-3.2877,0.0,0.0,-3.5583,-3.5583,-3.5646,-3.5694,-3.5689,-3.5753,-3.5817,-3.5844,-3.5846,-3.5846,-3.5846,-3.6238,-3.6433,-3.6433,-3.6826,-3.7124,-3.7298,-3.7298,-3.7747,-3.8548,-3.8548,-3.9505,-4.1145,0.0,-4.1145,-4.1145,-4.1145,-4.1145,-4.1145,-4.1145,-4.1145,-4.1145,-4.1145,-4.1145,-4.1262,-4.2102,-4.1819,-4.1172,-4.1983,-4.1669,-4.0937,-4.0824,-4.0801,-4.0801,-4.0801,-4.0867,-4.0933,-4.0933,-4.0922,-4.0875,-4.0815,-4.0789,-4.0756,-4.0649,-4.0636,-4.0636,-4.0636,-4.0301,-4.005,-4.005,-3.9019,-3.7893,-3.7025,-3.6131,-3.5251,-3.441,-3.3564,-3.2872,-3.2391,-3.1602,-3.0904,-3.0442,-3.0404,-3.0404,-3.0404,-3.1212,-3.1872,-3.2237,-3.2679,-3.2935,-3.2997,-3.222,-3.1826,-3.1844,-3.1006,-3.0626,-3.0703,-3.1118,-3.1594,-1.3288,-1.4292,-1.5319,-1.7212,-1.8505,-1.93,-1.93,-1.893,0.0,0.0,0.0,0.0,0.0,-2.0604,0.0,-2.4846,-2.6928,-2.8775,-3.0462,-3.216,-3.3526,-3.4391,-3.5084,-3.55,-3.55,-3.5547,-3.5583,-3.5604,-3.5655,-3.5687,-3.5694,-3.5698,-3.5698,-3.5698,-3.5698,-3.5698,-3.5698,-3.5698,-3.6119,-3.6932,-3.7125,-3.7654,-3.8456,-3.8668,-3.9585,-4.1029,-4.1029,-4.1029,-4.1029,-4.1029,-4.1029,-4.1029,-4.1029,-4.1029,-4.1048,-4.1263,-4.1322,-4.1495,-4.2568,-4.2192,-4.139,-4.2187,-4.1718,-4.0848,-4.0748,-4.0724,-4.0724,-4.0724,-4.0735,-4.0747,-4.0799,-4.0791,-4.0756,-4.0717,-4.0688,-4.0646,-4.0539,-4.0496,-4.0496,-4.0496,-4.0496,-4.0496,-4.0496,-3.9823,-3.9073,-3.8392,-3.7565,-3.6769,-3.6154,-3.5161,-3.4257,-3.3583,-3.2583,-3.1718,-3.1038,-3.0808,-3.0692,-3.0692,-3.1327,-3.1872,-3.2275,-3.2872,-3.3327,-3.3583,-3.2777,-3.2251,-3.2066,-3.125,-3.0798,-3.0653,-3.0866,-3.1354,-1.314,-1.3743,-1.4498,-1.6991,-1.8912,-2.0212,-2.0212,-2.0735,0.0,-2.1235,0.0,0.0,0.0,-2.324,-2.4144,-2.5135,-2.739,-2.9627,-3.1352,0.0,-3.443,-3.5308,-3.5462,-3.55,-3.55,-3.5502,-3.5521,-3.5606,-3.5602,-3.562,-3.5694,-3.5698,-3.5698,-3.5698,-3.5698,-3.5698,-3.5698,-3.5698,-3.5747,-3.5814,-3.6641,-3.7481,-3.8348,-3.9155,-4.0007,-4.0813,-4.0813,-4.0813,-4.0813,-4.0813,-4.0813,-4.0813,-4.0813,-4.0813,-4.0929,-4.1723,-4.2031,-4.2264,-4.3957,-4.3426,-4.2146,-4.2887,-4.2021,-4.07,-4.0557,-4.0519,-4.0519,-4.0519,-4.0508,-4.0566,-4.0759,-4.0759,-4.0719,-4.0694,-4.0653,-4.0588,-4.0523,-4.0496,-4.0496,-4.0496,-4.0496,-4.0496,-4.0496,-3.9823,-3.9284,-3.9227,-3.845,-3.7892,-3.7834,-3.6404,-3.5385,-3.5327,-3.3814,-3.2795,-3.2737,-3.2045,-3.1621,-3.1621,-3.1679,-3.2391,-3.3955,-3.409,-3.4487,-3.5295,-3.4475,-3.3635,-3.2827,-3.2005,-3.1232,-3.0525,-3.135,-3.1798,-1.4069,-1.4502,-1.5106,-1.7152,-1.8574,0.0,0.0,-2.1696,-2.2466,-2.3009,-2.3774,0.0,0.0,0.0,-2.5293,-2.6697,-2.9044,-3.1121,-3.2275,-3.393,-3.5135,-3.5462,-3.55,-3.55,-3.55,-3.5494,-3.5515,-3.5541,-3.5534,-3.5554,-3.5578,-3.5578,-3.5578,-3.5578,-3.5578,-3.5578,-3.5578,-3.5578,-3.5589,-3.5577,-3.5985,-3.6904,-3.8248,-3.8573,-3.9486,-4.0791,-4.0791,-4.0791,-4.0791,-4.0791,-4.0791,-4.0791,-4.0791,-4.0791,-4.0849,-4.1179,-4.1291,-4.1471,-4.2674,-4.2274,-4.136,-4.2138,-4.1608,-4.0617,-4.0539,-4.0496,-4.0496,-4.0496,-4.0496,-4.0519,-4.0588,-4.0588,-4.0579,-4.0583,-4.0554,-4.0531,-4.0516,-4.0496,-4.0496,-4.0496,-4.0496,-4.0496,-4.0496,-4.0246,-4.0054,-4.0054,-3.9765,-3.9554,-3.9554,-3.8565,-3.7661,-3.7103,-3.5519,-3.4295,-3.3757,-3.2929,-3.2237,-3.1737,-3.1698,-3.2218,-3.3333,-3.3917,-3.4603,-3.5481,-3.4641,-3.4032,-3.3705,-3.2852,-3.203,-3.1268,-3.1627,-3.1816,-1.4619,-1.4787,-1.5164,-1.7171,0.0,0.0,-2.1812,-2.2778,-2.3451,-2.4298,-2.5351,-2.6038,-2.5769,0.0,0.0,0.0,-2.9813,-3.1679,-3.2756,-3.416,-3.5192,-3.5462,-3.55,-3.55,-3.55,-3.55,-3.55,-3.55,-3.55,-3.55,-3.55,-3.55,-3.55,-3.55,-3.55,-3.55,-3.55,-3.55,-3.55,-3.55,-3.5589,-3.6361,-3.774,-3.8011,-3.894,-4.0339,-4.0339,-4.0468,-4.07,-4.07,-4.07,-4.07,-4.07,-4.07,-4.0739,-4.1009,-4.1119,-4.1242,-4.2112,-4.1809,-4.1143,-4.1682,-4.1273,-4.0565,-4.0504,-4.0496,-4.0496,-4.0496,-4.0496,-4.0496,-4.0496,-4.0496,-4.0496,-4.0496,-4.0496,-4.0496,-4.0496,-4.0496,-4.0496,-4.0496,-4.0496,-4.0496,-4.0496,-4.0496,-4.0496,-4.0496,-4.0496,-4.0496,-4.0496,-3.9804,-3.8977,-3.8084,-3.6969,-3.5949,-3.5064,-3.4218,-3.3372,-3.2545,-3.2237,-3.2218,-3.2506,-3.3333,-3.4199,-3.5064,-3.4776,-3.4468,-3.4205,-3.3603,-3.2884,-3.2081,-3.2135,-3.2014,-1.4564,-1.432,-1.4437,0.0,0.0,0.0,-2.3317,-2.411,-2.4356,-2.5173,-2.6717,-2.764,-2.6774,-2.7313,0.0,-2.7915,-2.9313,-3.0981,-3.266,-3.3641,-3.4507,-3.5365,-3.5481,-3.5481,-3.5481,-3.5481,-3.5481,-3.5481,-3.55,-3.55,-3.55,-3.55,-3.55,-3.55,-3.55,-3.55,-3.55,-3.55,-3.55,-3.55,-3.55,-3.5923,-3.6731,-3.7584,-3.8469,-3.9304,-3.9304,-3.9765,-4.0496,-4.0496,-4.0496,-4.0496,-4.0496,-4.0496,-4.0593,-4.147,-4.1788,-4.1904,-4.2777,-4.2508,-4.1788,-4.1788,-4.12,-4.0496,-4.0496,-4.0496,-4.0496,-4.0496,-4.0496,-4.0496,-4.0496,-4.0496,-4.0496,-4.0496,-4.0496,-4.0496,-4.0496,-4.0496,-4.0496,-4.0496,-4.0496,-4.0496,-4.0496,-4.0496,-4.0496,-4.0496,-4.0496,-4.0496,-4.0496,-3.9804,-3.8977,-3.8123,-3.8027,-3.7661,-3.6788,-3.5962,-3.5141,-3.4263,-3.3372,-3.2545,-3.1756,-3.2487,-3.3314,-3.4205,-3.5064,-3.5084,-3.4205,-3.4205,-3.3757,-3.291,-3.291,-3.2487,-1.477,-1.5215,0.0,-1.726,0.0,0.0,0.0,-2.4946,0.0,0.0,-2.8813,-2.8665,-2.8415,-2.8107,0.0,-2.8646,-2.9679,-3.0788,-3.191,-3.2776,-3.3372,-3.3641,-3.368,-3.368,-3.368,-3.4237,-3.4584,-3.4584,-3.5154,-3.55,-3.55,-3.55,-3.55,-3.55,-3.55,-3.55,-3.55,-3.55,-3.55,-3.55,-3.55,-3.5923,-3.6712,-3.6962,-3.7892,-3.9304,-3.9304,-3.9765,-4.0496,-4.0496,-4.0496,-4.0496,-4.0496,-4.0496,-4.0535,-4.0785,-4.0893,-4.0912,-4.1189,-4.1112,-4.0893,-4.0893,-4.0708,-4.0496,-4.0496,-4.0496,-4.0496,-4.0496,-4.0496,-4.0496,-4.0496,-4.0496,-4.0496,-4.0496,-4.0496,-4.0496,-4.0496,-4.0496,-4.0496,-4.0496,-4.0496,-4.0496,-4.0496,-4.0496,-4.0496,-4.0496,-4.0496,-4.0496,-4.0496,-4.0285,-4.0054,-3.9785,-3.9246,-3.8565,-3.77,-3.6327,-3.5141,-3.4263,-3.3372,-3.3064,-3.343,-3.3686,-3.4218,-3.5103,-3.5365,-3.5365,-3.5115,-3.5115,-3.468,-3.3821,-3.3821,-3.3353,-1.5179,-1.5833,0.0,-1.7782,-1.9357,-2.1401,-2.4518,0.0,0.0,0.0,-2.9938,-2.9475,-2.9165,-2.8986,0.0,-2.9088,-2.9833,-3.0692,-3.1583,-3.2122,-3.2545,-3.2852,-3.2891,-3.2891,-3.2891,-3.3686,-3.4205,-3.4205,-3.5007,-3.55,-3.55,-3.55,-3.55,-3.55,-3.55,-3.55,-3.55,-3.55,-3.55,-3.55,-3.55,-3.575,-3.6212,-3.6212,-3.6969,-3.8315,-3.8996,-3.9765,-4.0496,-4.0496,-4.0496,-4.0496,-4.0496,-4.0496,-4.0496,-4.0496,-4.0496,-4.0496,-4.0496,-4.0496,-4.0496,-4.0496,-4.0496,-4.0496,-4.0496,-4.0496,-4.0496,-4.0496,-4.0496,-4.0496,-4.0496,-4.0496,-4.0496,-4.0496,-4.0496,-4.0496,-4.0496,-4.0496,-4.0496,-4.0496,-4.0496,-4.0496,-4.0496,-4.0496,-4.0496,-4.0496,-4.0496,-4.0496,-4.0496,-4.0496,-4.0496,-4.0496,-4.0073,-3.9284,-3.8104,-3.7065,-3.5988,-3.4795,-3.4218,-3.4314,-3.5161,-3.4891,-3.4968,-3.5481,-3.55,-3.55,-3.55,-3.5154,-3.4891,-3.4718,-3.4718,-3.4257,-1.562,-1.6247,0.0,-1.8378,-2.011,0.0,-2.6299,-2.8096,-2.9199,-3.0094,0.0,-3.0061,-2.9352,-2.9871,-3.0135,-2.9357,-2.989,-3.0673,-3.1468,-3.1583,-3.1852,-3.2583,-3.2679,-3.2679,-3.2679,-3.3449,-3.3975,-3.3975,-3.4776,-3.525,-3.525,-3.5346,-3.5423,-3.55,-3.55,-3.5538,-3.5615,-3.5538,-3.55,-3.55,-3.55,-3.55,-3.55,-3.55,-3.5981,-3.6904,-3.8584,-3.9765,-4.0496,-4.0496,-4.0496,-4.0496,-4.0496,-4.0496,-4.0496,-4.0496,-4.0496,-4.0496,-4.0496,-4.0496,-4.0496,-4.0496,-4.0496,-4.0496,-4.0496,-4.0496,-4.0496,-4.0496,-4.0496,-4.0496,-4.0496,-4.0496,-4.0496,-4.0496,-4.0496,-4.0496,-4.0496,-4.0496,-4.0496,-4.0496,-4.0496,-4.0496,-4.0496,-4.0496,-4.0496,-4.0496,-4.0496,-4.0496,-4.0496,-4.0496,-4.0496,-4.0496,-4.0439,-3.9746,-3.8142,-3.793,-3.7199,-3.5596,-3.55,-3.5904,-3.6769,-3.6038,-3.5615,-3.5615,-3.5615,-3.5577,-3.55,-3.4699,-3.4737,-3.55,-3.5577,-3.518,-1.554,-1.6582,0.0,0.0,-2.084,-2.37,-2.6424,-2.7802,-2.8826,-2.9846,-3.0143,-3.0196,-3.0123,-3.0269,-3.0346,-3.0154,-3.0288,-3.0462,-3.0654,-3.0673,-3.0731,-3.0923,-3.0942,-3.0942,-3.0942,-3.1737,-3.2237,-3.2237,-3.3006,-3.3468,-3.3468,-3.4103,-3.4795,-3.5481,-3.55,-3.5808,-3.6442,-3.5827,-3.55,-3.55,-3.55,-3.55,-3.55,-3.55,-3.6308,-3.7777,-3.8834,-3.9765,-4.0496,-4.0496,-4.0496,-4.0496,-4.0496,-4.0496,-4.0496,-4.0496,-4.0496,-4.0496,-4.0496,-4.0496,-4.0496,-4.0496,-4.0496,-4.0496,-4.0496,-4.0496,-4.0496,-4.0496,-4.0496,-4.0496,-4.0496,-4.0496,-4.0496,-4.0496,-4.0496,-4.0496,-4.0496,-4.0496,-4.0496,-4.0496,-4.0496,-4.0496,-4.0496,-4.0496,-4.0496,-4.0496,-4.0496,-4.0496,-4.0496,-4.0496,-4.0496,-4.0496,-3.9938,-3.915,-3.8084,-3.7373,-3.6558,-3.5558,-3.55,-3.6173,-3.7661,-3.6904,-3.6442,-3.6442,-3.6442,-3.6135,-3.55,-3.5308,-3.5327,-3.5519,-3.6154,-3.6346,-1.5332,0.0,0.0,-1.9738,0.0,-2.3814,-2.5783,-2.7251,-2.8372,-2.8971,-2.9627,-3.0152,-3.0279,-3.0292,-3.0292,-3.0292,-3.0292,-3.0292,-3.0292,-3.0292,-3.0292,-3.0292,-3.0305,-3.0318,-3.0356,-3.1149,-3.1667,-3.1698,-3.2449,-3.2891,-3.2891,-3.3725,-3.4417,-3.4853,-3.5269,-3.5692,-3.6115,-3.5712,-3.55,-3.55,-3.55,-3.55,-3.55,-3.55,-3.6404,-3.8027,-3.8469,-3.9381,-4.0496,-4.0496,-4.0496,-4.0496,-4.0496,-4.0496,-4.0496,-4.0496,-4.0496,-4.0496,-4.0496,-4.0496,-4.0496,-4.0496,-4.0496,-4.0496,-4.0496,-4.0496,-4.0496,-4.0496,-4.0496,-4.0496,-4.0496,-4.0496,-4.0496,-4.0496,-4.0496,-4.0496,-4.0496,-4.0496,-4.0496,-4.0496,-4.0496,-4.0496,-4.0496,-4.0496,-4.0496,-4.0496,-4.0496,-4.0496,-4.0496,-4.0496,-4.0496,-4.0496,-4.0131,-3.9534,-3.8681,-3.7815,-3.7142,-3.6712,-3.6308,-3.6834,-3.8546,-3.818,-3.795,-3.795,-3.7546,-3.7123,-3.6699,-3.6269,-3.6288,-3.6719,-3.7142,-3.7315,-1.5137,0.0,-1.8081,-2.1035,-2.2327,0.0,-2.4834,-2.643,-2.7668,-2.8014,-2.9061,-2.9945,-3.0087,-3.0109,-3.0109,-3.0109,-3.0109,-3.0109,-3.0109,-3.0109,-3.0109,-3.0109,-3.0126,-3.0168,-3.0241,-3.0919,-3.1386,-3.1462,-3.2083,-3.2468,-3.2468,-3.3295,-3.384,-3.3975,-3.468,-3.5115,-3.5269,-3.5269,-3.5269,-3.5269,-3.5423,-3.55,-3.55,-3.55,-3.6404,-3.8007,-3.8007,-3.895,-4.0496,-4.0496,-4.0496,-4.0496,-4.0496,-4.0496,-4.0496,-4.0496,-4.0496,-4.0496,-4.0496,-4.0496,-4.0496,-4.0496,-4.0496,-4.0496,-4.0496,-4.0496,-4.0496,-4.0496,-4.0496,-4.0496,-4.0496,-4.0496,-4.0496,-4.0496,-4.0496,-4.0496,-4.0496,-4.0496,-4.0496,-4.0496,-4.0496,-4.0496,-4.0496,-4.0496,-4.0496,-4.0496,-4.0496,-4.0496,-4.0496,-4.0496,-4.0496,-4.0496,-4.0496,-4.0169,-3.9381,-3.8642,-3.8161,-3.8007,-3.7315,-3.7642,-3.9227,-3.9304,-3.9381,-3.9496,-3.8661,-3.8142,-3.8007,-3.7276,-3.7296,-3.8007,-3.8142,-3.8219,0.0,0.0,-1.8525,0.0,-2.1422,-2.2396,0.0,0.0,-2.6259,0.0,-2.8829,-2.9607,-2.9739,-2.9756,-2.9756,-2.9756,-2.9756,-2.9756,-2.9756,-2.9756,-2.9756,-2.9756,-2.9867,-2.9981,-3.004,-3.0258,-3.0433,-3.0552,-3.0673,-3.0731,-3.0731,-3.1564,-3.2352,-3.3045,-3.3199,-3.3603,-3.4379,-3.4379,-3.4379,-3.4379,-3.5135,-3.55,-3.55,-3.55,-3.6404,-3.8007,-3.8007,-3.895,-4.0496,-4.0496,-4.0496,-4.0496,-4.0496,-4.0496,-4.0496,-4.0496,-4.0496,-4.0496,-4.0496,-4.0496,-4.0496,-4.0496,-4.0496,-4.0496,-4.0496,-4.0496,-4.0496,-4.0496,-4.0496,-4.0496,-4.0496,-4.0496,-4.0496,-4.0496,-4.0496,-4.0496,-4.0496,-4.0496,-4.0496,-4.0496,-4.0496,-4.0496,-4.0496,-4.0496,-4.0496,-4.0496,-4.0496,-4.0496,-4.0496,-4.0496,-4.0496,-4.0496,-4.0496,-4.0169,-3.9381,-3.9188,-3.8796,-3.8046,-3.7892,-3.8277,-3.9265,-3.9304,-3.9631,-4.0323,-3.9534,-3.8738,-3.8007,-3.7873,-3.7892,-3.8027,-3.8757,-3.913,-1.4951,-1.6594,-1.7974,0.0,-2.0825,-2.149,-2.3144,-2.4172,-2.5111,-2.6294,-2.7613,-2.8765,-2.9448,-2.9589,-2.9589,-2.9589,-2.9589,-2.9589,-2.9589,-2.9589,-2.9589,-2.9589,-2.9681,-2.9775,-2.988,-3.0011,-3.0145,-3.0273,-3.0292,-3.0311,-3.033,-3.1162,-3.1815,-3.2218,-3.266,-3.3083,-3.3468,-3.3468,-3.3725,-3.4205,-3.5084,-3.55,-3.55,-3.55,-3.6404,-3.8007,-3.8007,-3.895,-4.0496,-4.0496,-4.0496,-4.0496,-4.0496,-4.0496,-4.0496,-4.0496,-4.0496,-4.0496,-4.0496,-4.0496,-4.0496,-4.0496,-4.0496,-4.0496,-4.0496,-4.0496,-4.0496,-4.0496,-4.0496,-4.0496,-4.0496,-4.0496,-4.0496,-4.0496,-4.0496,-4.0496,-4.0496,-4.0496,-4.0496,-4.0496,-4.0496,-4.0496,-4.0496,-4.0496,-4.0496,-4.0496,-4.0496,-4.0496,-4.0496,-4.0496,-4.0496,-4.0496,-4.0496,-4.0362,-3.9996,-3.9554,-3.9342,-3.94,-3.8969,-3.9111,-3.9938,-3.9977,-4.015,-4.0496,-4.015,-3.9785,-3.94,-3.94,-3.94,-3.94,-3.9342,-3.9534,0.0,0.0,-1.7135,-1.9337,-2.0034,-2.0584,0.0,0.0,-2.4116,0.0,-2.6219,-2.7561,-2.8839,-2.9241,-2.9372,-2.9372,-2.9372,-2.9372,-2.9372,-2.9372,-2.9372,-2.9372,-2.9444,-2.9551,-2.968,-2.9803,-2.9929,-3.0053,-3.0104,-3.0154,-3.0227,-3.0874,-3.129,-3.1365,-3.1948,-3.2256,-3.2256,-3.2487,-3.3141,-3.4205,-3.4853,-3.5288,-3.55,-3.55,-3.6404,-3.8007,-3.8007,-3.895,-4.0496,-4.0496,-4.0496,-4.0496,-4.0496,-4.0496,-4.0496,-4.0496,-4.0496,-4.0496,-4.0496,-4.0496,-4.0496,-4.0496,-4.0496,-4.0496,-4.0496,-4.0496,-4.0496,-4.0496,-4.0496,-4.0496,-4.0496,-4.0496,-4.0496,-4.0496,-4.0496,-4.0496,-4.0496,-4.0496,-4.0496,-4.0496,-4.0496,-4.0496,-4.0496,-4.0689,-4.0766,-4.0535,-4.0689,-4.0746,-4.0535,-4.0689,-4.0843,-4.0843,-4.1035,-4.1073,-4.0862,-4.0277,-4.0112,-4.0477,-3.9938,-3.9881,-4.0477,-4.0496,-4.0496,-4.0496,-4.0496,-4.0496,-4.0496,-4.0496,-4.0496,-4.0496,-3.9881,-3.9938,0.0,-1.516,0.0,-1.7821,-1.8794,0.0,0.0,0.0,-2.3281,-2.4098,-2.4934,-2.6009,-2.7599,-2.8507,-2.9028,-2.9028,-2.9028,-2.9028,-2.9028,-2.9028,-2.9028,-2.9028,-2.9134,-2.9267,-2.9412,-2.9475,-2.9588,-2.9713,-2.9842,-2.9939,-3.0006,-3.0174,-3.0337,-3.0456,-3.0519,-3.0538,-3.0538,-3.1346,-3.2583,-3.4205,-3.4244,-3.4699,-3.55,-3.55,-3.6404,-3.8007,-3.8007,-3.895,-4.0496,-4.0496,-4.0496,-4.0496,-4.0496,-4.0496,-4.0496,-4.0496,-4.0496,-4.0496,-4.0496,-4.0496,-4.0496,-4.0496,-4.0496,-4.0496,-4.0496,-4.0496,-4.0496,-4.0496,-4.0496,-4.0496,-4.0496,-4.0496,-4.0496,-4.0496,-4.0496,-4.0496,-4.0496,-4.0496,-4.0496,-4.0496,-4.0496,-4.0496,-4.0496,-4.1181,-4.145,-4.0631,-4.12,-4.1431,-4.0612,-4.1219,-4.1731,-4.1731,-4.247,-4.2624,-4.1788,-4.1692,-4.1335,-4.0554,-4.0458,-4.0458,-4.0496,-4.0496,-4.0496,-4.0496,-4.0496,-4.0496,-4.0496,-4.0496,-4.0496,-4.0496,-4.0458,-4.0458,0.0,0.0,0.0,-1.6298,-1.7546,-1.8739,-1.9546,-2.0584,-2.1777,-2.3153,-2.4061,-2.497,-2.6054,-2.7328,-2.8411,-2.8932,-2.9005,-2.9005,-2.9005,-2.9005,-2.9005,-2.9005,-2.9085,-2.916,-2.927,-2.9334,-2.9435,-2.9551,-2.9662,-2.9758,-2.9864,-2.9996,-3.013,-3.0279,-3.0279,-3.0292,-3.0342,-3.1244,-3.2006,-3.2602,-3.3686,-3.4359,-3.468,-3.5231,-3.6115,-3.7199,-3.7757,-3.895,-4.0496,-4.0496,-4.0496,-4.0496,-4.0496,-4.0496,-4.0496,-4.0496,-4.0496,-4.0496,-4.0496,-4.0496,-4.0496,-4.0496,-4.0496,-4.0496,-4.0496,-4.0496,-4.0496,-4.0496,-4.0496,-4.0631,-4.1181,-4.1335,-4.1489,-4.2047,-4.2162,-4.2162,-4.2162,-4.1285,-4.0496,-4.0496,-4.0496,-4.0496,-4.0496,-4.1219,-4.1508,-4.0631,-4.1239,-4.17,-4.1373,-4.1604,-4.2,-4.2566,-4.2912,-4.297,-4.2662,-4.2124,-4.1681,-4.1354,-4.0804,-4.0496,-4.0496,-4.0496,-4.0496,-4.0496,-4.0496,-4.0496,-4.0496,-4.0496,-4.0496,-4.0496,-3.9977,-4.0015,-1.1948,0.0,0.0,0.0,0.0,-1.7547,-1.8625,-1.9505,-2.0494,-2.1887,-2.3024,-2.4043,-2.4842,-2.609,-2.7357,-2.8429,-2.8822,-2.9005,-2.9005,-2.9005,-2.9005,-2.9005,-2.9051,-2.9089,-2.9119,-2.9174,-2.9246,-2.932,-2.9414,-2.9523,-2.9653,-2.9769,-2.9913,-3.0094,-3.0126,-3.0176,-3.0273,-3.0918,-3.141,-3.1718,-3.2833,-3.3506,-3.3782,-3.4353,-3.5231,-3.6346,-3.7199,-3.8527,-4.0112,-4.04,-4.0496,-4.0496,-4.0496,-4.0496,-4.0496,-4.0496,-4.0496,-4.0496,-4.0496,-4.0496,-4.0496,-4.0496,-4.0496,-4.0496,-4.0496,-4.0496,-4.0496,-4.0496,-4.0496,-4.0708,-4.1566,-4.2019,-4.2374,-4.297,-4.3104,-4.3104,-4.3104,-4.2181,-4.1381,-4.1381,-4.1381,-4.1381,-4.1381,-4.2085,-4.2354,-4.1489,-4.2104,-4.2547,-4.2277,-4.247,-4.2854,-4.3431,-4.3758,-4.3816,-4.3528,-4.297,-4.2527,-4.2258,-4.1681,-4.1247,-4.095,-4.0931,-4.0804,-4.0516,-4.0496,-4.0496,-4.0496,-4.0496,-4.0496,-4.0496,-3.9958,-3.9996,0.0,0.0,0.0,0.0,0.0,0.0,-1.7534,0.0,-1.9499,-2.0301,-2.1777,-2.3171,-2.4006,-2.4824,-2.587,-2.7467,-2.8429,-2.8968,-2.9005,-2.9005,-2.9005,-2.9005,-2.9005,-2.9005,-2.9005,-2.9005,-2.9005,-2.9005,-2.9112,-2.9254,-2.9392,-2.9456,-2.9616,-2.9886,-2.9958,-3.0061,-3.0182,-3.0336,-3.0821,-3.1654,-3.1673,-3.2096,-3.2865,-3.2885,-3.3827,-3.5493,-3.6346,-3.768,-3.9315,-4.0169,-4.0496,-4.0496,-4.0496,-4.0496,-4.0496,-4.0496,-4.0496,-4.0496,-4.0496,-4.0496,-4.0496,-4.0496,-4.0496,-4.0496,-4.0496,-4.0496,-4.0516,-4.0535,-4.0535,-4.0746,-4.1643,-4.2527,-4.3162,-4.3162,-4.3162,-4.3162,-4.3162,-4.3162,-4.3162,-4.3104,-4.3104,-4.3104,-4.3104,-4.3778,-4.4028,-4.322,-4.3778,-4.4028,-4.3239,-4.3816,-4.4316,-4.4335,-4.5094,-4.5267,-4.4412,-4.4316,-4.397,-4.3181,-4.3104,-4.272,-4.1865,-4.1808,-4.1393,-4.0554,-4.0516,-4.0496,-4.0496,-4.0496,-4.0496,-4.0496,-4.0496,-4.0496,-1.1223,0.0,0.0,0.0,0.0,0.0,0.0,0.0,-1.8604,-1.9457,-2.0456,-2.163,-2.3061,-2.3988,-2.4879,-2.5907,-2.7229,-2.8338,-2.8932,-2.9005,-2.9005,-2.9005,-2.9005,-2.9005,-2.9005,-2.9005,-2.9005,0.0,-2.9085,-2.9178,-2.9259,-2.9414,-2.957,-2.9689,-2.9801,-2.9915,-3.0057,-3.0192,-3.038,-3.061,-3.1191,-3.1593,-3.1849,-3.2474,-3.337,-3.4503,-3.5978,-3.7256,-3.8393,-3.9885,-4.0496,-4.0496,-4.0496,-4.0496,-4.0496,-4.0496,-4.0496,-4.0496,-4.0496,-4.0496,-4.0496,-4.0496,-4.0496,-4.0496,-4.0496,-4.0496,-4.0631,-4.1258,-4.145,-4.1777,-4.3239,-4.4259,-4.4921,-4.4921,-4.4921,-4.4921,-4.4921,-4.4921,-4.4547,-4.3335,-4.3104,-4.3104,-4.3104,-4.3778,-4.4028,-4.322,-4.3778,-4.422,-4.3989,-4.4162,-4.4528,-4.5171,-4.546,-4.5498,-4.5267,-4.4662,-4.4201,-4.397,-4.3412,-4.2989,-4.2758,-4.2143,-4.17,-4.145,-4.0823,-4.0496,-4.0496,-4.0496,-4.0496,-4.0496,-4.0496,-4.0496,-1.2238,-1.294,0.0,0.0,0.0,0.0,-1.4709,-1.5821,-1.7208,0.0,-1.936,-2.031,-2.1625,-2.2548,-2.3371,-2.4178,-2.5407,-2.6664,-2.7831,-2.7996,-2.7996,-2.7996,-2.829,-2.8503,-2.8503,-2.8803,-2.9005,-2.9005,-2.904,-2.9078,-2.9108,-2.9225,-2.9341,-2.9434,-2.957,-2.9671,-2.9786,-2.9918,-3.0,-3.0,-3.0464,-3.0692,-3.0711,-3.1225,-3.214,-3.3435,-3.5211,-3.6692,-3.8004,-3.9773,-4.0496,-4.0496,-4.0496,-4.0496,-4.0496,-4.0496,-4.0496,-4.0496,-4.0496,-4.0496,-4.0496,-4.0496,-4.0496,-4.0496,-4.0496,-4.0496,-4.0612,-4.1104,-4.1777,-4.2643,-4.3951,-4.496,-4.5594,-4.5594,-4.5594,-4.5594,-4.5594,-4.5594,-4.5306,-4.4335,-4.4143,-4.4143,-4.4143,-4.4528,-4.4682,-4.4201,-4.4528,-4.4836,-4.4836,-4.4836,-4.5037,-4.5556,-4.5594,-4.5594,-4.5594,-4.5133,-4.4836,-4.4836,-4.4393,-4.397,-4.3624,-4.3104,-4.2508,-4.1808,-4.1296,-4.0854,-4.0496,-4.0496,-4.0496,-4.0496,-4.0492,-4.0495,-1.4182,-1.4349,0.0,-1.4904,-1.455,0.0,-1.4779,-1.5095,-1.5713,0.0,-1.8228,-1.9059,-1.9856,-2.0635,-2.1434,-2.2264,-2.3132,-2.4351,-2.6198,-2.6528,-2.6602,-2.6602,-2.7236,-2.7695,-2.7787,-2.8448,-2.8895,-2.8987,-2.9005,-2.9005,-2.9005,-2.9005,-2.9062,-2.9178,-2.931,-2.9405,-2.9476,-2.9607,-2.967,-2.967,-2.967,-2.967,-2.967,-2.967,-3.0665,-3.2454,-3.4196,-3.6014,-3.7895,-3.961,-4.0404,-4.0496,-4.0496,-4.0496,-4.0496,-4.0496,-4.0496,-4.0496,-4.0496,-4.0496,-4.0496,-4.0496,-4.0496,-4.0496,-4.0496,-4.0496,-4.0535,-4.0727,-4.197,-4.3412,-4.422,-4.5017,-4.5594,-4.5594,-4.5594,-4.5594,-4.5594,-4.5594,-4.5594,-4.5594,-4.5594,-4.5594,-4.5594,-4.5594,-4.5594,-4.5594,-4.5594,-4.5594,-4.5594,-4.5594,-4.5594,-4.5594,-4.5594,-4.5594,-4.5594,-4.5594,-4.5594,-4.5594,-4.5594,-4.5248,-4.447,-4.4355,-4.3547,-4.1962,-4.1742,-4.1253,-4.0465,-4.0489,-4.0496,-4.0496,-4.0479,-4.043,-1.4844,-1.5286,-1.5422,-1.4282,-1.4322,0.0,-1.3265,-1.4079,-1.5172,0.0,-1.6332,-1.717,-1.7983,-1.8312,-1.8766,-1.9682,-2.0551,-2.2182,-2.5217,-2.619,-2.6602,-2.6602,-2.6741,-2.709,-2.7732,-2.7934,-2.8301,-2.895,-2.9005,-2.9005,-2.9005,-2.9005,-2.904,-2.913,-2.9195,-2.9272,-2.9345,-2.9465,-2.9532,-2.9532,-2.9532,-2.9532,-2.9532,-2.9532,-3.0499,-3.2221,-3.3384,-3.5296,-3.7642,-3.8819,-3.9761,-4.0496,-4.0496,-4.0496,-4.0496,-4.0496,-4.0496,-4.0496,-4.0496,-4.0496,-4.0496,-4.0496,-4.0496,-4.0496,-4.0496,-4.0496,-4.0785,-4.22,-4.3297,-4.4259,-4.5133,-4.5479,-4.5594,-4.5594,-4.5594,-4.5594,-4.5594,-4.5594,-4.5594,-4.5594,-4.5594,-4.5594,-4.5594,-4.5594,-4.5594,-4.5594,-4.5594,-4.5594,-4.5594,-4.5594,-4.5594,-4.5594,-4.5594,-4.5594,-4.5594,-4.5594,-4.5594,-4.5594,-4.5594,-4.5518,-4.5344,-4.4662,-4.3818,-4.2793,-4.1334,-4.0478,-4.027,-4.0425,-4.0496,-4.0496,-4.0436,-4.0334,-1.5967,-1.5993,-1.5757,-1.4951,-1.4727,0.0,0.0,-1.3677,-1.4536,-1.5378,-1.5895,-1.6571,-1.7734,-1.7701,-1.7683,-1.8214,-1.9072,-2.0271,-2.1999,-2.372,-2.4951,-2.5364,-2.575,-2.6164,-2.6568,-2.6961,-2.7365,-2.7776,-2.7794,-2.7978,-2.8374,-2.8411,-2.8606,-2.9033,-2.9071,-2.9127,-2.916,-2.9214,-2.9246,-2.9246,-2.9246,-2.9246,-2.9246,-2.9246,-3.02,-3.1912,-3.291,-3.4597,-3.6709,-3.8114,-3.9004,-3.9509,-4.0114,-4.0375,-4.04,-4.0444,-4.0452,-4.0444,-4.0452,-4.0436,-4.0392,-4.0366,-4.0358,-4.0358,-4.0358,-4.0679,-4.1336,-4.2667,-4.3645,-4.4489,-4.5364,-4.5594,-4.5594,-4.5594,-4.5594,-4.5594,-4.5594,-4.5594,-4.5594,-4.5594,-4.5594,-4.5594,-4.5594,-4.5594,-4.5594,-4.5594,-4.5594,-4.5594,-4.5594,-4.5594,-4.5594,-4.5594,-4.5594,-4.5594,-4.5594,-4.5594,-4.5594,-4.5594,-4.5594,-4.5594,-4.5594,-4.519,-4.4264,-4.2842,-4.1017,-4.0022,-3.9901,-3.9994,-4.0148,-4.0358,-4.0262,-4.0109,-1.752,-1.7033,-1.6338,-1.6047,-1.5376,-1.4562,0.0,0.0,0.0,-1.5435,-1.5825,-1.6301,0.0,0.0,0.0,-1.6976,0.0,0.0,0.0,-2.0542,0.0,-2.3556,-2.429,-2.474,-2.4915,-2.5676,-2.6209,-2.6355,-2.6374,-2.6722,-2.753,-2.7725,-2.8099,-2.8748,-2.8932,-2.9005,-2.9005,-2.9005,-2.9005,-2.9005,-2.9005,-2.9005,-2.9005,-2.9005,-2.995,-3.1639,-3.246,-3.3911,-3.5799,-3.7412,-3.8196,-3.8456,-3.9628,-4.012,-4.0205,-4.0316,-4.0342,-4.0334,-4.0342,-4.0288,-4.0215,-4.0101,-4.0081,-4.0081,-4.012,-4.0788,-4.175,-4.2694,-4.36,-4.4489,-4.5364,-4.5594,-4.5594,-4.5594,-4.5594,-4.5594,-4.5594,-4.5594,-4.5594,-4.5594,-4.5594,-4.5594,-4.5594,-4.5594,-4.5594,-4.5594,-4.5594,-4.5594,-4.5594,-4.5594,-4.5594,-4.5594,-4.5594,-4.5594,-4.5594,-4.5594,-4.5594,-4.5594,-4.5594,-4.5594,-4.5594,-4.5423,-4.447,-4.2658,-4.099,-3.9965,-3.9583,-3.9583,-3.9742,-4.0081,-3.9967,-3.9826,-1.9707,-1.9116,-1.8234,-1.6923,-1.6031,-1.5124,-1.3735,0.0,-1.4455,-1.4634,0.0,-1.5705,0.0,0.0,0.0,0.0,0.0,0.0,-1.6684,-1.764,-1.9198,-2.1607,-2.2027,-2.242,-2.3208,-2.4006,-2.4759,-2.5485,-2.554,-2.5888,-2.6686,-2.7402,-2.7842,-2.7934,-2.862,-2.9005,-2.9005,-2.9005,-2.9005,-2.9005,-2.9005,-2.9005,-2.9005,-2.9005,-2.9915,-3.1519,-3.1765,-3.3243,-3.5603,-3.6578,-3.7442,-3.8247,-3.9263,-3.9754,-3.9891,-4.0071,-4.0129,-4.012,-4.0129,-4.0042,-3.9912,-3.9731,-3.9668,-3.9679,-3.9808,-4.0544,-4.1533,-4.2537,-4.3537,-4.4489,-4.5364,-4.5594,-4.5594,-4.5594,-4.5594,-4.5594,-4.5594,-4.5594,-4.5594,-4.5594,-4.5594,-4.5594,-4.5594,-4.5594,-4.5594,-4.5594,-4.5594,-4.5594,-4.5594,-4.5594,-4.5594,-4.5594,-4.5594,-4.5594,-4.5594,-4.5594,-4.5594,-4.5594,-4.5594,-4.5594,-4.5594,-4.4794,-4.3838,-4.2716,-4.1605,-4.0541,-3.9508,-3.9508,-3.9573,-3.9656,-3.9585,-3.9427,0.0,0.0,-1.8014,-1.6959,-1.6147,-1.5325,-1.4276,-1.4284,-1.474,-1.5595,0.0,0.0,0.0,0.0,0.0,0.0,-1.5721,0.0,0.0,0.0,-1.7663,-1.9881,0.0,0.0,-2.2226,-2.2152,-2.2409,-2.3245,-2.33,-2.3869,-2.5144,-2.598,-2.6843,-2.778,-2.8136,-2.8539,-2.9005,-2.9005,-2.9005,-2.9005,-2.9005,-2.9005,-2.9005,-2.9005,-2.9891,-3.1446,-3.1495,-3.265,-3.4613,-3.5959,-3.673,-3.7183,-3.8553,-3.9294,-3.9656,-3.9843,-3.9897,-3.9876,-3.9916,-3.981,-3.9644,-3.9489,-3.9439,-3.9445,-3.9597,-4.0677,-4.1993,-4.2491,-4.3712,-4.4959,-4.5381,-4.5486,-4.5495,-4.5522,-4.5568,-4.5594,-4.5594,-4.5594,-4.5594,-4.5594,-4.5594,-4.5594,-4.5594,-4.5594,-4.5594,-4.5594,-4.5594,-4.5594,-4.5594,-4.5594,-4.5594,-4.5594,-4.5594,-4.5594,-4.5594,-4.5594,-4.5594,-4.5594,-4.5594,-4.5594,-4.5594,-4.4698,-4.3944,-4.3403,-4.1876,-4.0731,-4.0023,-3.9548,-3.9313,-3.9302,-3.9364,-3.9305,-1.9075,-1.8657,-1.7879,-1.6925,-1.6147,-1.5409,-1.4673,-1.4656,-1.5223,-1.6705,-1.7162,0.0,0.0,0.0,0.0,0.0,0.0,-1.5502,0.0,-1.5044,0.0,0.0,0.0,0.0,0.0,-2.0065,-2.0175,-2.1043,-2.1106,-2.1923,-2.3768,-2.464,-2.5815,-2.742,-2.7688,-2.8191,-2.8987,-2.9005,-2.9005,-2.9005,-2.9005,-2.9005,-2.9005,-2.9005,-2.9879,-3.1397,-3.1397,-3.243,-3.4247,-3.5697,-3.6431,-3.6776,-3.8157,-3.895,-3.9318,-3.9525,-3.9592,-3.9575,-3.9604,-3.9471,-3.9272,-3.9183,-3.9142,-3.917,-3.9298,-4.0628,-4.2146,-4.2267,-4.3662,-4.5121,-4.5216,-4.5281,-4.5342,-4.5419,-4.5522,-4.5594,-4.5594,-4.5594,-4.5594,-4.5594,-4.5594,-4.5594,-4.5594,-4.5594,-4.5594,-4.5594,-4.5594,-4.5594,-4.5594,-4.5594,-4.5594,-4.5594,-4.5594,-4.5594,-4.5594,-4.5594,-4.5594,-4.5594,-4.5594,-4.5594,-4.5594,-4.4909,-4.4336,-4.3918,-4.242,-4.1249,-4.043,-3.9811,-3.9388,-3.9117,-3.9227,-3.9245,-1.9951,-1.9423,-1.8516,-1.7061,-1.6147,-1.5409,-1.4673,-1.5044,-1.5984,-1.7462,-1.8335,-1.9046,0.0,0.0,0.0,0.0,0.0,0.0,0.0,0.0,0.0,0.0,0.0,0.0,0.0,-1.7632,-1.8439,0.0,-1.9384,-2.0446,-2.2914,-2.3804,-2.4979,-2.6594,-2.7383,-2.8191,-2.8987,-2.9005,-2.9005,-2.9005,-2.9005,-2.9005,-2.9005,-2.9005,-2.9879,-3.1397,-3.1397,-3.2761,-3.5041,-3.5936,-3.6758,-3.7547,-3.8377,-3.875,-3.8848,-3.9054,-3.9149,-3.9205,-3.9144,-3.8952,-3.8719,-3.8723,-3.8723,-3.8735,-3.8881,-4.0168,-4.1642,-4.178,-4.3181,-4.4663,-4.4776,-4.4954,-4.5129,-4.5282,-4.5467,-4.5594,-4.5594,-4.5594,-4.5594,-4.5594,-4.5594,-4.5594,-4.5594,-4.5594,-4.5594,-4.5594,-4.5594,-4.5594,-4.5594,-4.5594,-4.5594,-4.5594,-4.5594,-4.5594,-4.5594,-4.5594,-4.5594,-4.5594,-4.5594,-4.5594,-4.5594,-4.5438,-4.4891,-4.3925,-4.3507,-4.2389,-4.0491,-4.0421,-3.9961,-3.9197,-3.9197,-3.9173,-2.0653,-1.9858,-1.8775,-1.8279,-1.723,-1.6265,-1.6011,-1.6525,-1.7337,-1.8318,-1.9101,-1.971,-1.9951,0.0,0.0,0.0,0.0,0.0,0.0,0.0,0.0,0.0,0.0,0.0,0.0,0.0,-1.6875,-1.8325,-1.8474,-1.9344,-2.1245,-2.2657,-2.4135,-2.576,-2.6594,-2.7658,-2.8987,-2.9005,-2.9005,-2.9005,-2.9005,-2.9005,-2.9005,-2.9005,-2.9879,-3.1433,-3.1953,-3.3261,-3.5114,-3.6523,-3.7254,-3.7584,-3.8395,-3.8704,-3.8765,-3.8956,-3.9027,-3.8993,-3.8913,-3.8818,-3.8707,-3.8707,-3.8707,-3.8814,-3.9436,-4.0485,-4.1609,-4.2269,-4.338,-4.4374,-4.4493,-4.4688,-4.4879,-4.5065,-4.5258,-4.54,-4.5458,-4.5477,-4.5485,-4.5541,-4.5568,-4.5594,-4.5594,-4.5594,-4.5594,-4.5594,-4.5594,-4.5594,-4.5594,-4.5594,-4.5594,-4.5594,-4.5594,-4.5594,-4.5594,-4.5594,-4.5594,-4.5594,-4.5594,-4.5594,-4.5594,-4.5476,-4.5178,-4.4707,-4.3884,-4.2993,-4.2015,-4.0933,-4.023,-3.9909,-3.9439,-3.9178,-2.0636,-2.0044,-1.9232,-1.8961,-1.8195,-1.7399,-1.7145,-1.7659,-1.8403,-1.9147,-1.9908,-2.0504,-2.0775,0.0,0.0,0.0,0.0,0.0,0.0,-1.3438,0.0,0.0,0.0,0.0,0.0,0.0,-1.6236,-1.7385,-1.7821,-1.8721,0.0,-2.1761,-2.3372,-2.5299,-2.6161,-2.7372,-2.8987,-2.9005,-2.9005,-2.9005,-2.9005,-2.9005,-2.9005,-2.9299,-3.0155,-3.147,-3.2559,-3.394,-3.5573,-3.6942,-3.7676,-3.7988,-3.8505,-3.8707,-3.8723,-3.8851,-3.8881,-3.8822,-3.8795,-3.8735,-3.8707,-3.8707,-3.8891,-3.9237,-3.9798,-4.0793,-4.1862,-4.2445,-4.3262,-4.3999,-4.4151,-4.4332,-4.4506,-4.4688,-4.4905,-4.5087,-4.5184,-4.5231,-4.5322,-4.541,-4.5513,-4.5594,-4.5594,-4.5594,-4.5594,-4.5594,-4.5594,-4.5594,-4.5594,-4.5594,-4.5594,-4.5594,-4.5594,-4.5594,-4.5594,-4.5594,-4.5594,-4.5594,-4.5594,-4.5594,-4.5594,-4.5467,-4.5272,-4.503,-4.4228,-4.3477,-4.2765,-4.14,-4.0554,-4.0248,-3.9458,-3.9101]},{"header":{"parameterUnit":"m.s-1","parameterCategory":1,"la1":30.6,"la2":29.2853,"lo1":-89.7004,"lo2":-87.6739,"dy":0.0162,"dx":0.0183,"nx":112,"ny":82,"refTime":"2026-04-11T12:00:00:Z","depth":0,"parameterNumber":3,"parameterNumberName":"V-component_of_WINDS"},"data":[0.0,0.0,0.0,0.0,0.0,0.0,0.0,0.0,0.0,0.0,0.0,0.0,0.0,0.0,0.0,0.0,0.0,0.0,0.0,0.0,0.0,0.0,0.0,0.0,0.0,0.0,0.0,0.0,0.0,0.0,0.0,0.0,0.0,0.0,0.0,0.0,0.0,0.0,0.0,0.0,0.0,0.0,0.0,0.0,0.0,0.0,0.0,0.0,0.0,0.0,0.0,0.0,0.0,0.0,0.0,0.0,0.0,0.0,0.0,0.0,0.0,0.0,0.0,0.0,0.0,0.0,0.0,0.0,0.0,0.0,0.0,0.0,0.0,0.0,0.0,0.0,0.0,0.0,0.0,0.0,0.0,0.0,0.0,0.0,0.0,0.0,0.0,0.0,0.0,0.0,-0.3217,-0.3753,-0.3658,-0.3476,-0.3272,-0.2698,-0.2234,-0.1981,0.0,0.0,0.0,0.0,0.0,0.0,0.0,0.0,0.0,0.0,0.0,0.0,0.0,0.0,0.0,0.0,0.0,0.0,0.0,0.0,0.0,0.0,0.0,0.0,0.0,0.0,0.0,0.0,0.0,0.0,0.0,0.0,0.0,0.0,0.0,0.0,0.0,0.0,0.0,0.0,0.0,0.0,0.0,0.0,0.0,0.0,0.0,0.0,0.0,0.0,0.0,0.0,0.0,0.0,0.0,0.0,0.0,0.0,0.0,0.0,0.0,0.0,0.0,0.0,0.0,0.0,0.0,0.0,0.0,0.0,0.0,0.0,0.0,0.0,0.0,0.0,0.0,0.0,0.0,0.0,0.0,0.0,0.0,0.0,0.0,0.0,0.0,0.0,0.0,0.0,0.0,0.0,0.0,0.0,0.0,0.0,0.0,0.0,0.0,0.0,0.0,0.0,0.0,0.0,-0.3393,-0.421,-0.427,-0.4051,-0.3585,-0.3183,-0.2755,-0.2265,0.0,0.0,0.0,0.0,0.0,0.0,0.0,0.0,0.0,0.0,0.0,0.0,0.0,0.0,0.0,0.0,0.0,0.0,0.0,0.0,0.0,0.0,0.0,0.0,0.0,0.0,0.0,0.0,0.0,0.0,0.0,0.0,0.0,0.0,0.0,0.0,0.0,0.0,0.0,0.0,0.0,0.0,0.0,0.0,0.0,0.0,0.0,0.0,0.0,0.0,0.0,0.0,0.0,0.0,0.0,0.0,0.0,0.0,0.0,0.0,0.0,0.0,0.0,0.0,0.0,0.0,0.0,0.0,0.0,0.0,0.0,0.0,0.0,0.0,0.0,0.0,0.0,0.0,0.0,0.0,0.0,0.0,0.0,0.0,0.0,0.0,0.0,0.0,0.0,0.0,0.0,0.0,0.0,0.0,0.0,0.0,0.0,0.0,0.0,0.0,0.0,0.0,0.0,-0.3319,-0.3785,-0.4293,-0.4349,-0.4141,-0.3642,-0.3195,-0.269,-0.2123,-0.1783,0.0,0.0,0.0,0.0,0.0,0.0,0.0,0.0,0.0,0.0,0.0,0.0,0.0,0.0,0.0,0.0,0.0,0.0,0.0,0.0,0.0,0.0,0.0,0.0,0.0,0.0,0.0,0.0,0.0,0.0,0.0,0.0,0.0,0.0,0.0,0.0,0.0,0.0,0.0,0.0,0.0,0.0,0.0,0.0,0.0,0.0,0.0,0.0,0.0,0.0,0.0,0.0,0.0,0.0,0.0,0.0,0.0,0.0,0.0,0.0,0.0,0.0,0.0,0.0,0.0,0.0,0.0,0.0,0.0,0.0,0.0,0.0,0.0,0.0,0.0,0.0,0.0,0.0,0.0,0.0,0.0,0.0,0.0,0.0,0.0,0.0,0.0,0.0,0.0,0.0,0.0,0.0,0.0,0.0,0.0,0.0,0.0,0.0,0.0,0.0,0.0,0.0,-0.357,-0.3941,-0.4197,-0.4226,-0.4021,-0.3531,-0.3069,-0.2553,-0.1916,-0.1702,0.0,0.0,0.0,0.0,0.0,0.0,0.0,0.0,0.0,0.0,0.0,0.0,0.0,0.0,0.0,0.0,0.0,0.0,0.0,0.0,0.0,0.0,0.0,0.0,0.0,0.0,0.0,0.0,0.0,0.0,0.0,0.0,0.0,0.0,0.0,0.0,0.0,0.0,0.0,0.0,0.0,0.0,0.0,0.0,0.0,0.0,0.0,0.0,0.0,0.0,0.0,0.0,0.0,0.0,0.0,0.0,0.0,0.0,0.0,0.0,0.0,0.0,0.0,0.0,0.0,0.0,0.0,0.0,0.0,0.0,0.0,0.0,0.0,0.0,0.0,0.0,0.0,0.0,0.0,0.0,0.0,0.0,0.0,0.0,0.0,0.0,0.0,0.0,0.0,0.0,0.0,0.0,0.0,0.0,0.0,0.0,0.0,0.0,0.0,0.0,0.0,0.0,-0.3247,-0.3516,-0.3971,-0.4017,-0.3776,-0.3183,-0.2991,-0.2586,-0.1852,-0.1673,0.0,0.0,0.0,0.0,0.0,0.0,0.0,0.0,0.0,0.0,0.0,0.0,0.0,0.0,0.0,0.0,0.0,0.0,0.0,0.0,0.0,0.0,0.0,0.0,0.0,0.0,0.0,0.0,0.0,0.0,0.0,0.0,0.0,0.0,0.0,0.0,0.0,0.0,0.0,0.0,0.0,0.0,0.0,0.0,0.0,0.0,0.0,0.0,0.0,0.0,0.0,0.0,0.0,0.0,0.0,0.0,0.0,0.0,0.0,0.0,0.0,0.0,0.0,0.0,0.0,0.0,0.0,0.0,0.0,0.0,0.0,0.0,0.0,0.0,0.0,0.0,0.0,0.0,0.0,0.0,0.0,0.0,0.0,0.0,0.0,0.0,0.0,0.0,0.0,0.0,0.0,0.0,0.0,0.0,0.0,0.0,0.0,0.0,0.0,0.0,0.0,0.0,-0.3092,-0.3222,-0.3649,-0.3695,-0.3499,-0.3011,-0.2817,-0.2428,-0.1783,0.0,0.0,0.0,0.0,0.0,0.0,0.0,0.0,0.0,0.0,0.0,0.0,0.0,0.0,0.0,0.0,0.0,0.0,0.0,0.0,0.0,0.0,0.0,0.0,0.0,0.0,0.0,0.0,0.0,0.0,0.0,0.0,0.0,0.0,0.0,0.0,0.0,0.0,0.0,0.0,0.0,0.0,0.0,0.0,0.0,0.0,0.0,0.0,0.0,0.0,0.0,0.0,0.0,0.0,0.0,0.0,0.0,0.0,0.0,0.0,0.0,0.0,0.0,0.0,0.0,0.0,0.0,0.0,0.0,0.0,0.0,0.0,0.0,0.0,0.0,0.0,0.0,0.0,0.0,0.0,0.0,0.0,0.0,0.0,0.0,0.0,0.0,0.0,0.0,0.0,0.0,0.0,0.0,0.0,0.0,0.0,0.0,0.0,0.0,0.0,0.0,0.0,-0.2872,-0.2793,-0.2824,-0.3196,-0.3253,-0.3115,-0.2797,-0.2588,-0.2243,-0.1699,0.0,0.0,0.0,0.0,0.0,0.0,0.0,0.0,0.0,0.0,0.0,0.0,0.0,0.0,0.0,0.0,0.0,0.0,0.0,0.0,0.0,0.0,0.0,0.0,0.0,0.0,0.0,0.0,0.0,0.0,0.0,0.0,0.0,0.0,0.0,0.0,0.0,0.0,0.0,0.0,0.0,0.0,0.0,0.0,0.0,0.0,0.0,0.0,0.0,0.0,0.0,0.0,0.0,0.0,0.0,0.0,0.0,0.0,0.0,0.0,0.0,0.0,0.0,0.0,0.0,0.0,0.0,0.0,0.0,0.0,0.0,0.0,0.0,0.0,0.0,0.0,0.0,0.0,0.0,0.0,0.0,0.0,0.0,0.0,0.0,0.0,0.0,0.0,0.0,0.0,0.0,0.0,0.0,0.0,0.0,0.0,0.0,0.0,0.0,0.0,0.0,0.0,-0.2384,-0.2289,-0.2321,-0.2665,-0.2696,-0.2651,-0.2515,-0.2323,-0.2036,0.0,0.0,0.0,0.0,0.0,0.0,0.0,0.0,0.0,0.0,0.0,0.0,0.0,0.0,0.0,0.0,0.0,0.0,0.0,0.0,0.0,0.0,0.0,0.0,0.0,0.0,0.0,0.0,0.0,0.0,0.0,0.0,0.0,0.0,0.0,0.0,0.0,0.0,0.0,0.0,0.0,0.0,0.0,0.0,0.0,0.0,0.0,0.0,0.0,0.0,0.0,0.0,0.0,0.0,0.0,0.0,0.0,0.0,0.0,0.0,0.0,0.0,0.0,0.0,0.0,0.0,0.0,0.0,0.0,0.0,0.0,0.0,0.0,0.0,0.0,0.0,0.0,0.0,0.0,0.0,0.0,0.0,0.0,0.0,0.0,0.0,0.0,0.0,0.0,0.0,0.0,0.0,0.0,0.0,0.0,0.0,0.0,0.0,0.0,0.0,0.0,0.0,0.0,-0.2612,-0.2395,-0.2321,-0.2665,-0.2696,-0.2679,-0.2651,-0.237,-0.211,-0.1896,0.0,0.0,0.0,0.0,0.0,0.0,0.0,0.0,0.0,0.0,0.0,0.0,0.0,0.0,0.0,0.0,0.0,0.0,0.0,0.0,0.0,0.0,0.0,0.0,0.0,0.0,0.0,0.0,0.0,0.0,0.0,0.0,0.0,0.0,0.0,0.0,0.0,0.0,0.0,0.0,0.0,0.0,0.0,0.0,0.0,0.0,0.0,0.0,0.0,0.0,0.0,0.0,0.0,0.0,0.0,0.0,0.0,0.0,0.0,0.0,0.0,0.0,0.0,0.0,0.0,0.0,0.0,0.0,0.0,0.0,0.0,0.0,0.0,0.0,0.0,0.0,0.0,0.0,0.0,0.0,0.0,0.0,0.0,0.0,0.0,0.0,0.0,0.0,0.0,0.0,0.0,0.0,0.0,0.0,0.0,0.0,0.0,0.0,0.0,0.0,0.0,0.0,-0.2587,-0.2388,-0.2321,-0.2665,-0.2696,-0.2672,-0.2627,-0.2359,-0.212,-0.1933,0.0,0.0,0.0,0.0,0.0,0.0,0.0,0.0,0.0,0.0,0.0,0.0,0.0,0.0,0.0,0.0,0.0,0.0,0.0,0.0,0.0,0.0,0.0,0.0,0.0,0.0,0.0,0.0,0.0,0.0,0.0,0.0,0.0,0.0,0.0,0.0,0.0,0.0,0.0,0.0,0.0,0.0,0.0,0.0,0.0,0.0,0.0,0.0,0.0,0.0,0.0,0.0,0.0,0.0,0.0,0.0,0.0,0.0,0.0,0.0,0.0,0.0,0.0,0.0,0.0,0.0,0.0,0.0,0.0,0.0,0.0,0.0,0.0,0.0,0.0,0.0,0.0,0.0,0.0,0.0,0.0,0.0,0.0,0.0,0.0,0.0,0.0,0.0,0.0,0.0,0.0,0.0,0.0,0.0,0.0,0.0,0.0,0.0,0.0,0.0,0.0,0.0,-0.2416,-0.2296,-0.2321,-0.2665,-0.2696,-0.2651,-0.2511,-0.232,-0.2087,-0.1833,0.0,0.0,0.0,0.0,0.0,0.0,0.0,0.0,0.0,0.0,0.0,0.0,0.0,0.0,0.0,0.0,0.0,0.0,0.0,0.0,0.0,0.0,0.0,0.0,0.0,0.0,0.0,0.0,0.0,0.0,0.0,0.0,0.0,0.0,0.0,0.0,0.0,0.0,0.0,0.0,0.0,0.0,0.0,0.0,0.0,0.0,0.0,0.0,0.0,0.0,0.0,0.0,0.0,0.0,0.0,0.0,0.0,0.0,0.0,0.0,-0.1179,0.0,0.0,0.0,0.0,0.0,0.0,0.0,0.0,0.0,0.0,0.0,0.0,0.0,0.0,0.0,0.0,0.0,0.0,0.0,0.0,0.0,0.0,0.0,0.0,0.0,0.0,0.0,0.0,0.0,0.0,0.0,0.0,0.0,0.0,0.0,0.0,0.0,0.0,0.0,0.0,0.0,-0.2672,-0.2416,-0.2321,-0.2665,-0.2696,-0.2651,-0.2511,-0.232,-0.2134,-0.1974,-0.1737,0.0,0.0,0.0,0.0,0.0,0.0,0.0,0.0,0.0,0.0,0.0,0.0,0.0,0.0,0.0,0.0,0.0,0.0,0.0,0.0,0.0,0.0,0.0,0.0,0.0,0.0,0.0,0.0,0.0,0.0,0.0,0.0,0.0,0.0,0.0,0.0,0.0,0.0,0.0,0.0,0.0,0.0,0.0,0.0,0.0,0.0,0.0,0.0,0.0,0.0,0.0,0.0,0.0,0.0,0.0,0.0,0.0,0.0,0.0,0.0,-0.1548,0.0,0.0,0.0,0.0,0.0,0.0,0.0,0.0,0.0,0.0,0.0,0.0,0.0,0.0,0.0,0.0,0.0,0.0,0.0,0.0,0.0,0.0,0.0,0.0,0.0,0.0,0.0,0.0,0.0,0.0,0.0,0.0,0.0,0.0,0.0,0.0,0.0,0.0,0.0,0.0,-0.2767,-0.2452,-0.2321,-0.2665,-0.2696,-0.2607,-0.2367,-0.2268,-0.2114,-0.1916,-0.1779,0.0,0.0,0.0,0.0,0.0,0.0,0.0,0.0,0.0,0.0,0.0,0.0,0.0,0.0,0.0,0.0,0.0,0.0,0.0,0.0,0.0,0.0,0.0,0.0,0.0,0.0,0.0,0.0,0.0,0.0,0.0,0.0,0.0,0.0,0.0,0.0,0.0,0.0,0.0,0.0,0.0,0.0,0.0,0.0,0.0,0.0,0.0,0.0,0.0,0.0,0.0,0.0,0.0,-0.3049,-0.3211,-0.3475,-0.3526,-0.3662,-0.3815,-0.2904,-0.238,-0.2149,-0.1749,0.0,0.0,0.0,0.0,0.0,0.0,0.0,0.0,0.0,0.0,0.0,0.0,0.0,0.0,0.0,0.0,0.0,0.0,0.0,0.0,0.0,0.0,0.0,0.0,-0.2679,-0.2553,-0.2388,0.0,0.0,0.0,0.0,0.0,0.0,0.0,0.0,0.0,0.0,0.0,-0.2758,-0.2464,-0.2366,-0.2669,-0.2696,-0.2571,-0.2285,-0.2248,-0.2134,-0.1853,-0.1833,-0.1822,0.0,0.0,0.0,0.0,0.0,0.0,0.0,0.0,0.0,0.0,0.0,0.0,0.0,0.0,0.0,0.0,0.0,0.0,0.0,0.0,0.0,0.0,0.0,0.0,0.0,0.0,0.0,0.0,0.0,0.0,0.0,0.0,-0.0259,-0.0264,0.0,0.0,0.0,0.0,0.0,0.0,0.0,0.0,0.0,0.0,0.0,0.0,0.0,-0.2872,-0.3013,-0.3165,-0.3317,-0.3515,-0.3615,-0.3697,-0.3764,-0.3984,-0.4126,-0.4137,-0.4164,0.0,-0.3269,-0.2864,0.0,0.0,0.0,0.0,0.0,0.0,0.0,0.0,0.0,0.0,0.0,0.0,0.0,0.0,0.0,0.0,0.0,0.0,0.0,0.0,0.0,0.0,-0.3044,-0.3044,-0.3027,-0.301,0.0,-0.2552,-0.2174,-0.2154,-0.2059,0.0,0.0,0.0,0.0,0.0,0.0,0.0,-0.2634,-0.2532,-0.252,-0.2679,-0.2696,-0.2644,-0.2469,-0.2455,-0.2324,-0.2001,-0.1981,-0.192,-0.1809,-0.1803,0.0,0.0,0.0,0.0,0.0,0.0,0.0,0.0,0.0,0.0,0.0,0.0,0.0,0.0,0.0,0.0,0.0,0.0,0.0,0.0,0.0,0.0,0.0,0.0,0.0,0.0,0.0,0.0,0.0,-0.037,-0.0548,-0.0623,-0.08,-0.0963,0.0,0.0,0.0,0.0,0.0,0.0,0.0,0.0,0.0,-0.3198,-0.3331,-0.3476,-0.3603,-0.3667,-0.3778,-0.393,-0.3994,-0.4134,-0.43,-0.4436,-0.456,-0.4719,-0.4809,-0.4669,-0.4337,-0.3602,-0.3064,-0.2679,0.0,0.0,0.0,0.0,-0.2297,-0.2649,-0.2863,-0.3004,-0.3106,-0.3185,0.0,0.0,0.0,0.0,0.0,0.0,0.0,0.0,0.0,0.0,-0.3497,-0.3497,-0.3436,-0.3354,-0.329,-0.3027,-0.2777,0.0,-0.2545,-0.2469,-0.2354,0.0,0.0,0.0,0.0,-0.2691,-0.2658,-0.2564,-0.2556,-0.2682,-0.2696,-0.2651,-0.2511,-0.2498,-0.239,-0.2127,-0.2046,-0.1981,-0.1913,-0.1839,-0.1693,0.0,0.0,0.0,0.0,0.0,0.0,0.0,0.0,0.0,0.0,0.0,0.0,0.0,0.0,0.0,0.0,0.0,0.0,0.0,0.0,0.0,0.0,0.0,0.0,0.0,0.0,0.0,0.0,-0.0653,-0.0895,-0.1082,-0.132,-0.1538,0.0,0.0,0.0,0.0,0.0,0.0,-0.3063,-0.3181,-0.3378,-0.3683,-0.3795,-0.3941,-0.4131,-0.4134,-0.4203,-0.4392,-0.4392,-0.4506,-0.4752,-0.4789,-0.4921,-0.51,-0.514,-0.5137,-0.4993,-0.4237,-0.3688,-0.3238,-0.2573,-0.237,-0.2405,-0.2087,-0.2263,-0.2713,-0.2992,-0.3275,-0.3516,-0.3755,-0.3598,-0.333,-0.333,0.0,0.0,0.0,0.0,-0.3655,-0.3849,-0.388,-0.3839,-0.3799,-0.3741,-0.3672,-0.354,-0.3524,-0.3413,0.0,-0.2946,-0.2897,-0.2728,0.0,0.0,0.0,0.0,-0.2799,-0.2739,-0.2657,-0.263,-0.2689,-0.2696,-0.2668,-0.2567,-0.2556,-0.2479,-0.2289,-0.214,-0.2039,-0.1999,-0.1873,-0.1737,-0.1603,0.0,0.0,0.0,0.0,0.0,0.0,0.0,0.0,0.0,0.0,0.0,0.0,0.0,0.0,0.0,0.0,0.0,0.0,0.0,0.0,0.0,0.0,0.0,0.0,0.0,0.0,0.0,0.0,0.0,-0.162,-0.1834,0.0,0.0,0.0,0.0,-0.2748,-0.2833,-0.308,-0.3542,-0.3576,-0.3693,-0.3964,-0.3981,-0.4148,-0.4464,-0.4467,-0.4617,-0.4854,-0.4854,-0.4864,-0.4881,-0.5015,-0.5083,-0.5106,-0.5287,-0.5205,-0.4903,-0.4856,-0.4548,-0.4044,-0.3206,-0.2757,-0.2505,-0.1858,-0.1929,-0.2402,-0.2923,-0.3366,-0.3783,-0.4279,-0.4216,-0.395,-0.395,-0.3863,0.0,0.0,-0.4143,-0.4153,-0.417,-0.4092,-0.3947,-0.3826,-0.3897,-0.3933,-0.3802,-0.3971,-0.3936,0.0,-0.3091,-0.3059,-0.2989,0.0,-0.3112,-0.2918,-0.3056,-0.308,-0.2823,-0.285,-0.2832,-0.2713,-0.2696,-0.2692,-0.2686,-0.2686,-0.2637,-0.2498,-0.2306,-0.2134,-0.2002,-0.1873,-0.1737,-0.1603,-0.1593,0.0,0.0,0.0,0.0,0.0,0.0,0.0,0.0,0.0,0.0,0.0,0.0,0.0,0.0,0.0,0.0,0.0,0.0,0.0,0.0,0.0,0.0,0.0,0.0,0.0,0.0,0.0,0.0,-0.2309,-0.2644,0.0,-0.3125,-0.3155,-0.3255,-0.3423,-0.3455,-0.3592,-0.3849,-0.4068,-0.4221,-0.4327,-0.4497,-0.465,-0.4755,-0.4755,-0.4813,-0.4887,-0.4887,-0.4935,-0.5026,-0.5076,-0.5204,-0.543,-0.5484,-0.5357,-0.5045,-0.4617,-0.4156,-0.362,-0.2912,-0.24,-0.2016,-0.1521,-0.1708,-0.2261,-0.288,-0.3414,-0.391,-0.4467,-0.4538,-0.4433,-0.4361,-0.4293,-0.4293,-0.4473,-0.4535,-0.4535,-0.4535,-0.4419,-0.4267,-0.4095,-0.4102,-0.4099,-0.3947,-0.4078,-0.4086,-0.3748,-0.3677,-0.3622,-0.342,-0.342,-0.3353,-0.3079,-0.3083,-0.3097,-0.3008,-0.2934,-0.289,-0.2832,-0.2829,-0.2788,-0.2706,-0.2788,-0.2778,-0.264,-0.2359,-0.2174,-0.2134,-0.1916,-0.1779,-0.1727,-0.1648,-0.1544,0.0,0.0,0.0,0.0,0.0,0.0,0.0,0.0,0.0,0.0,0.0,0.0,0.0,0.0,0.0,0.0,0.0,0.0,0.0,0.0,0.0,0.0,0.0,0.0,0.0,-0.1847,-0.2424,-0.2858,-0.3236,-0.3536,-0.3714,-0.3775,-0.3822,-0.3866,-0.387,-0.3934,-0.4062,-0.4328,-0.4511,-0.4566,-0.4785,-0.4911,-0.4958,-0.4958,-0.5012,-0.5145,-0.5145,-0.522,-0.5322,-0.5322,-0.5467,-0.5661,-0.5661,-0.5467,-0.5048,-0.4318,-0.3626,-0.2967,-0.2332,-0.183,-0.1403,-0.0959,-0.1222,-0.1962,-0.3065,-0.3885,-0.4518,-0.4902,-0.4958,-0.4928,-0.4825,-0.4795,-0.4815,-0.4917,-0.4948,-0.4935,-0.4853,-0.4728,-0.4579,-0.4405,-0.4368,-0.4328,-0.4202,-0.4264,-0.4324,-0.4199,-0.409,-0.3941,-0.3716,-0.3672,-0.3587,-0.3314,-0.3276,-0.3236,-0.3185,-0.3094,-0.302,-0.2969,-0.2963,-0.292,-0.2788,-0.2852,-0.2846,-0.271,-0.2386,-0.2197,-0.2197,-0.1982,-0.1846,-0.1806,-0.1672,-0.1562,-0.1502,0.0,0.0,0.0,0.0,0.0,0.0,0.0,0.0,0.0,0.0,0.0,0.0,0.0,0.0,0.0,0.0,0.0,0.0,0.0,0.0,0.0,0.0,0.0,-0.1578,-0.2068,-0.2624,-0.324,-0.3605,-0.3873,-0.4001,-0.4149,-0.4176,-0.4028,-0.4014,-0.4078,-0.4194,-0.4395,-0.4573,-0.4694,-0.4847,-0.4961,-0.5103,-0.5106,-0.5291,-0.5589,-0.5596,-0.5674,-0.5817,-0.582,-0.5823,-0.5823,-0.5817,-0.5456,-0.4843,-0.3996,-0.3125,-0.2222,-0.1527,-0.1091,-0.0729,-0.0182,-0.051,-0.1493,-0.3413,-0.4749,-0.5596,-0.5593,-0.5525,-0.5402,-0.5395,-0.5395,-0.5395,-0.5395,-0.5392,-0.5351,-0.5137,-0.4992,-0.488,-0.4731,-0.4697,-0.4657,-0.4535,-0.4617,-0.4675,-0.4525,-0.4233,-0.3982,-0.3826,-0.3795,-0.3744,-0.3624,-0.3604,0.0,-0.3333,-0.3309,-0.3252,-0.3125,-0.3108,-0.305,-0.2909,-0.2899,-0.2852,-0.2716,-0.239,-0.2197,-0.2204,-0.208,-0.194,-0.1813,-0.1679,-0.1512,-0.1313,0.0,0.0,0.0,0.0,0.0,0.0,0.0,0.0,0.0,0.0,0.0,0.0,0.0,0.0,0.0,0.0,0.0,0.0,0.0,0.0,0.0,-0.1066,-0.1411,-0.1706,-0.2243,-0.2807,-0.3321,-0.3917,-0.4365,-0.449,-0.4545,-0.4551,-0.4507,-0.4507,-0.4477,-0.4433,-0.4653,-0.4813,-0.4857,-0.4965,-0.5145,-0.5327,-0.533,-0.5429,-0.5593,-0.5694,-0.5881,-0.6177,-0.6279,-0.6327,-0.632,-0.6218,-0.5695,-0.4824,-0.3622,-0.2615,-0.1791,-0.1173,-0.0728,-0.0401,-0.0109,-0.0837,-0.2147,-0.3234,-0.4336,-0.5335,-0.5376,-0.5456,-0.5539,-0.5429,-0.5395,-0.5395,-0.5395,-0.5281,-0.5182,-0.511,-0.4992,-0.4877,-0.4867,-0.4857,-0.4847,-0.4802,-0.4741,-0.4677,-0.4665,-0.4501,-0.4286,-0.4002,-0.3866,-0.3744,-0.3624,-0.3604,0.0,-0.352,-0.3398,-0.3293,-0.3249,-0.3246,-0.3185,-0.3057,-0.3044,-0.2983,-0.2856,-0.2435,-0.2272,-0.2406,-0.2147,-0.1979,-0.1947,-0.1809,-0.1672,0.0,0.0,0.0,0.0,0.0,0.0,0.0,0.0,0.0,0.0,0.0,0.0,0.0,0.0,0.0,0.0,0.0,0.0,0.0,0.0,0.0,0.0,-0.09,-0.118,-0.1579,-0.219,-0.2825,-0.3424,-0.4139,-0.4648,-0.4772,-0.4785,-0.4758,-0.4697,-0.4691,-0.4653,-0.459,-0.4843,-0.4975,-0.4975,-0.5213,-0.5365,-0.5491,-0.5549,-0.5623,-0.5776,-0.5922,-0.6156,-0.6395,-0.6542,-0.6492,-0.6351,-0.6189,-0.5524,-0.4485,-0.3257,-0.2262,0.0,0.0,0.0,0.0,0.0,-0.1015,-0.2103,-0.2889,-0.3906,-0.4927,-0.5147,-0.5441,-0.565,-0.5535,-0.5446,-0.5382,-0.5284,-0.5159,-0.5022,-0.5083,-0.5036,-0.4992,-0.5087,-0.5104,-0.5087,-0.4988,-0.4938,-0.4857,-0.4799,-0.4663,0.0,-0.4246,-0.4026,-0.3819,-0.3634,-0.3604,-0.3604,-0.3604,-0.35,-0.3425,-0.3425,-0.3425,-0.336,-0.3189,-0.3175,0.0,0.0,0.0,-0.2281,-0.2255,-0.2035,0.0,0.0,0.0,0.0,0.0,0.0,0.0,0.0,-0.1614,-0.1748,0.0,0.0,0.0,0.0,0.0,0.0,0.0,0.0,0.0,0.0,0.0,0.0,0.0,0.0,0.0,0.0,-0.0659,-0.0823,-0.128,-0.1983,-0.2724,-0.3483,-0.426,-0.4796,-0.4897,-0.4914,-0.4887,-0.4752,-0.4741,-0.4731,-0.4718,0.0,0.0,0.0,0.0,-0.5589,-0.564,-0.5766,-0.5911,-0.6043,-0.6237,-0.6426,-0.6569,-0.6681,-0.6547,-0.6165,-0.5901,-0.5095,-0.3927,-0.2827,-0.1891,-0.1069,-0.0315,0.0,-0.0039,-0.0432,-0.0981,-0.1646,-0.2466,0.0,0.0,-0.494,-0.5421,-0.58,-0.5657,-0.5542,-0.5392,-0.522,-0.5036,-0.4945,-0.509,-0.511,-0.5137,-0.5358,-0.5395,-0.5358,-0.5186,-0.511,-0.5063,-0.4935,-0.4819,-0.4663,-0.4494,-0.4216,-0.3924,-0.3668,-0.3614,-0.3604,-0.3604,-0.3604,-0.3607,-0.3624,0.0,0.0,-0.3393,-0.3353,-0.3202,-0.2868,-0.2524,-0.2186,-0.1818,-0.1775,-0.1822,-0.1979,-0.2033,-0.1999,-0.1846,-0.211,-0.2181,-0.2055,-0.1931,-0.2011,0.0,0.0,0.0,0.0,0.0,0.0,0.0,0.0,0.0,0.0,0.0,0.0,0.0,0.0,0.0,-0.0396,-0.0466,-0.064,-0.094,-0.158,-0.238,-0.3312,-0.4366,-0.5026,-0.5056,-0.5059,-0.5046,-0.5015,-0.5015,-0.4965,-0.488,-0.5005,-0.5186,-0.5347,-0.5409,-0.5579,-0.5905,-0.5936,-0.6118,-0.639,0.0,0.0,-0.6844,-0.6947,-0.6717,-0.6153,-0.5413,-0.4481,-0.3425,-0.2095,-0.102,-0.0249,-0.008,0.0,-0.0039,-0.0275,-0.0628,-0.1178,-0.1999,-0.3122,-0.4257,-0.4709,-0.5374,-0.5922,-0.5806,-0.5661,0.0,-0.5508,-0.5301,-0.5093,-0.5277,-0.5223,-0.5137,-0.5358,-0.5395,-0.5385,-0.5354,-0.522,-0.509,-0.5063,-0.4941,-0.473,-0.4319,-0.4115,-0.3958,-0.3778,-0.3675,-0.3604,-0.3604,-0.3604,-0.3648,-0.3737,-0.3751,-0.3788,-0.3859,-0.3673,-0.342,-0.3147,-0.2405,-0.178,-0.1277,-0.1393,-0.1598,-0.184,-0.1849,-0.1942,-0.2124,-0.2341,-0.2424,-0.2411,-0.238,-0.2452,0.0,0.0,0.0,0.0,0.0,0.0,0.0,0.0,0.0,0.0,0.0,-0.0018,-0.004,0.0,-0.0236,-0.015,-0.0215,-0.0341,-0.0616,-0.1209,-0.2001,-0.311,-0.4196,-0.4906,-0.5071,-0.5111,-0.51,-0.51,-0.51,-0.5038,-0.4908,-0.498,-0.5059,-0.5064,-0.5095,-0.5225,-0.5454,-0.552,-0.5653,-0.5893,-0.6029,-0.6129,-0.6202,-0.6327,-0.6008,-0.533,-0.4626,-0.3705,-0.2561,-0.1322,-0.05,0.0,0.0,0.0,0.0,-0.012,-0.028,-0.0559,-0.1458,-0.2546,-0.3705,-0.4399,-0.5302,-0.6118,-0.5962,-0.5813,-0.5681,-0.561,-0.5423,-0.5281,-0.547,-0.542,-0.5379,-0.5491,-0.5511,-0.5487,-0.5412,-0.5334,-0.5247,-0.5247,-0.5189,-0.4981,-0.4448,-0.4054,-0.3725,-0.3536,-0.3351,-0.3268,-0.3306,-0.335,-0.3423,-0.3491,-0.3498,-0.3504,-0.3504,-0.3096,-0.2748,-0.2512,-0.1871,-0.1331,-0.0959,-0.1141,-0.134,-0.1542,-0.1742,-0.1949,-0.2154,-0.2347,-0.2457,-0.2457,-0.2512,-0.2671,0.0,0.0,0.0,0.0,0.0,0.0,0.0,0.0,0.0,0.0,0.0,0.0,0.0,0.0,0.0,0.0,0.0,-0.009,-0.0341,-0.0858,-0.1613,-0.2693,-0.3791,-0.4605,-0.4978,-0.5081,-0.5143,-0.5143,-0.517,-0.5126,-0.4935,-0.4872,-0.4731,-0.4539,-0.447,-0.449,-0.4604,-0.4688,-0.4835,-0.4967,-0.5059,-0.5145,-0.5147,-0.5232,-0.4872,-0.4144,-0.3533,-0.2593,-0.1448,-0.0597,-0.0128,0.0,0.0,0.0,0.0,0.0,0.0,-0.0122,-0.0956,-0.2006,-0.3125,-0.3951,-0.5046,-0.6002,-0.5844,-0.5707,-0.5571,-0.5461,-0.5359,-0.5274,-0.5392,-0.5421,-0.5421,-0.5421,-0.5398,-0.5346,-0.5228,-0.5179,-0.5193,-0.5193,-0.5193,-0.5003,-0.4378,-0.38,-0.3342,-0.314,-0.2858,-0.273,-0.2815,-0.299,-0.3112,-0.3136,-0.3139,-0.3049,-0.2822,-0.2321,-0.192,-0.164,-0.1216,-0.0875,-0.0649,-0.0833,-0.1015,-0.1187,-0.152,-0.178,-0.1936,-0.2137,-0.2247,-0.2249,-0.2435,-0.2722,0.0,0.0,0.0,0.0,0.0,0.0,0.0,0.0,0.0,0.0,0.0,0.0,0.0,0.0,0.0,0.0,0.0,-0.0062,-0.0288,-0.0611,-0.1073,-0.1702,-0.3135,-0.4237,-0.4622,-0.508,-0.5368,-0.5368,-0.546,-0.5367,-0.5027,-0.4558,-0.4164,-0.392,-0.3385,-0.3272,-0.3575,-0.3543,-0.3578,-0.3811,-0.382,-0.3824,-0.3826,-0.3835,-0.3568,-0.3029,-0.1874,-0.0938,-0.0223,-0.0089,0.0,0.0,0.0,0.0,0.0,0.0,0.0,-0.0081,-0.073,-0.1676,-0.266,-0.3288,-0.4265,-0.5157,-0.5104,-0.5018,-0.492,-0.4909,-0.4778,-0.4684,-0.4701,-0.4704,-0.4704,-0.4704,-0.4618,-0.4535,-0.4519,-0.4467,-0.442,-0.442,-0.442,-0.4213,-0.3544,-0.3088,-0.2804,-0.2766,-0.2271,-0.2002,-0.2176,-0.2519,-0.2802,-0.2931,-0.2942,-0.271,-0.2168,-0.1878,-0.1522,-0.1032,-0.0732,-0.043,-0.0098,-0.0292,-0.0503,-0.0763,-0.0925,-0.1126,-0.1395,-0.1591,-0.1693,-0.1696,-0.2065,-0.2525,0.0,0.0,0.0,0.0,0.0,0.0,0.0,0.0,0.0,0.0,0.0,0.0,0.0,0.0,0.0,0.0,0.0,-0.0032,-0.0099,-0.0232,-0.0498,-0.0906,-0.1819,-0.283,-0.3849,-0.4456,-0.4755,-0.4755,-0.4847,-0.468,-0.4159,-0.3815,-0.3397,-0.2943,-0.2527,-0.2419,-0.2602,-0.256,-0.2617,-0.2772,-0.2772,-0.2772,-0.2772,-0.2772,-0.2459,-0.1791,-0.1031,-0.0449,0.0,0.0,0.0,0.0,0.0,0.0,0.0,0.0,0.0,-0.0084,-0.0542,-0.1276,-0.2037,-0.2528,-0.3258,-0.3897,-0.3884,-0.3843,-0.3804,-0.3827,-0.3783,-0.3714,-0.3714,-0.3714,-0.3703,-0.3614,-0.3573,-0.3515,-0.3443,-0.3388,-0.3379,-0.3357,-0.338,-0.3208,-0.2637,-0.2187,-0.1793,-0.1573,-0.1453,-0.1465,-0.1673,-0.2041,-0.2312,-0.2377,-0.2178,-0.1881,-0.1515,-0.1261,-0.0994,-0.0677,-0.0459,-0.0236,0.0,-0.0123,-0.0282,-0.0529,-0.0702,-0.0877,-0.1067,-0.1234,-0.132,-0.1321,-0.1638,-0.2038,0.0,0.0,0.0,0.0,0.0,0.0,0.0,0.0,0.0,0.0,0.0,0.0,0.0,0.0,0.0,0.0,0.0,0.0,0.0,0.0,-0.0101,-0.0404,-0.0858,-0.1609,-0.2744,-0.3458,-0.3862,-0.3857,-0.3926,-0.3754,-0.3214,-0.2906,-0.248,-0.1948,-0.1554,-0.14,-0.1457,-0.1467,-0.15,-0.1599,-0.1609,-0.1613,-0.1613,-0.1613,-0.13,-0.0763,-0.0449,-0.018,0.0,0.0,0.0,0.0,0.0,0.0,0.0,0.0,0.0,-0.0043,-0.0385,-0.0888,-0.1468,-0.1846,-0.2306,-0.2758,-0.2754,-0.2767,-0.2785,-0.2776,-0.275,-0.2774,-0.2774,-0.2774,-0.2764,-0.2641,-0.2579,-0.254,-0.2446,-0.2398,-0.2395,-0.2382,-0.2392,-0.2254,-0.1789,-0.1405,-0.1026,-0.0623,-0.0703,-0.0878,-0.1099,-0.1469,-0.1698,-0.1698,-0.1364,-0.1053,-0.0807,-0.0627,-0.047,-0.0358,-0.0224,-0.0111,0.0,-0.0044,-0.0151,-0.0297,-0.0427,-0.0559,-0.0659,-0.0748,-0.0794,-0.0794,-0.1061,-0.1421,0.0,0.0,0.0,0.0,0.0,0.0,0.0,0.0,0.0,0.0,0.0,0.0,0.0,0.0,0.0,0.0,0.0,0.0,0.0,0.0,-0.0067,-0.027,-0.0605,-0.0906,0.0,-0.2124,-0.2759,-0.2742,-0.2858,-0.2752,-0.2373,-0.1893,-0.1449,-0.0942,-0.0353,-0.004,-0.0041,-0.0042,-0.0043,-0.0087,-0.0089,-0.0045,-0.0045,-0.0045,-0.0045,-0.0045,0.0,0.0,0.0,0.0,0.0,0.0,0.0,0.0,0.0,0.0,0.0,-0.0044,-0.0217,-0.0557,-0.0966,-0.1218,-0.1597,-0.1933,-0.1932,-0.1943,-0.1949,-0.1947,-0.1955,-0.192,-0.192,-0.192,-0.192,-0.1919,-0.1845,-0.1737,-0.1734,-0.1669,-0.1646,-0.1645,-0.1644,-0.1519,-0.109,-0.0925,-0.0665,-0.0283,-0.0109,-0.0129,-0.0386,-0.0736,-0.094,-0.094,-0.0693,-0.0403,-0.0067,-0.0022,-0.0022,-0.0022,0.0,0.0,0.0,0.0,0.0,0.0,-0.0025,-0.0026,-0.0026,-0.0027,-0.0027,-0.0027,-0.0303,-0.0685,0.0,0.0,0.0,0.0,0.0,0.0,0.0,0.0,0.0,0.0,0.0,0.0,0.0,0.0,0.0,0.0,0.0,0.0,0.0,0.0,-0.0034,-0.0101,-0.0199,0.0,0.0,0.0,0.0,-0.1954,-0.2043,-0.1912,-0.1511,-0.1278,-0.0942,-0.051,-0.0157,0.0,0.0,0.0,0.0,0.0,0.0,0.0,0.0,0.0,0.0,0.0,0.0,0.0,0.0,0.0,0.0,0.0,0.0,0.0,0.0,0.0,0.0,0.0,-0.0089,-0.0177,-0.0308,-0.0396,-0.0527,-0.0657,-0.0648,-0.0642,-0.0634,-0.0656,-0.0647,-0.064,-0.0631,-0.0628,-0.0628,-0.0628,-0.0624,-0.0579,-0.0569,-0.056,-0.0548,-0.053,-0.0522,-0.051,-0.0353,-0.0313,-0.0212,-0.0085,-0.0109,-0.0208,-0.0433,-0.0518,-0.0578,-0.0629,-0.0426,-0.0225,-0.0022,0.0,0.0,0.0,0.0,0.0,0.0,0.0,0.0,0.0,0.0,0.0,0.0,0.0,0.0,0.0,-0.0195,-0.0473,0.0,0.0,0.0,0.0,0.0,0.0,0.0,0.0,0.0,0.0,0.0,0.0,0.0,0.0,0.0,0.0,0.0,0.0,0.0,0.0,0.0,0.0,0.0,0.0,0.0,0.0,0.0,-0.1029,-0.1082,-0.0998,-0.0727,-0.0623,-0.0471,-0.0196,-0.0079,0.0,0.0,0.0,0.0,0.0,0.0,0.0,0.0,0.0,0.0,0.0,0.0,0.0,0.0,0.0,0.0,0.0,0.0,0.0,0.0,0.0,0.0,0.0,0.0,0.0,0.0,0.0,0.0,0.0,0.0,0.0,0.0,0.0,0.0,0.0,0.0,0.0,0.0,0.0,0.0,0.0,0.0,0.0,0.0,0.0,0.0,0.0,0.0,0.0,0.0,0.0,-0.0083,-0.0186,-0.03,-0.0295,-0.0264,-0.0322,-0.0207,-0.0091,0.0,0.0,0.0,0.0,0.0,0.0,0.0,0.0,0.0,0.0,0.0,0.0,0.0,0.0,0.0,0.0,-0.0084,-0.0252,0.0,0.0,0.0,0.0,0.0,0.0,0.0,0.0,0.0,0.0,0.0,0.0,0.0,0.0,0.0,0.0,0.0,0.0,0.0,0.0,0.0,0.0,0.0,0.0,0.0,0.0,0.0,0.0,0.0,0.0,0.0,0.0,0.0,0.0,0.0,0.0,0.0,0.0,0.0,0.0,0.0,0.0,0.0,0.0,0.0,0.0,0.0,0.0,0.0,0.0,0.0,0.0,0.0,0.0,0.0,0.0,0.0,0.0,0.0,0.0,0.0,0.0,0.0,0.0,0.0,0.0,0.0,0.0,0.0,0.0,0.0,0.0,0.0,0.0,0.0,0.0,0.0,0.0,0.0,0.0,0.0,0.0,0.0,0.0,0.0,0.0,0.0,0.0,0.0,0.0,0.0,0.0,0.0,0.0,0.0,0.0,0.0,0.0,0.0,0.0,0.0,0.0,0.0,0.0,0.0,0.0,0.0,0.0,0.0,0.0,0.0,0.0,0.0,0.0,0.0,0.0,0.0,0.0,0.0,0.0,0.0,0.0,0.0,0.0,0.0,0.0,0.0,0.0,0.0,0.0,0.0,0.0,0.0,0.0,0.0,0.0,0.0,0.0,0.0,0.0,0.0,0.0,0.0,0.0,0.0,0.0,0.0,0.0,0.0,0.0,0.0,0.0,0.0,0.0,0.0,0.0,0.0,0.0,0.0,0.0,0.0,0.0,0.0,0.0,0.0,0.0,0.0,0.0,0.0,0.0,0.0,0.0,0.0,0.0,0.0,0.0,0.0,0.0,0.0,0.0,0.0,0.0,0.0,0.0,0.0,0.0,0.0,0.0,0.0,0.0,0.0,0.0,0.0,0.0,0.0,0.0,0.0,0.0,0.0,0.0,0.0,0.0,0.0,0.0,0.0,0.0,0.0,0.0,0.0,0.0,0.0,0.0,0.0,0.0,0.0,0.0,0.0,0.0,0.0,0.0,0.0,0.0,0.0,0.0,0.0,0.0,0.0,0.0,0.0,0.0,0.0,0.0,0.0,0.0,0.0,0.0,0.0,0.0,0.0,0.0,0.0,0.0,0.0,0.0,0.0,0.0,0.0,0.0,0.0,0.0,0.0,0.0,0.0,0.0,0.0,0.0,0.0,0.0,0.0,0.0,0.0,0.0,0.0,0.0,0.0,0.0,0.0,0.0,0.0,0.0,0.0,0.0,0.0,0.0,0.0,0.0,0.0,0.0,0.0,0.0,0.0,0.0,0.0,0.0,0.0,0.0,0.0,0.0,0.0,0.0,0.0,0.0,0.0,0.0,0.0,0.0,0.0,0.0,0.0,0.0,0.0,0.0,0.0,0.0,0.0,0.0,0.0,0.0,0.0,0.0,0.0,0.0,0.0,0.0,0.0,0.0,0.0,0.0,0.0,0.0,0.0,0.0,0.0,0.0,0.0,0.0,0.0,0.0,0.0,0.0,0.0,0.0,0.0,0.0,0.0,0.0,0.0,0.0,0.0,0.0,0.0,0.0,0.0,0.0,0.0,0.0,0.0,0.0,0.0,0.0,0.0,0.0,0.0,0.0,0.0,0.0,0.0,0.0,0.0,0.0,0.0,0.0,0.0,0.0,0.0,0.0,0.0,0.0,0.0,0.0,0.0,0.0,0.0,0.0,0.0,0.0,0.0,0.0,0.0,0.0,0.0,0.0,0.0,0.0,0.0,0.0,0.0,0.0,0.0,0.0,0.0,0.0,0.0,0.0,0.0,0.0,0.0,0.0,0.0,0.0,0.0,0.0,0.0,0.0,0.0,0.0,0.0,0.0,0.0,0.0,0.0,0.0,0.0,0.0,0.0,0.0,0.0,0.0,0.0,0.0,0.0,0.0,0.0,0.0,0.0,0.0,0.0,0.0,0.0,0.0,0.0,0.0,0.0,0.0,0.0,0.0,0.0,0.0,0.0,0.0,0.0,0.0,0.0,0.0,0.0,0.0,0.0,0.0,0.0,0.0,0.0,0.0,0.0,0.0,0.0,0.0,0.0,0.0,0.0,0.0,0.0,0.0,0.0,0.0,0.0,0.0,0.0,0.0,0.0,0.0,0.0,0.0,0.0,0.0,0.0,0.0,0.0,0.0,0.0,0.0,0.0,0.0,0.0,0.0,0.0,0.0,0.0,0.0,0.0,0.0,0.0,0.0,0.0,0.0,0.0,0.0,0.0,0.0,0.0,0.0,0.0,0.0,0.0,0.0,0.0,0.0,0.0,0.0,0.0,0.0,0.0,0.0,0.0,0.0,0.0,0.0,0.0,0.0,0.0,0.0,0.0,0.0,0.0,0.0,0.0,0.0,0.0,0.0,0.0,0.0,0.0,0.0,0.0,0.0,0.0,0.0,0.0,0.0,0.0,0.0,0.0,0.0,0.0,0.0,0.0,0.0,0.0,0.0,0.0,0.0,0.0,0.0,0.0,0.0,0.0,0.0,0.0,0.0,0.0,0.0,0.0,0.0,0.0,0.0,0.0,0.0026,0.0078,0.0,0.0,0.0191,0.0234,0.024,0.0213,0.018,0.0,0.007,0.0026,0.0,0.0,0.0,0.0,0.0,0.0,0.0,0.0,0.0,0.0,0.0,0.0,0.0,0.0,0.0,0.0,0.0,0.0,0.0,0.0,0.0,0.0,0.0,0.0,0.0,0.0,0.0,0.0,0.0,0.0,0.0,0.0,0.0,0.0,0.0,0.0,0.0,0.0,0.0,0.0,0.0,0.0,0.0,0.0,0.0,0.0,0.0,0.0,0.0,0.0,0.0,0.0,0.0,0.0,0.0,0.0,0.0,0.0,0.0,0.0,0.0,0.0,0.0,0.0,0.0,0.0,0.0,0.0,0.0,0.0,0.0,0.0,0.0,0.0,0.0,0.0,0.0,0.0,0.0,0.0,0.0,0.0,0.0,0.0,0.0,0.0,0.0,0.0,0.0,0.0,0.0,0.0,0.0,0.0,0.0,0.0,0.0,0.0,0.0,0.0,0.0052,0.0201,0.0327,0.0,0.0518,0.0598,0.0646,0.0563,0.0452,0.0339,0.0,0.0073,0.0,0.0,0.0,0.0,0.0,0.0,0.0,0.0,0.0,0.0,0.0,0.0,0.0,0.0,0.0,0.0,0.0,0.0,0.0,0.0,0.0,0.0,0.0,0.0,0.0,0.0,0.0,0.0,0.0,0.0,0.0,0.0,0.0,0.0,0.0,0.0,0.0,0.0,0.0,0.0,0.0,0.0,0.0,0.0,0.0,0.0,0.0,0.0,0.0,0.0,0.0,0.0,0.0,0.0,0.0,0.0,0.0,0.0,0.0,0.0,0.0,0.0,0.0,0.0,0.0,0.0,0.0,0.0,0.0,0.0,0.0,0.0,0.0,0.0,0.0,0.0,0.0,0.0,0.0,0.0,0.0,0.0,0.0,0.0,0.0,0.0,0.0,0.0,0.0,0.0,0.0,0.0,0.0,0.0,0.0,0.0,0.0,0.0,0.0,0.0,0.0075,0.0315,0.0,0.0711,0.0901,0.1087,0.1182,0.106,0.084,0.0607,0.0397,0.016,0.0,0.0,0.0,0.0,0.0,0.0,0.0,0.0,0.0,0.0,0.0,0.0,0.0,0.0,0.0,0.0,0.0,0.0,0.0,0.0,0.0,0.0,0.0,0.0,0.0,0.0,0.0,0.0,0.0,0.0,0.0,0.0,0.0,0.0,0.0,0.0,0.0,0.0,0.0,0.0,0.0,0.0,0.0,0.0,0.0,0.0,0.0,0.0,0.0,0.0,0.0,0.0,0.0,0.0,0.0,0.0,0.0,0.0,0.0,0.0,0.0,0.0,0.0,0.0,0.0,0.0,0.0,0.0,0.0,0.0,0.0,0.0,0.0,0.0,0.0,0.0,0.0,0.0,0.0,0.0,0.0,0.0,0.0,0.0,0.0,0.0,0.0,0.0,0.0,0.0,0.0,0.0,0.0,0.0,0.0,0.0396,0.0289,0.0233,0.0248,0.0236,0.035,0.0721,0.0951,0.1134,0.1428,0.1571,0.1602,0.143,0.1173,0.0949,0.0779,0.0545,0.0401,0.0476,0.0475,0.0478,0.0428,0.032,0.0,0.0,0.0,0.0,0.0,0.0,0.0,0.0,0.0,0.0,0.0,0.0,0.0,0.0,0.0,0.0,0.0,0.0,0.0,0.0,0.0,0.0,0.0,0.0,0.0,0.0,0.0,0.0,0.0,0.0,0.0,0.0,0.0,0.0,0.0,0.0,0.0,0.0,0.0,0.0,0.0,0.0,0.0,0.0,0.0,0.0,0.0,0.0,0.0,0.0,0.0,0.0,0.0,0.0,0.0,0.0,0.0,0.0,0.0,0.0,0.0,0.0,0.0,0.0,0.0,0.0,0.0,0.0,0.0,0.0,0.0,0.0,0.0,0.0,0.0,0.0,0.0,0.0,0.0,0.0,0.0,0.0,0.0,0.0,0.0,0.0,0.0,0.0,0.0,0.0865,0.0684,0.0535,0.0552,0.0535,0.0672,0.1136,0.1412,0.1662,0.1976,0.2098,0.2078,0.1876,0.1625,0.1414,0.1319,0.107,0.0953,0.1079,0.1137,0.1098,0.0981,0.0,0.0558,0.0424,0.0148,0.0,0.0,0.0,0.0,0.0,0.0,0.0,0.0,0.0,0.0,0.0,0.0,0.0,0.0,0.0,0.0,0.0,0.0,0.0,0.0,0.0,0.0,0.0,0.0,0.0,0.0,0.0,0.0,0.0,0.0,0.0,0.0,0.0,0.0,0.0,0.0,0.0,0.0,0.0,0.0,0.0,0.0,0.0,0.0,0.0,0.0,0.0,0.0,0.0,0.0,0.0,0.0,0.0,0.0,0.0,0.0,0.0,0.0,0.0,0.0,0.0,0.0,0.0,0.0,0.0,0.0,0.0,0.0,0.0,0.0,0.0,0.0,0.0,0.0,0.0,0.0,0.0,0.0,0.0,0.0,0.0,0.0,0.0,0.0,0.0,0.0,0.1429,0.1139,0.0891,0.0899,0.0883,0.1014,0.1485,0.1903,0.2265,0.2542,0.2654,0.263,0.2424,0.2178,0.1982,0.1997,0.1771,0.1645,0.1762,0.1903,0.1885,0.0,0.0,0.0978,0.0736,0.029,0.0,0.0,0.0,0.0,0.0,0.0,0.0,0.0,0.0,0.0,0.0,0.0,0.0,0.0,0.0,0.0,0.0,0.0,0.0,0.0,0.0,0.0,0.0,0.0,0.0,0.0,0.0,0.0,0.0,0.0,0.0,0.0,0.0,0.0,0.0,0.0,0.0,0.0,0.0,0.0,0.0,0.0,0.0,0.0,0.0,0.0,0.0,0.0,0.0,0.0,0.0,0.0,0.0,0.0,0.0,0.0,0.0,0.0,0.0,0.0,0.0,0.0,0.0,0.0,0.0,0.0,0.0,0.0,0.0,0.0,0.0,0.0,0.0,0.0,0.0,0.0,0.0,0.0,0.0,0.0,0.0,0.0,0.0,0.0,0.0,0.0,0.1756,0.1563,0.1443,0.1447,0.1418,0.1497,0.1964,0.2287,0.2517,0.2639,0.2679,0.2646,0.2494,0.2325,0.2238,0.2326,0.2157,0.2088,0.2307,0.0,0.0,0.1833,0.1145,0.0558,0.0,0.0,0.0,0.0,0.0,0.0,0.0,0.0,0.0,0.0,0.0,0.0,0.0,0.0,0.0,0.0,0.0,0.0,0.0,0.0,0.0,0.0,0.0,0.0,0.0,0.0,0.0,0.0,0.0,0.0,0.0,0.0,0.0,0.0,0.0,0.0,0.0,0.0,0.0,0.0,0.0,0.0,0.0,0.0,0.0,0.0,0.0,0.0,0.0,0.0,0.0,0.0,0.0,0.0,0.0,0.0,0.0,0.0,0.0,0.0109,0.0251,0.032,0.0448,0.0604,0.0731,0.075,0.0738,0.0763,0.075,0.0554,0.003,0.0,0.0,0.0,0.0,0.0,0.0,0.0,0.0,0.0,0.0,0.0,0.0,0.0,0.0,0.0,0.0,0.0,0.2251,0.204,0.1889,0.1884,0.1865,0.1919,0.2326,0.2562,0.2719,0.2761,0.2733,0.2679,0.2593,0.251,0.2513,0.2692,0.2614,0.263,0.0,0.0,0.0,0.1667,0.0,0.0,0.0,0.0,0.0,0.0,0.0,0.0,0.0,0.0,0.0,0.0,0.0,0.0,0.0,0.0,0.0,0.0,0.0,0.0,0.0,0.0,0.0,0.0,0.0,0.0,0.0,0.0,0.0,0.0,0.0,0.0,0.0,0.0,0.0,0.0,0.0,0.0,0.0,0.0,0.0,0.0,0.0,0.0,0.0,0.0,0.0,0.0,0.0,0.0,0.0,0.0,0.0,0.0,0.0,0.0,0.0,0.0,0.0,0.0,0.0,0.0217,0.0464,0.0772,0.1025,0.1343,0.1678,0.1717,0.1699,0.1699,0.1705,0.1521,0.1065,0.0637,0.0419,0.0419,0.0431,0.0404,0.0404,0.0404,0.0404,0.0404,0.0337,0.0269,0.0202,0.0067,0.0,0.0,0.0,0.0,0.0,0.2509,0.2236,0.2233,0.2246,0.2316,0.2559,0.2763,0.0,0.2896,0.2778,0.2696,0.2696,0.2706,0.2809,0.3057,0.3111,0.3195,0.0,0.31,0.0,0.0,0.0919,0.0,0.0146,0.0075,0.0077,0.0039,0.0039,0.0,0.0,0.0,0.0,0.0,0.0,0.0,0.0,0.0,0.0,0.0,0.0,0.0,0.0,0.0,0.0,0.0,0.0,0.0,0.0,0.0,0.0,0.0,0.0,0.0,0.0,0.0,0.0,0.0,0.0,0.0,0.0,0.0,0.0,0.0,0.0,0.0,0.0,0.0,0.0,0.0,0.0,0.0,0.0045,0.0045,0.0045,0.009,0.009,0.0088,0.0086,0.0082,0.008,0.0078,0.0111,0.0394,0.0808,0.1293,0.1744,0.2183,0.2713,0.2778,0.2778,0.2778,0.2778,0.2781,0.2772,0.1805,0.1225,0.1188,0.1222,0.1208,0.1206,0.1208,0.121,0.121,0.0974,0.0739,0.0504,0.0168,0.0,0.0,0.0,0.0,0.2539,0.0,0.2635,0.2533,0.2573,0.2669,0.0,0.2785,0.2876,0.2774,0.2723,0.2696,0.2696,0.2774,0.2913,0.3074,0.3179,0.3324,0.352,0.3084,0.0,0.1721,0.146,0.1231,0.1013,0.0806,0.0624,0.0471,0.0314,0.0157,0.0,0.0,0.0,0.0,0.0,0.0,0.0,0.0,0.0,0.0,0.0,0.0,0.0,0.0,0.0,0.0,0.0,0.0,0.0,0.0,0.0,0.0,0.0,0.0,0.0,0.0,0.0,0.0,0.0,0.0,0.0,0.0,0.0,0.0,0.0,0.0,0.0,0.0,0.0,0.0,0.0,0.0135,0.0359,0.0493,0.0673,0.0897,0.1032,0.1059,0.1083,0.1072,0.1037,0.1,0.1009,0.1436,0.1905,0.2181,0.2676,0.3158,0.3498,0.3553,0.3553,0.3553,0.3553,0.3544,0.3553,0.2786,0.228,0.2181,0.2281,0.229,0.2178,0.2254,0.2312,0.2312,0.1575,0.104,0.0739,0.0236,0.0,0.0,0.0,0.0,0.2456,0.2622,0.2756,0.2747,0.28,0.2837,0.2798,0.2799,0.0,0.0,0.0,0.272,0.2771,0.2852,0.2959,0.3152,0.3333,0.3456,0.0,0.0,0.283,0.2359,0.2254,0.2189,0.0,0.1828,0.149,0.1098,0.0746,0.0393,0.0039,0.0,0.0,0.0,0.0,0.0,0.0,0.0,0.0,0.0,0.0,0.0,0.0,0.0,0.0,0.0,0.0,0.0,0.0,0.0,0.0,0.0,0.0,0.0,0.0,0.0,0.0,0.0,0.0,0.0091,0.0182,0.0311,0.04,0.0538,0.062,0.0623,0.0539,0.0135,0.0,0.0,0.0,0.0269,0.0672,0.112,0.1478,0.1881,0.2327,0.2394,0.2411,0.2389,0.2384,0.2363,0.2364,0.2694,0.3093,0.3369,0.3764,0.415,0.4509,0.4525,0.4525,0.4525,0.4525,0.4525,0.4525,0.4154,0.3701,0.3145,0.3164,0.3162,0.3085,0.3158,0.3115,0.2917,0.2179,0.1644,0.1311,0.0774,0.0471,0.037,0.0269,0.0202,0.2473,0.2594,0.2733,0.2869,0.2926,0.2953,0.2929,0.0,0.0,0.0,0.0,0.0,0.2917,0.2943,0.0,0.3299,0.0,0.0,0.3527,0.3546,0.3442,0.3157,0.3232,0.0,0.3281,0.2932,0.2426,0.1841,0.1373,0.0825,0.0236,0.0196,0.0196,0.0196,0.0201,0.0207,0.0215,0.0088,0.0,0.0,0.0,0.0,0.0,0.0,0.0,0.0,0.0,0.0,0.0,0.0,0.0,0.0,0.0,0.0,0.0,0.0,0.0,0.0,0.0,0.018,0.0493,0.0765,0.1079,0.1345,0.1658,0.1748,0.1569,0.0763,0.0404,0.0225,0.0225,0.0583,0.1165,0.1835,0.2417,0.2953,0.3662,0.3794,0.382,0.38,0.3821,0.3809,0.379,0.3962,0.4219,0.458,0.4813,0.5076,0.5413,0.5443,0.5429,0.5429,0.5409,0.5395,0.5395,0.5395,0.5027,0.4092,0.4074,0.4092,0.411,0.411,0.3907,0.3538,0.2978,0.2499,0.2166,0.1616,0.1209,0.1008,0.0742,0.0541,0.2444,0.2606,0.2733,0.2869,0.3077,0.3206,0.3098,0.0,0.0,0.0,0.0,0.0,0.0,0.3155,0.3317,0.0,0.0,0.4073,0.0,0.0,0.4212,0.4101,0.0,0.4185,0.4185,0.3837,0.3329,0.2662,0.2234,0.1726,0.1139,0.11,0.11,0.11,0.1086,0.1103,0.1111,0.0379,0.0,0.0,0.0,0.0,0.0,0.0,0.0,0.0,0.0,0.0,0.0,0.0,0.0,0.0,0.0,0.0,0.0,0.0,0.0,0.0,0.0,0.0273,0.0764,0.1417,0.1908,0.2417,0.3083,0.326,0.3215,0.3081,0.2148,0.1166,0.1166,0.1704,0.2373,0.2862,0.3535,0.4162,0.4696,0.4783,0.4779,0.4765,0.4736,0.471,0.472,0.4848,0.5031,0.5164,0.5413,0.5609,0.5716,0.563,0.5555,0.5555,0.5474,0.5395,0.5395,0.5395,0.5329,0.516,0.5277,0.5363,0.548,0.5483,0.5341,0.4989,0.4281,0.3746,0.3405,0.2779,0.2278,0.1879,0.1409,0.1008,0.2832,0.2839,0.2855,0.3059,0.3208,0.3289,0.3219,0.3162,0.0,0.0,0.0,0.0,0.0,0.0,0.3602,0.4017,0.0,0.4637,0.4766,0.4993,0.517,0.0,0.0,0.5437,0.5437,0.501,0.4501,0.3869,0.3443,0.2937,0.231,0.2271,0.2271,0.2271,0.2256,0.2268,0.2268,0.189,0.1337,0.0692,0.0692,0.07,0.0715,0.0715,0.0733,0.0763,0.0,0.0763,0.0763,0.0763,0.0763,0.0763,0.0763,0.0763,0.0763,0.0763,0.0763,0.0765,0.0781,0.1186,0.1798,0.2384,0.3005,0.3582,0.4156,0.4378,0.4378,0.4378,0.3486,0.2593,0.2593,0.3041,0.3621,0.4245,0.4828,0.5411,0.603,0.6118,0.6118,0.6118,0.6113,0.6075,0.6075,0.6093,0.6086,0.6071,0.6087,0.6136,0.6067,0.5918,0.5796,0.5711,0.5572,0.5484,0.5402,0.5395,0.5395,0.5395,0.5539,0.562,0.5684,0.5762,0.5659,0.5411,0.4815,0.4402,0.4122,0.3567,0.3084,0.2686,0.2142,0.1725,0.3298,0.312,0.2978,0.3268,0.3367,0.336,0.336,0.3317,0.0,0.0,0.0,0.0,0.0,0.361,0.0,0.4409,0.4748,0.5074,0.5405,0.5671,0.5911,0.6064,0.6186,0.63,0.63,0.5909,0.5437,0.4885,0.4496,0.4066,0.3437,0.3398,0.3398,0.3398,0.3398,0.3398,0.3398,0.3398,0.2843,0.1734,0.1783,0.1767,0.1763,0.1815,0.1858,0.1926,0.1926,0.1926,0.1926,0.1926,0.1926,0.1926,0.1926,0.1926,0.1927,0.1937,0.194,0.1993,0.2045,0.2488,0.3076,0.3644,0.4247,0.4835,0.5319,0.5497,0.5497,0.5497,0.4956,0.4328,0.4018,0.4287,0.4779,0.5406,0.5899,0.6438,0.6966,0.7095,0.7095,0.7095,0.7095,0.7095,0.7095,0.6977,0.6846,0.677,0.6624,0.6525,0.6416,0.62,0.604,0.5922,0.5745,0.5593,0.5508,0.5467,0.5446,0.5446,0.5559,0.562,0.5691,0.5796,0.5801,0.5695,0.5301,0.5,0.4792,0.4427,0.3986,0.356,0.304,0.264,0.3706,0.3331,0.2999,0.338,0.3527,0.3587,0.3587,0.3656,0.0,0.3744,0.0,0.0,0.0,0.4072,0.423,0.446,0.483,0.5191,0.5528,0.0,0.6071,0.6265,0.6293,0.63,0.63,0.606,0.5705,0.5282,0.5043,0.4768,0.4343,0.4304,0.4304,0.4304,0.4304,0.4304,0.4304,0.4304,0.3876,0.2976,0.3165,0.3197,0.3144,0.334,0.3456,0.3436,0.3436,0.3436,0.3436,0.3436,0.3436,0.3436,0.3436,0.3436,0.3446,0.3559,0.3631,0.3651,0.3797,0.4038,0.4476,0.5218,0.5672,0.6083,0.6741,0.6962,0.6962,0.6962,0.6915,0.6561,0.523,0.523,0.5677,0.5991,0.6393,0.6792,0.7054,0.7095,0.7095,0.7095,0.7095,0.7095,0.7095,0.6977,0.6883,0.6873,0.678,0.6681,0.6671,0.646,0.6279,0.6269,0.5962,0.5783,0.5772,0.565,0.5576,0.5576,0.5586,0.5711,0.5949,0.5973,0.6081,0.6224,0.604,0.5855,0.5714,0.5535,0.5191,0.4664,0.4127,0.3693,0.3935,0.3515,0.3142,0.3373,0.3422,0.0,0.0,0.3826,0.3961,0.4031,0.4192,0.0,0.0,0.0,0.446,0.4707,0.5121,0.5488,0.5691,0.5983,0.6235,0.6293,0.63,0.63,0.63,0.6219,0.6103,0.5948,0.5867,0.575,0.5595,0.5595,0.5595,0.5595,0.5595,0.5595,0.5595,0.5595,0.5398,0.5079,0.4379,0.4082,0.4189,0.4267,0.4368,0.4467,0.4467,0.4467,0.4467,0.4467,0.4467,0.4467,0.4467,0.4467,0.4474,0.451,0.4568,0.4542,0.4674,0.491,0.5308,0.5828,0.6218,0.6615,0.6966,0.7095,0.7095,0.7095,0.7095,0.6962,0.6428,0.6428,0.6609,0.67,0.6877,0.701,0.7098,0.7095,0.7095,0.7095,0.7095,0.7095,0.7095,0.7051,0.7018,0.7018,0.6967,0.693,0.693,0.68,0.6641,0.6542,0.6303,0.6047,0.5952,0.5806,0.5684,0.5596,0.5589,0.5681,0.5878,0.5942,0.6101,0.6296,0.6108,0.5963,0.5905,0.5793,0.5504,0.5092,0.4691,0.433,0.4071,0.3584,0.3154,0.3377,0.0,0.0,0.3846,0.3991,0.4109,0.4257,0.447,0.4621,0.4573,0.0,0.0,0.0,0.5257,0.5586,0.5776,0.6023,0.6245,0.6293,0.63,0.63,0.63,0.63,0.63,0.63,0.63,0.63,0.63,0.63,0.63,0.63,0.63,0.63,0.63,0.63,0.63,0.63,0.5398,0.511,0.5262,0.53,0.5429,0.5579,0.5579,0.5642,0.5675,0.5675,0.5675,0.5675,0.5675,0.5675,0.568,0.5718,0.5779,0.575,0.5872,0.6062,0.6287,0.6509,0.6722,0.6925,0.7051,0.7095,0.7095,0.7095,0.7095,0.7095,0.7095,0.7095,0.7095,0.7095,0.7095,0.7095,0.7095,0.7095,0.7095,0.7095,0.7095,0.7095,0.7095,0.7095,0.7095,0.7095,0.7095,0.7095,0.7095,0.6974,0.6829,0.6715,0.6519,0.6339,0.6183,0.6034,0.5884,0.5739,0.5684,0.5681,0.5732,0.5878,0.603,0.6183,0.6132,0.6078,0.5993,0.5925,0.5724,0.544,0.5234,0.4999,0.4125,0.3521,0.3003,0.0,0.0,0.0,0.4085,0.4197,0.4267,0.4467,0.4711,0.4874,0.4721,0.4816,0.0,0.4891,0.5169,0.5498,0.5759,0.5932,0.6084,0.6276,0.6296,0.6296,0.6296,0.6296,0.6296,0.6296,0.63,0.63,0.63,0.63,0.63,0.63,0.63,0.63,0.63,0.63,0.63,0.63,0.63,0.6375,0.6518,0.6627,0.6783,0.6886,0.6886,0.6967,0.7095,0.7095,0.7095,0.7095,0.7095,0.7095,0.7112,0.7312,0.7415,0.7436,0.7543,0.7495,0.7415,0.7415,0.7265,0.7095,0.7095,0.7095,0.7095,0.7095,0.7095,0.7095,0.7095,0.7095,0.7095,0.7095,0.7095,0.7095,0.7095,0.7095,0.7095,0.7095,0.7095,0.7095,0.7095,0.7095,0.7095,0.7095,0.7095,0.7095,0.7095,0.6974,0.6829,0.6722,0.6705,0.6641,0.6528,0.6381,0.6196,0.6003,0.5884,0.5739,0.5599,0.5728,0.5874,0.5993,0.6183,0.6186,0.5993,0.5993,0.5952,0.5803,0.5803,0.5728,0.4113,0.3723,0.0,0.3531,0.0,0.0,0.0,0.4624,0.0,0.0,0.5081,0.5022,0.4978,0.4924,0.0,0.5019,0.5233,0.5463,0.5627,0.5779,0.5884,0.5932,0.5939,0.5939,0.5939,0.6037,0.6098,0.6098,0.6238,0.63,0.63,0.63,0.63,0.63,0.63,0.63,0.63,0.63,0.63,0.63,0.63,0.6375,0.6515,0.6559,0.6681,0.6886,0.6886,0.6967,0.7095,0.7095,0.7095,0.7095,0.7095,0.7095,0.7102,0.7146,0.721,0.7214,0.7216,0.7203,0.721,0.721,0.7132,0.7095,0.7095,0.7095,0.7095,0.7095,0.7095,0.7095,0.7095,0.7095,0.7095,0.7095,0.7095,0.7095,0.7095,0.7095,0.7095,0.7095,0.7095,0.7095,0.7095,0.7095,0.7095,0.7095,0.7095,0.7095,0.7095,0.7058,0.7018,0.697,0.6876,0.68,0.6647,0.6446,0.6196,0.6003,0.5884,0.583,0.5895,0.5902,0.6034,0.619,0.6276,0.6276,0.6231,0.6231,0.6115,0.5925,0.5925,0.5881,0.4245,0.3911,0.0,0.38,0.4092,0.4622,0.5632,0.0,0.0,0.0,0.5447,0.5264,0.511,0.5111,0.0,0.5096,0.526,0.5446,0.5569,0.5664,0.5739,0.5793,0.58,0.58,0.58,0.5902,0.5993,0.5993,0.6173,0.63,0.63,0.63,0.63,0.63,0.63,0.63,0.63,0.63,0.63,0.63,0.63,0.6344,0.6426,0.6426,0.6519,0.6756,0.6832,0.6967,0.7095,0.7095,0.7095,0.7095,0.7095,0.7095,0.7095,0.7095,0.7095,0.7095,0.7095,0.7095,0.7095,0.7095,0.7095,0.7095,0.7095,0.7095,0.7095,0.7095,0.7095,0.7095,0.7095,0.7095,0.7095,0.7095,0.7095,0.7095,0.7095,0.7095,0.7095,0.7095,0.7095,0.7095,0.7095,0.7095,0.7095,0.7095,0.7095,0.7095,0.7095,0.7095,0.7095,0.7095,0.7021,0.6883,0.6719,0.6536,0.6346,0.6135,0.6034,0.6051,0.62,0.6152,0.6166,0.6296,0.63,0.63,0.63,0.6238,0.6152,0.6122,0.6122,0.604,0.4479,0.4107,0.0,0.418,0.4666,0.0,0.7047,0.6713,0.6073,0.5986,0.0,0.5537,0.5176,0.5267,0.5347,0.5143,0.527,0.5443,0.5549,0.5569,0.5616,0.5745,0.5762,0.5762,0.5762,0.5898,0.5952,0.5952,0.6132,0.6255,0.6255,0.6272,0.6286,0.63,0.63,0.6306,0.632,0.6306,0.63,0.63,0.63,0.63,0.63,0.63,0.6385,0.6549,0.6803,0.6967,0.7095,0.7095,0.7095,0.7095,0.7095,0.7095,0.7095,0.7095,0.7095,0.7095,0.7095,0.7095,0.7095,0.7095,0.7095,0.7095,0.7095,0.7095,0.7095,0.7095,0.7095,0.7095,0.7095,0.7095,0.7095,0.7095,0.7095,0.7095,0.7095,0.7095,0.7095,0.7095,0.7095,0.7095,0.7095,0.7095,0.7095,0.7095,0.7095,0.7095,0.7095,0.7095,0.7095,0.7095,0.7085,0.6964,0.6725,0.6688,0.6559,0.6317,0.63,0.6371,0.6525,0.6395,0.632,0.632,0.632,0.6313,0.63,0.6118,0.6125,0.63,0.6313,0.6203,0.4751,0.4521,0.0,0.0,0.5609,0.6628,0.7827,0.7841,0.7421,0.6685,0.6235,0.587,0.5413,0.5371,0.5385,0.5351,0.5375,0.5405,0.544,0.5443,0.5453,0.5487,0.5491,0.5491,0.5491,0.5596,0.5684,0.5684,0.582,0.5901,0.5901,0.6013,0.6135,0.6296,0.63,0.6354,0.6467,0.6358,0.63,0.63,0.63,0.63,0.63,0.63,0.6443,0.6661,0.6848,0.6967,0.7095,0.7095,0.7095,0.7095,0.7095,0.7095,0.7095,0.7095,0.7095,0.7095,0.7095,0.7095,0.7095,0.7095,0.7095,0.7095,0.7095,0.7095,0.7095,0.7095,0.7095,0.7095,0.7095,0.7095,0.7095,0.7095,0.7095,0.7095,0.7095,0.7095,0.7095,0.7095,0.7095,0.7095,0.7095,0.7095,0.7095,0.7095,0.7095,0.7095,0.7095,0.7095,0.7095,0.7095,0.6997,0.6859,0.6715,0.659,0.6487,0.631,0.63,0.6419,0.6641,0.6549,0.6467,0.6467,0.6467,0.6412,0.63,0.6265,0.6269,0.6303,0.6416,0.645,0.5019,0.0,0.0,0.5847,0.0,0.748,0.8502,0.8789,0.8606,0.7864,0.7113,0.6478,0.5954,0.5888,0.5888,0.5888,0.5888,0.5888,0.5888,0.5888,0.5888,0.5888,0.5822,0.5756,0.566,0.5668,0.5655,0.5589,0.5722,0.58,0.58,0.5909,0.603,0.6146,0.6259,0.6334,0.6409,0.6337,0.63,0.63,0.63,0.63,0.63,0.63,0.646,0.6705,0.6783,0.69,0.7095,0.7095,0.7095,0.7095,0.7095,0.7095,0.7095,0.7095,0.7095,0.7095,0.7095,0.7095,0.7095,0.7095,0.7095,0.7095,0.7095,0.7095,0.7095,0.7095,0.7095,0.7095,0.7095,0.7095,0.7095,0.7095,0.7095,0.7095,0.7095,0.7095,0.7095,0.7095,0.7095,0.7095,0.7095,0.7095,0.7095,0.7095,0.7095,0.7095,0.7095,0.7095,0.7095,0.7095,0.7031,0.6927,0.682,0.6668,0.6549,0.6515,0.6443,0.6495,0.6797,0.6732,0.6692,0.6692,0.662,0.6546,0.6471,0.6436,0.6439,0.6474,0.6549,0.658,0.5231,0.0,0.5723,0.6809,0.7443,0.0,0.8916,0.9327,0.9392,0.8967,0.8128,0.7293,0.6773,0.6675,0.6675,0.6675,0.6675,0.6675,0.6675,0.6675,0.6675,0.6675,0.6507,0.6309,0.605,0.594,0.5782,0.5583,0.5657,0.5725,0.5725,0.5871,0.5929,0.5952,0.6115,0.6231,0.6259,0.6259,0.6259,0.6259,0.6286,0.63,0.63,0.63,0.646,0.6702,0.6702,0.6868,0.7095,0.7095,0.7095,0.7095,0.7095,0.7095,0.7095,0.7095,0.7095,0.7095,0.7095,0.7095,0.7095,0.7095,0.7095,0.7095,0.7095,0.7095,0.7095,0.7095,0.7095,0.7095,0.7095,0.7095,0.7095,0.7095,0.7095,0.7095,0.7095,0.7095,0.7095,0.7095,0.7095,0.7095,0.7095,0.7095,0.7095,0.7095,0.7095,0.7095,0.7095,0.7095,0.7095,0.7095,0.7095,0.7038,0.69,0.6814,0.6729,0.6702,0.658,0.6637,0.6873,0.6886,0.69,0.692,0.6817,0.6725,0.6702,0.6573,0.6576,0.6702,0.6725,0.6739,0.0,0.0,0.6311,0.0,0.7376,0.7903,0.0,0.0,0.9106,0.0,0.8848,0.835,0.7864,0.78,0.78,0.78,0.78,0.78,0.78,0.78,0.78,0.78,0.7447,0.706,0.6625,0.6259,0.5881,0.5456,0.5443,0.5453,0.5453,0.5566,0.5705,0.5827,0.5854,0.5925,0.6023,0.6023,0.6023,0.6023,0.6235,0.63,0.63,0.63,0.646,0.6702,0.6702,0.6868,0.7095,0.7095,0.7095,0.7095,0.7095,0.7095,0.7095,0.7095,0.7095,0.7095,0.7095,0.7095,0.7095,0.7095,0.7095,0.7095,0.7095,0.7095,0.7095,0.7095,0.7095,0.7095,0.7095,0.7095,0.7095,0.7095,0.7095,0.7095,0.7095,0.7095,0.7095,0.7095,0.7095,0.7095,0.7095,0.7095,0.7095,0.7095,0.7095,0.7095,0.7095,0.7095,0.7095,0.7095,0.7095,0.7038,0.69,0.6866,0.6841,0.6709,0.6681,0.6749,0.6879,0.6886,0.6943,0.7065,0.6927,0.6831,0.6702,0.6678,0.6681,0.6705,0.6834,0.6856,0.5349,0.5917,0.6409,0.0,0.7426,0.7769,0.8424,0.8738,0.8954,0.9182,0.9373,0.9312,0.8688,0.8554,0.8554,0.8554,0.8554,0.8554,0.8554,0.8554,0.8554,0.8554,0.8231,0.7804,0.7312,0.6929,0.6511,0.5987,0.5888,0.5789,0.569,0.5705,0.5717,0.5681,0.5759,0.5833,0.5901,0.5901,0.5909,0.5993,0.6186,0.63,0.63,0.63,0.646,0.6702,0.6702,0.6868,0.7095,0.7095,0.7095,0.7095,0.7095,0.7095,0.7095,0.7095,0.7095,0.7095,0.7095,0.7095,0.7095,0.7095,0.7095,0.7095,0.7095,0.7095,0.7095,0.7095,0.7095,0.7095,0.7095,0.7095,0.7095,0.7095,0.7095,0.7095,0.7095,0.7095,0.7095,0.7095,0.7095,0.7095,0.7095,0.7095,0.7095,0.7095,0.7095,0.7095,0.7095,0.7095,0.7095,0.7095,0.7095,0.7071,0.7007,0.693,0.6893,0.6903,0.6871,0.6852,0.6997,0.7004,0.7034,0.7095,0.7034,0.697,0.6903,0.6903,0.6903,0.6903,0.6893,0.6927,0.0,0.0,0.6258,0.7062,0.7316,0.7517,0.0,0.0,0.8778,0.0,0.9511,0.976,0.9336,0.936,0.9402,0.9402,0.9402,0.9402,0.9402,0.9402,0.9402,0.9402,0.9107,0.8683,0.8161,0.7777,0.7358,0.6835,0.6605,0.6375,0.6115,0.5966,0.5764,0.5566,0.5633,0.5688,0.5688,0.5728,0.5844,0.5993,0.6146,0.6262,0.63,0.63,0.646,0.6702,0.6702,0.6868,0.7095,0.7095,0.7095,0.7095,0.7095,0.7095,0.7095,0.7095,0.7095,0.7095,0.7095,0.7095,0.7095,0.7095,0.7095,0.7095,0.7095,0.7095,0.7095,0.7095,0.7095,0.7095,0.7095,0.7095,0.7095,0.7095,0.7095,0.7095,0.7095,0.7095,0.7095,0.7095,0.7095,0.7095,0.7095,0.7129,0.7142,0.7102,0.7129,0.7139,0.7102,0.7129,0.7156,0.7156,0.7189,0.7196,0.7159,0.7102,0.7028,0.7092,0.6997,0.6987,0.7092,0.7095,0.7095,0.7095,0.7095,0.7095,0.7095,0.7095,0.7095,0.7095,0.6987,0.6997,0.0,0.5518,0.0,0.6486,0.684,0.0,0.0,0.0,0.8502,0.8771,0.9044,0.9402,0.9943,1.0305,1.053,1.053,1.053,1.053,1.053,1.053,1.053,1.053,1.0174,0.9722,0.9274,0.8871,0.8415,0.7962,0.7544,0.7153,0.6687,0.6276,0.5863,0.5439,0.5416,0.5419,0.5419,0.5562,0.5745,0.5993,0.6,0.6118,0.63,0.63,0.646,0.6702,0.6702,0.6868,0.7095,0.7095,0.7095,0.7095,0.7095,0.7095,0.7095,0.7095,0.7095,0.7095,0.7095,0.7095,0.7095,0.7095,0.7095,0.7095,0.7095,0.7095,0.7095,0.7095,0.7095,0.7095,0.7095,0.7095,0.7095,0.7095,0.7095,0.7095,0.7095,0.7095,0.7095,0.7095,0.7095,0.7095,0.7095,0.7261,0.7309,0.7119,0.7265,0.7305,0.7115,0.7268,0.7405,0.7405,0.7489,0.7516,0.7415,0.7398,0.7288,0.7105,0.7088,0.7088,0.7095,0.7095,0.7095,0.7095,0.7095,0.7095,0.7095,0.7095,0.7095,0.7095,0.7088,0.7088,0.0,0.0,0.0,0.5932,0.6386,0.682,0.7114,0.7517,0.7953,0.8456,0.8758,0.9058,0.9451,0.9947,1.0341,1.0566,1.0593,1.0593,1.0593,1.0593,1.0593,1.0593,1.0371,1.004,0.9652,0.939,0.9069,0.8683,0.8296,0.7869,0.7377,0.6994,0.6576,0.6057,0.5954,0.5785,0.5521,0.5579,0.5644,0.5749,0.5902,0.602,0.6115,0.6252,0.6409,0.6559,0.6658,0.6868,0.7095,0.7095,0.7095,0.7095,0.7095,0.7095,0.7095,0.7095,0.7095,0.7095,0.7095,0.7095,0.7095,0.7095,0.7095,0.7095,0.7095,0.7095,0.7095,0.7095,0.7095,0.7119,0.7261,0.7288,0.7316,0.7414,0.7434,0.7434,0.7434,0.7233,0.7095,0.7095,0.7095,0.7095,0.7095,0.7268,0.7319,0.7119,0.7272,0.7353,0.7295,0.7336,0.7453,0.7506,0.7567,0.7577,0.7522,0.7428,0.735,0.7292,0.7149,0.7095,0.7095,0.7095,0.7095,0.7095,0.7095,0.7095,0.7095,0.7095,0.7095,0.7095,0.7004,0.7011,0.4349,0.0,0.0,0.0,0.0,0.6495,0.6848,0.7171,0.7535,0.7993,0.8409,0.8751,0.9011,0.9464,0.9923,1.0347,1.0526,1.0593,1.0593,1.0593,1.0593,1.0593,1.0466,1.0301,1.0098,0.9939,0.9786,0.9562,0.9204,0.878,0.8258,0.7907,0.7423,0.6741,0.6507,0.6174,0.5782,0.5626,0.5538,0.5593,0.5789,0.5908,0.5919,0.6057,0.6252,0.645,0.6559,0.6793,0.7028,0.7078,0.7095,0.7095,0.7095,0.7095,0.7095,0.7095,0.7095,0.7095,0.7095,0.7095,0.7095,0.7095,0.7095,0.7095,0.7095,0.7095,0.7095,0.7095,0.7095,0.7132,0.7329,0.7456,0.7472,0.7577,0.76,0.76,0.76,0.7438,0.725,0.725,0.725,0.725,0.725,0.7421,0.7468,0.7316,0.7424,0.7502,0.7455,0.7489,0.7556,0.7658,0.7716,0.7726,0.7675,0.7577,0.7499,0.7451,0.735,0.7227,0.7221,0.7217,0.7149,0.7098,0.7095,0.7095,0.7095,0.7095,0.7095,0.7095,0.7001,0.7007,0.0,0.0,0.0,0.0,0.0,0.0,0.6643,0.0,0.7242,0.7439,0.7953,0.8462,0.8738,0.9004,0.9384,0.9963,1.0347,1.0579,1.0593,1.0593,1.0593,1.0593,1.0593,1.0593,1.0593,1.0593,1.0593,1.0593,1.0238,0.9824,0.9338,0.8935,0.8318,0.7451,0.6985,0.6527,0.6141,0.5657,0.5504,0.5617,0.562,0.5696,0.5832,0.5835,0.6003,0.6338,0.645,0.6644,0.6932,0.7038,0.7095,0.7095,0.7095,0.7095,0.7095,0.7095,0.7095,0.7095,0.7095,0.7095,0.7095,0.7095,0.7095,0.7095,0.7095,0.7095,0.7098,0.7102,0.7102,0.7139,0.7343,0.7499,0.7611,0.7611,0.7611,0.7611,0.7611,0.7611,0.7611,0.76,0.76,0.76,0.76,0.7719,0.7763,0.7621,0.7719,0.7763,0.7624,0.7726,0.7814,0.7818,0.7901,0.7931,0.7831,0.7814,0.7753,0.7614,0.76,0.7533,0.7429,0.7419,0.7299,0.7105,0.7098,0.7095,0.7095,0.7095,0.7095,0.7095,0.7095,0.7095,0.4113,0.0,0.0,0.0,0.0,0.0,0.0,0.0,0.7072,0.713,0.7471,0.7899,0.8422,0.8731,0.9024,0.9397,0.9877,1.0314,1.0566,1.0593,1.0593,1.0593,1.0593,1.0593,1.0593,1.0593,1.0593,0.0,1.0371,1.0047,0.9684,0.9204,0.8689,0.8199,0.7707,0.7251,0.6905,0.6383,0.6146,0.6193,0.6275,0.6356,0.6371,0.6533,0.6638,0.6746,0.6831,0.6905,0.6986,0.7078,0.7095,0.7095,0.7095,0.7095,0.7095,0.7095,0.7095,0.7095,0.7095,0.7095,0.7095,0.7095,0.7095,0.7095,0.7095,0.7095,0.7119,0.7275,0.7309,0.7366,0.7624,0.7804,0.787,0.787,0.787,0.787,0.787,0.787,0.7855,0.7641,0.76,0.76,0.76,0.7719,0.7763,0.7621,0.7719,0.7797,0.7756,0.7787,0.7851,0.7914,0.7965,0.7971,0.7931,0.7875,0.7794,0.7753,0.7655,0.758,0.7539,0.7431,0.7353,0.7309,0.7152,0.7095,0.7095,0.7095,0.7095,0.7095,0.7095,0.7095,0.4744,0.5146,0.0,0.0,0.0,0.0,0.6187,0.6513,0.6887,0.0,0.7335,0.7695,0.8193,0.8458,0.8709,0.895,0.9342,0.9771,1.0164,1.0224,1.0224,1.0224,1.0332,1.0374,1.0374,1.0519,1.0593,1.0593,1.0498,1.0333,1.0129,0.9849,0.9498,0.9139,0.8619,0.8194,0.7842,0.7321,0.7064,0.7064,0.7138,0.7192,0.7196,0.7316,0.7346,0.7374,0.7284,0.7257,0.7258,0.7147,0.7095,0.7095,0.7095,0.7095,0.7095,0.7095,0.7095,0.7095,0.7095,0.7095,0.7095,0.7095,0.7095,0.7095,0.7095,0.7095,0.7115,0.7248,0.7366,0.7519,0.775,0.7877,0.7988,0.7988,0.7988,0.7988,0.7988,0.7988,0.7938,0.7818,0.7784,0.7784,0.7784,0.7851,0.7879,0.7794,0.7851,0.7906,0.7906,0.7906,0.7891,0.7982,0.7988,0.7988,0.7988,0.7907,0.7906,0.7906,0.7828,0.7753,0.7692,0.76,0.7495,0.7419,0.7282,0.7204,0.7095,0.7095,0.7095,0.7095,0.7231,0.7323,0.5929,0.6184,0.0,0.6812,0.6785,0.0,0.6755,0.6721,0.6771,0.0,0.7388,0.7676,0.7997,0.8206,0.8362,0.8546,0.8735,0.9044,0.9568,0.9688,0.9715,0.9715,0.9913,1.008,1.0114,1.0354,1.0553,1.0586,1.0593,1.0593,1.0593,1.0593,1.0434,1.0047,0.9594,0.9166,0.8801,0.835,0.8124,0.8124,0.8124,0.8124,0.8124,0.8124,0.8109,0.8129,0.7816,0.7737,0.771,0.7386,0.717,0.7095,0.7095,0.7095,0.7095,0.7095,0.7095,0.7095,0.7095,0.7095,0.7095,0.7095,0.7095,0.7095,0.7095,0.7095,0.7102,0.7136,0.74,0.7655,0.7797,0.7887,0.7988,0.7988,0.7988,0.7988,0.7988,0.7988,0.7988,0.7988,0.7988,0.7988,0.7988,0.7988,0.7988,0.7988,0.7988,0.7988,0.7988,0.7988,0.7988,0.7988,0.7988,0.7988,0.7988,0.7988,0.7988,0.7988,0.7988,0.7928,0.7841,0.7821,0.7678,0.7446,0.7454,0.7413,0.7272,0.7139,0.7095,0.7095,0.7411,0.7676,0.6942,0.7332,0.7543,0.716,0.7298,0.0,0.6704,0.6867,0.7115,0.0,0.7207,0.7533,0.7819,0.7796,0.7773,0.7802,0.794,0.8321,0.9178,0.9532,0.9715,0.9715,0.9733,0.986,1.0094,1.0167,1.0301,1.0573,1.0593,1.0593,1.0593,1.0593,1.0498,1.0244,0.9875,0.9582,0.9358,0.8973,0.8818,0.8818,0.8818,0.8818,0.8818,0.8818,0.8853,0.8936,0.8517,0.8433,0.8604,0.8163,0.7639,0.7095,0.7095,0.7095,0.7095,0.7095,0.7095,0.7095,0.7095,0.7095,0.7095,0.7095,0.7095,0.7095,0.7095,0.7095,0.7146,0.7441,0.7634,0.7804,0.7907,0.7968,0.7988,0.7988,0.7988,0.7988,0.7988,0.7988,0.7988,0.7988,0.7988,0.7988,0.7988,0.7988,0.7988,0.7988,0.7988,0.7988,0.7988,0.7988,0.7988,0.7988,0.7988,0.7988,0.7988,0.7988,0.7988,0.7988,0.7988,0.7975,0.7944,0.7875,0.7825,0.7787,0.7941,0.8143,0.8285,0.7492,0.7095,0.7095,0.754,0.8069,0.7939,0.8149,0.8181,0.7866,0.7872,0.0,0.0,0.7101,0.7307,0.75,0.7688,0.7948,0.8459,0.8254,0.7966,0.7825,0.7851,0.8011,0.8362,0.878,0.9112,0.9232,0.9372,0.9491,0.9637,0.9813,0.996,1.0144,1.0151,1.0218,1.0327,1.0341,1.0376,1.046,1.0295,1.0136,1.004,0.9881,0.9786,0.9786,0.9786,0.9786,0.9786,0.9786,0.9886,0.9985,0.9515,0.9432,0.9622,0.9326,0.896,0.8578,0.807,0.7757,0.7625,0.7496,0.7452,0.7496,0.7452,0.754,0.7669,0.7801,0.7845,0.7845,0.7845,0.7723,0.7614,0.7716,0.7794,0.7845,0.7948,0.7988,0.7988,0.7988,0.7988,0.7988,0.7988,0.7988,0.7988,0.7988,0.7988,0.7988,0.7988,0.7988,0.7988,0.7988,0.7988,0.7988,0.7988,0.7988,0.7988,0.7988,0.7988,0.7988,0.7988,0.7988,0.7988,0.7988,0.7988,0.7988,0.7988,0.7917,0.8104,0.857,0.8812,0.9148,0.9579,0.9096,0.8488,0.7845,0.842,0.903,0.9193,0.9152,0.8917,0.8758,0.8479,0.8134,0.0,0.0,0.0,0.8121,0.8304,0.8531,0.0,0.0,0.0,0.8006,0.0,0.0,0.0,0.7963,0.0,0.8661,0.8871,0.9005,0.9038,0.9345,0.9539,0.9593,0.9599,0.9726,1.002,1.0057,1.0227,1.0499,1.0566,1.0593,1.0593,1.0593,1.0593,1.0593,1.0593,1.0593,1.0593,1.0593,1.0679,1.0817,1.039,1.0327,1.0562,1.0463,1.0413,1.0349,0.9377,0.8803,0.85,0.8157,0.8025,0.8069,0.8025,0.8197,0.8548,0.889,0.8978,0.8978,0.8894,0.8577,0.8257,0.8106,0.7933,0.7845,0.7948,0.7988,0.7988,0.7988,0.7988,0.7988,0.7988,0.7988,0.7988,0.7988,0.7988,0.7988,0.7988,0.7988,0.7988,0.7988,0.7988,0.7988,0.7988,0.7988,0.7988,0.7988,0.7988,0.7988,0.7988,0.7988,0.7988,0.7988,0.7988,0.7988,0.7988,0.806,0.8493,0.9262,0.9558,1.0057,1.0745,1.0745,1.0139,0.8978,0.9641,1.0207,1.1178,1.0953,1.0448,0.9672,0.9186,0.8688,0.785,0.0,0.8283,0.8364,0.0,0.8931,0.0,0.0,0.0,0.0,0.0,0.0,0.7472,0.7579,0.7854,0.8294,0.829,0.8299,0.8476,0.8738,0.9011,0.9244,0.9264,0.9391,0.9713,0.9973,1.0134,1.0167,1.0452,1.0593,1.0593,1.0593,1.0593,1.0593,1.0593,1.0593,1.0593,1.0593,1.0777,1.1046,1.0628,1.0761,1.1268,1.1227,1.1269,1.1375,1.0658,1.0096,0.9623,0.9021,0.8759,0.8803,0.8759,0.9061,0.9536,1.0183,1.0351,1.0308,0.9879,0.9407,0.8923,0.8606,0.8167,0.7845,0.7948,0.7988,0.7988,0.7988,0.7988,0.7988,0.7988,0.7988,0.7988,0.7988,0.7988,0.7988,0.7988,0.7988,0.7988,0.7988,0.7988,0.7988,0.7988,0.7988,0.7988,0.7988,0.7988,0.7988,0.7988,0.7988,0.7988,0.7988,0.7988,0.7988,0.7988,0.8353,0.877,0.9274,0.9845,1.0485,1.1235,1.1235,1.0928,1.0394,1.0885,1.1445,0.0,0.0,1.04,0.9767,0.9299,0.8848,0.8242,0.8268,0.8532,0.9004,0.0,0.0,0.0,0.0,0.0,0.0,0.8249,0.0,0.0,0.0,0.7772,0.7882,0.0,0.0,0.809,0.8063,0.8156,0.8432,0.8452,0.8658,0.9152,0.9424,0.9737,1.0077,1.0241,1.0388,1.0593,1.0593,1.0593,1.0593,1.0593,1.0593,1.0593,1.0593,1.0843,1.1252,1.1114,1.1362,1.196,1.225,1.2468,1.2532,1.262,1.1826,1.0626,0.998,0.9763,0.985,0.9767,1.0111,1.0669,1.123,1.1402,1.1311,1.0842,1.0425,0.9985,0.9566,0.9192,0.8841,0.8718,0.8584,0.8432,0.8283,0.8137,0.7988,0.7988,0.7988,0.7988,0.7988,0.7988,0.7988,0.7988,0.7988,0.7988,0.7988,0.7988,0.7988,0.7988,0.7988,0.7988,0.7988,0.7988,0.7988,0.7988,0.7988,0.7988,0.7988,0.7988,0.7988,0.7988,0.8335,0.8841,0.9424,1.0054,1.0914,1.2046,1.1997,1.1832,1.1595,1.166,1.1923,1.0985,1.0771,1.0322,0.9747,0.9299,0.8896,0.8493,0.8483,0.8789,0.962,0.9884,0.0,0.0,0.0,0.0,0.0,0.0,0.8329,0.0,0.7645,0.0,0.0,0.0,0.0,0.0,0.7402,0.7443,0.7685,0.7682,0.7952,0.8651,0.8938,0.9364,0.998,1.0043,1.0261,1.0586,1.0593,1.0593,1.0593,1.0593,1.0593,1.0593,1.0593,1.0875,1.1389,1.1389,1.1804,1.2465,1.2993,1.326,1.334,1.3888,1.3222,1.188,1.1101,1.0933,1.1068,1.089,1.1365,1.21,1.2448,1.2577,1.2491,1.2015,1.165,1.1293,1.0833,1.0482,1.0158,0.9817,0.9418,0.9019,0.8726,0.8283,0.7988,0.7988,0.7988,0.7988,0.7988,0.7988,0.7988,0.7988,0.7988,0.7988,0.7988,0.7988,0.7988,0.7988,0.7988,0.7988,0.7988,0.7988,0.7988,0.7988,0.7988,0.7988,0.7988,0.7988,0.7988,0.7988,0.8374,0.8869,0.9536,1.038,1.1391,1.2651,1.26,1.2514,1.2334,1.218,1.2186,1.1577,1.1242,1.0663,0.9825,0.9299,0.8896,0.8493,0.8708,0.9228,1.0107,1.0586,1.0996,0.0,0.0,0.0,0.0,0.0,0.0,0.0,0.0,0.0,0.0,0.0,0.0,0.0,0.6768,0.7009,0.0,0.7103,0.7442,0.8368,0.8664,0.9092,0.9679,0.9967,1.0261,1.0586,1.0593,1.0593,1.0593,1.0593,1.0593,1.0593,1.0593,1.0875,1.1389,1.1389,1.1924,1.2797,1.308,1.3333,1.362,1.3968,1.3913,1.3519,1.2595,1.2297,1.2314,1.2248,1.3033,1.3997,1.4046,1.4046,1.3955,1.3483,1.3148,1.2831,1.2376,1.2026,1.1707,1.1268,1.0534,0.985,0.9316,0.8581,0.7988,0.7988,0.7988,0.7988,0.7988,0.7988,0.7988,0.7988,0.7988,0.7988,0.7988,0.7988,0.7988,0.7988,0.7988,0.7988,0.7988,0.7988,0.7988,0.7988,0.7988,0.7988,0.7988,0.7988,0.7988,0.7988,0.8524,0.9082,0.9688,1.0948,1.1955,1.2718,1.2939,1.284,1.2406,1.2406,1.2351,1.1924,1.1465,1.084,1.0527,0.9923,0.9367,0.9221,0.9541,1.001,1.0576,1.1056,1.1408,1.1577,0.0,0.0,0.0,0.0,0.0,0.0,0.0,0.0,0.0,0.0,0.0,0.0,0.0,0.6668,0.7034,0.6861,0.7041,0.7759,0.8275,0.8784,0.9344,0.9679,1.0067,1.0586,1.0593,1.0593,1.0593,1.0593,1.0593,1.0593,1.0593,1.0875,1.1402,1.163,1.2147,1.2824,1.3293,1.3513,1.3633,1.3975,1.4039,1.387,1.3082,1.2869,1.3094,1.3209,1.3603,1.4088,1.4088,1.4088,1.4079,1.3965,1.3743,1.3519,1.3378,1.3159,1.2829,1.2339,1.1609,1.093,1.0404,0.962,0.9031,0.8836,0.8634,0.8482,0.8287,0.8137,0.7988,0.7988,0.7988,0.7988,0.7988,0.7988,0.7988,0.7988,0.7988,0.7988,0.7988,0.7988,0.7988,0.7988,0.7988,0.7988,0.7988,0.7988,0.7988,0.7988,0.8531,0.914,0.986,1.0891,1.1973,1.3146,1.3004,1.2829,1.2679,1.2482,1.24,1.1914,1.1572,1.1103,1.0947,1.0478,1.002,0.9874,1.0195,1.0625,1.1055,1.1494,1.1868,1.2025,0.0,0.0,0.0,0.0,0.0,0.0,0.7583,0.0,0.0,0.0,0.0,0.0,0.0,0.6787,0.7024,0.693,0.7093,0.0,0.8109,0.8651,0.9239,0.9554,0.9997,1.0586,1.0593,1.0593,1.0593,1.0593,1.0593,1.0593,1.07,1.0975,1.1415,1.185,1.2395,1.2991,1.34,1.3666,1.378,1.4015,1.4088,1.4046,1.3568,1.3483,1.3652,1.3786,1.3955,1.4088,1.4088,1.4155,1.4233,1.4289,1.4346,1.4363,1.4408,1.437,1.419,1.3709,1.2974,1.229,1.1765,1.0988,1.0306,0.9965,0.9562,0.9118,0.8775,0.8333,0.7988,0.7988,0.7988,0.7988,0.7988,0.7988,0.7988,0.7988,0.7988,0.7988,0.7988,0.7988,0.7988,0.7988,0.7988,0.7988,0.7988,0.7988,0.7988,0.7988,0.8581,0.9365,1.0293,1.1284,1.2415,1.3689,1.3402,1.3226,1.3029,1.2868,1.2705]}]]